<?xml version='1.0' encoding='UTF-8'?><gpx version="1.1" creator="JPX - https://github.com/jenetics/jpx" xmlns="http://www.topografix.com/GPX/1/1"><trk><trkseg><trkpt lat="42.321752" lon="13.5441127"><ele>757.0</ele><time>2026-04-12T07:33:57.825Z</time></trkpt><trkpt lat="42.3217097" lon="13.5441874"><ele>757.0</ele><time>2026-04-12T07:34:04.826Z</time></trkpt><trkpt lat="42.3216432" lon="13.5441658"><ele>757.0</ele><time>2026-04-12T07:34:13.824Z</time></trkpt><trkpt lat="42.3217112" lon="13.5441661"><ele>757.0</ele><time>2026-04-12T07:34:42.824Z</time></trkpt><trkpt lat="42.3217375" lon="13.5440845"><ele>757.0</ele><time>2026-04-12T07:34:50.824Z</time></trkpt><trkpt lat="42.3217967" lon="13.544132"><ele>757.0</ele><time>2026-04-12T07:35:11.824Z</time></trkpt><trkpt lat="42.3218584" lon="13.5441947"><ele>757.0</ele><time>2026-04-12T07:35:14.823Z</time></trkpt><trkpt lat="42.3218604" lon="13.5439601"><ele>757.0</ele><time>2026-04-12T07:35:16.824Z</time></trkpt><trkpt lat="42.3218734" lon="13.5438578"><ele>757.0</ele><time>2026-04-12T07:35:18.824Z</time></trkpt><trkpt lat="42.3218923" lon="13.5437665"><ele>757.0</ele><time>2026-04-12T07:35:20.825Z</time></trkpt><trkpt lat="42.3219163" lon="13.5436723"><ele>757.0</ele><time>2026-04-12T07:35:22.823Z</time></trkpt><trkpt lat="42.3219434" lon="13.5435829"><ele>757.0</ele><time>2026-04-12T07:35:24.823Z</time></trkpt><trkpt lat="42.3219779" lon="13.5434852"><ele>757.0</ele><time>2026-04-12T07:35:26.823Z</time></trkpt><trkpt lat="42.3220071" lon="13.5433694"><ele>756.4000000000001</ele><time>2026-04-12T07:35:28.823Z</time></trkpt><trkpt lat="42.3220369" lon="13.5432623"><ele>755.8000000000001</ele><time>2026-04-12T07:35:30.824Z</time></trkpt><trkpt lat="42.322067" lon="13.5431484"><ele>755.2</ele><time>2026-04-12T07:35:32.824Z</time></trkpt><trkpt lat="42.3221008" lon="13.5430129"><ele>754.6</ele><time>2026-04-12T07:35:34.824Z</time></trkpt><trkpt lat="42.3221371" lon="13.5428615"><ele>754.0</ele><time>2026-04-12T07:35:36.824Z</time></trkpt><trkpt lat="42.3221963" lon="13.5427087"><ele>754.1666666666667</ele><time>2026-04-12T07:35:38.823Z</time></trkpt><trkpt lat="42.3222247" lon="13.5425708"><ele>754.3333333333334</ele><time>2026-04-12T07:35:40.823Z</time></trkpt><trkpt lat="42.3222837" lon="13.5424844"><ele>754.5</ele><time>2026-04-12T07:35:42.823Z</time></trkpt><trkpt lat="42.3223607" lon="13.5424894"><ele>754.6666666666666</ele><time>2026-04-12T07:35:44.823Z</time></trkpt><trkpt lat="42.3224244" lon="13.5425321"><ele>754.8333333333333</ele><time>2026-04-12T07:35:46.825Z</time></trkpt><trkpt lat="42.3224695" lon="13.542611"><ele>755.0</ele><time>2026-04-12T07:35:48.824Z</time></trkpt><trkpt lat="42.3224933" lon="13.5427117"><ele>755.0</ele><time>2026-04-12T07:35:50.823Z</time></trkpt><trkpt lat="42.3224962" lon="13.5428026"><ele>755.0</ele><time>2026-04-12T07:35:52.823Z</time></trkpt><trkpt lat="42.322522" lon="13.5429074"><ele>755.0</ele><time>2026-04-12T07:35:55.824Z</time></trkpt><trkpt lat="42.3225469" lon="13.5430044"><ele>755.0</ele><time>2026-04-12T07:35:58.824Z</time></trkpt><trkpt lat="42.3225902" lon="13.5431064"><ele>755.0</ele><time>2026-04-12T07:36:01.823Z</time></trkpt><trkpt lat="42.3226507" lon="13.5431787"><ele>755.0</ele><time>2026-04-12T07:36:05.824Z</time></trkpt><trkpt lat="42.3226466" lon="13.5432813"><ele>755.5714285714286</ele><time>2026-04-12T07:36:14.823Z</time></trkpt><trkpt lat="42.3227073" lon="13.5432119"><ele>756.1428571428572</ele><time>2026-04-12T07:36:18.824Z</time></trkpt><trkpt lat="42.3227569" lon="13.5431475"><ele>756.7142857142858</ele><time>2026-04-12T07:36:20.824Z</time></trkpt><trkpt lat="42.3226952" lon="13.5432142"><ele>757.2857142857142</ele><time>2026-04-12T07:36:24.824Z</time></trkpt><trkpt lat="42.3226962" lon="13.5432998"><ele>757.8571428571429</ele><time>2026-04-12T07:36:51.824Z</time></trkpt><trkpt lat="42.3227128" lon="13.5434151"><ele>758.4285714285714</ele><time>2026-04-12T07:36:54.824Z</time></trkpt><trkpt lat="42.3227326" lon="13.5434986"><ele>759.0</ele><time>2026-04-12T07:36:56.824Z</time></trkpt><trkpt lat="42.3227875" lon="13.5436235"><ele>759.0</ele><time>2026-04-12T07:36:58.823Z</time></trkpt><trkpt lat="42.3228393" lon="13.5437091"><ele>759.0</ele><time>2026-04-12T07:37:00.823Z</time></trkpt><trkpt lat="42.322976" lon="13.5437562"><ele>759.0</ele><time>2026-04-12T07:37:12.823Z</time></trkpt><trkpt lat="42.3230412" lon="13.5438295"><ele>759.0</ele><time>2026-04-12T07:37:24.825Z</time></trkpt><trkpt lat="42.3230714" lon="13.5439178"><ele>759.0</ele><time>2026-04-12T07:37:27.824Z</time></trkpt><trkpt lat="42.3231216" lon="13.5440115"><ele>759.6666666666666</ele><time>2026-04-12T07:37:30.823Z</time></trkpt><trkpt lat="42.3231076" lon="13.5439106"><ele>760.3333333333334</ele><time>2026-04-12T07:37:35.824Z</time></trkpt><trkpt lat="42.3230343" lon="13.5438486"><ele>761.0</ele><time>2026-04-12T07:37:38.824Z</time></trkpt><trkpt lat="42.3230016" lon="13.5437741"><ele>761.6666666666667</ele><time>2026-04-12T07:37:40.824Z</time></trkpt><trkpt lat="42.3229616" lon="13.543877"><ele>762.3333333333334</ele><time>2026-04-12T07:42:10.822Z</time></trkpt><trkpt lat="42.3229282" lon="13.5439746"><ele>763.0</ele><time>2026-04-12T07:42:12.822Z</time></trkpt><trkpt lat="42.322891" lon="13.5440614"><ele>763.0</ele><time>2026-04-12T07:42:14.822Z</time></trkpt><trkpt lat="42.3228563" lon="13.5441773"><ele>763.0</ele><time>2026-04-12T07:42:17.822Z</time></trkpt><trkpt lat="42.3228337" lon="13.5442913"><ele>763.0</ele><time>2026-04-12T07:42:20.822Z</time></trkpt><trkpt lat="42.3228114" lon="13.5443796"><ele>763.0</ele><time>2026-04-12T07:42:23.822Z</time></trkpt><trkpt lat="42.322786" lon="13.5444683"><ele>763.0</ele><time>2026-04-12T07:42:26.822Z</time></trkpt><trkpt lat="42.3227589" lon="13.5445683"><ele>763.0</ele><time>2026-04-12T07:42:29.822Z</time></trkpt><trkpt lat="42.322732" lon="13.544679"><ele>763.5</ele><time>2026-04-12T07:42:32.821Z</time></trkpt><trkpt lat="42.3227174" lon="13.5447725"><ele>764.0</ele><time>2026-04-12T07:42:35.821Z</time></trkpt><trkpt lat="42.3227044" lon="13.5448792"><ele>764.5</ele><time>2026-04-12T07:42:39.821Z</time></trkpt><trkpt lat="42.3227111" lon="13.5449881"><ele>765.0</ele><time>2026-04-12T07:42:42.823Z</time></trkpt><trkpt lat="42.3227528" lon="13.5450701"><ele>765.5</ele><time>2026-04-12T07:42:44.821Z</time></trkpt><trkpt lat="42.3228146" lon="13.5451472"><ele>766.0</ele><time>2026-04-12T07:42:47.821Z</time></trkpt><trkpt lat="42.3228701" lon="13.5452296"><ele>766.0</ele><time>2026-04-12T07:42:51.822Z</time></trkpt><trkpt lat="42.3229288" lon="13.5453209"><ele>766.0</ele><time>2026-04-12T07:42:54.822Z</time></trkpt><trkpt lat="42.3229946" lon="13.5454088"><ele>766.0</ele><time>2026-04-12T07:42:57.822Z</time></trkpt><trkpt lat="42.3230483" lon="13.5454811"><ele>766.0</ele><time>2026-04-12T07:43:00.822Z</time></trkpt><trkpt lat="42.3231076" lon="13.5455587"><ele>766.0</ele><time>2026-04-12T07:43:03.821Z</time></trkpt><trkpt lat="42.3231717" lon="13.5456337"><ele>766.0</ele><time>2026-04-12T07:43:06.821Z</time></trkpt><trkpt lat="42.3232343" lon="13.5457142"><ele>767.6666666666667</ele><time>2026-04-12T07:43:09.822Z</time></trkpt><trkpt lat="42.3232899" lon="13.545808"><ele>769.3333333333334</ele><time>2026-04-12T07:43:12.821Z</time></trkpt><trkpt lat="42.32334" lon="13.5458928"><ele>771.0</ele><time>2026-04-12T07:43:15.821Z</time></trkpt><trkpt lat="42.3233926" lon="13.5459714"><ele>772.6666666666667</ele><time>2026-04-12T07:43:18.821Z</time></trkpt><trkpt lat="42.323444" lon="13.5460444"><ele>774.3333333333334</ele><time>2026-04-12T07:43:21.822Z</time></trkpt><trkpt lat="42.3234957" lon="13.5461154"><ele>776.0</ele><time>2026-04-12T07:43:23.822Z</time></trkpt><trkpt lat="42.3235439" lon="13.5461758"><ele>776.0000000000001</ele><time>2026-04-12T07:43:26.821Z</time></trkpt><trkpt lat="42.323582" lon="13.5462492"><ele>776.0</ele><time>2026-04-12T07:43:29.821Z</time></trkpt><trkpt lat="42.3236173" lon="13.5463335"><ele>776.0</ele><time>2026-04-12T07:43:32.821Z</time></trkpt><trkpt lat="42.3236507" lon="13.5464436"><ele>776.0</ele><time>2026-04-12T07:43:35.822Z</time></trkpt><trkpt lat="42.3236695" lon="13.546527"><ele>776.0000000000001</ele><time>2026-04-12T07:43:37.821Z</time></trkpt><trkpt lat="42.3236815" lon="13.5466447"><ele>776.0</ele><time>2026-04-12T07:43:40.823Z</time></trkpt><trkpt lat="42.3236932" lon="13.5467442"><ele>776.0000000000001</ele><time>2026-04-12T07:43:43.821Z</time></trkpt><trkpt lat="42.3237119" lon="13.5468474"><ele>776.0</ele><time>2026-04-12T07:43:46.821Z</time></trkpt><trkpt lat="42.323713" lon="13.5469647"><ele>776.0</ele><time>2026-04-12T07:43:49.822Z</time></trkpt><trkpt lat="42.3236986" lon="13.5470583"><ele>776.0</ele><time>2026-04-12T07:43:52.821Z</time></trkpt><trkpt lat="42.3236795" lon="13.5471625"><ele>776.0000000000001</ele><time>2026-04-12T07:43:55.822Z</time></trkpt><trkpt lat="42.323653" lon="13.5472738"><ele>776.0</ele><time>2026-04-12T07:43:58.821Z</time></trkpt><trkpt lat="42.3236335" lon="13.5473657"><ele>777.7142857142857</ele><time>2026-04-12T07:44:01.823Z</time></trkpt><trkpt lat="42.3236139" lon="13.5474531"><ele>779.4285714285714</ele><time>2026-04-12T07:44:06.822Z</time></trkpt><trkpt lat="42.3236301" lon="13.5475467"><ele>781.1428571428571</ele><time>2026-04-12T07:44:11.821Z</time></trkpt><trkpt lat="42.3236713" lon="13.5476372"><ele>782.8571428571429</ele><time>2026-04-12T07:44:14.822Z</time></trkpt><trkpt lat="42.32371" lon="13.5477048"><ele>784.5714285714287</ele><time>2026-04-12T07:44:17.822Z</time></trkpt><trkpt lat="42.3237522" lon="13.5477705"><ele>786.2857142857143</ele><time>2026-04-12T07:44:20.822Z</time></trkpt><trkpt lat="42.3237926" lon="13.5478377"><ele>788.0</ele><time>2026-04-12T07:44:23.822Z</time></trkpt><trkpt lat="42.3238461" lon="13.5479074"><ele>791.6666666666667</ele><time>2026-04-12T07:44:27.821Z</time></trkpt><trkpt lat="42.323912" lon="13.5479565"><ele>795.3333333333334</ele><time>2026-04-12T07:44:31.823Z</time></trkpt><trkpt lat="42.3239863" lon="13.5479821"><ele>799.0</ele><time>2026-04-12T07:44:35.823Z</time></trkpt><trkpt lat="42.3240569" lon="13.5480266"><ele>802.6666666666667</ele><time>2026-04-12T07:44:39.821Z</time></trkpt><trkpt lat="42.3241265" lon="13.5480993"><ele>806.3333333333334</ele><time>2026-04-12T07:44:43.821Z</time></trkpt><trkpt lat="42.3241818" lon="13.548151"><ele>810.0</ele><time>2026-04-12T07:44:46.821Z</time></trkpt><trkpt lat="42.3242354" lon="13.5482085"><ele>809.9999999999999</ele><time>2026-04-12T07:44:50.821Z</time></trkpt><trkpt lat="42.3242991" lon="13.5482109"><ele>810.0</ele><time>2026-04-12T07:44:53.823Z</time></trkpt><trkpt lat="42.3243662" lon="13.5482276"><ele>810.0</ele><time>2026-04-12T07:44:57.822Z</time></trkpt><trkpt lat="42.3244361" lon="13.5482635"><ele>810.0</ele><time>2026-04-12T07:45:01.822Z</time></trkpt><trkpt lat="42.3245004" lon="13.5483026"><ele>810.0</ele><time>2026-04-12T07:45:05.822Z</time></trkpt><trkpt lat="42.3245531" lon="13.5483636"><ele>809.9999999999999</ele><time>2026-04-12T07:45:09.822Z</time></trkpt><trkpt lat="42.3246016" lon="13.5484395"><ele>810.0</ele><time>2026-04-12T07:45:13.822Z</time></trkpt><trkpt lat="42.3246556" lon="13.548507"><ele>809.9999999999999</ele><time>2026-04-12T07:45:17.822Z</time></trkpt><trkpt lat="42.3247023" lon="13.5485788"><ele>810.0</ele><time>2026-04-12T07:45:22.821Z</time></trkpt><trkpt lat="42.3247522" lon="13.5486443"><ele>810.0</ele><time>2026-04-12T07:45:26.821Z</time></trkpt><trkpt lat="42.3248176" lon="13.5486944"><ele>810.0</ele><time>2026-04-12T07:45:30.822Z</time></trkpt><trkpt lat="42.3248715" lon="13.5487542"><ele>810.0</ele><time>2026-04-12T07:45:34.822Z</time></trkpt><trkpt lat="42.3249279" lon="13.5488088"><ele>809.9999999999999</ele><time>2026-04-12T07:45:38.821Z</time></trkpt><trkpt lat="42.3249797" lon="13.5488766"><ele>810.0</ele><time>2026-04-12T07:45:42.821Z</time></trkpt><trkpt lat="42.3250261" lon="13.5489494"><ele>813.5714285714286</ele><time>2026-04-12T07:45:46.821Z</time></trkpt><trkpt lat="42.3250776" lon="13.5490118"><ele>817.1428571428571</ele><time>2026-04-12T07:45:50.82Z</time></trkpt><trkpt lat="42.3251383" lon="13.5490772"><ele>820.7142857142858</ele><time>2026-04-12T07:45:54.821Z</time></trkpt><trkpt lat="42.3251842" lon="13.5491357"><ele>824.2857142857142</ele><time>2026-04-12T07:45:58.821Z</time></trkpt><trkpt lat="42.3252465" lon="13.5491813"><ele>827.8571428571429</ele><time>2026-04-12T07:46:02.822Z</time></trkpt><trkpt lat="42.3253158" lon="13.54921"><ele>831.4285714285714</ele><time>2026-04-12T07:46:06.821Z</time></trkpt><trkpt lat="42.3253863" lon="13.5492376"><ele>835.0</ele><time>2026-04-12T07:46:10.82Z</time></trkpt><trkpt lat="42.3254386" lon="13.5492947"><ele>835.0000000000001</ele><time>2026-04-12T07:46:14.82Z</time></trkpt><trkpt lat="42.3254938" lon="13.5493597"><ele>835.0</ele><time>2026-04-12T07:46:23.821Z</time></trkpt><trkpt lat="42.3255345" lon="13.5494264"><ele>835.0</ele><time>2026-04-12T07:46:26.821Z</time></trkpt><trkpt lat="42.3255641" lon="13.5495054"><ele>835.0</ele><time>2026-04-12T07:46:29.82Z</time></trkpt><trkpt lat="42.3256029" lon="13.5496001"><ele>835.0</ele><time>2026-04-12T07:46:33.821Z</time></trkpt><trkpt lat="42.3256794" lon="13.5496321"><ele>835.0000000000001</ele><time>2026-04-12T07:46:37.821Z</time></trkpt><trkpt lat="42.3257327" lon="13.5497072"><ele>835.0</ele><time>2026-04-12T07:46:41.821Z</time></trkpt><trkpt lat="42.3257436" lon="13.5498055"><ele>839.1428571428572</ele><time>2026-04-12T07:46:45.82Z</time></trkpt><trkpt lat="42.3257008" lon="13.5498748"><ele>843.2857142857143</ele><time>2026-04-12T07:46:48.82Z</time></trkpt><trkpt lat="42.3256499" lon="13.5499441"><ele>847.4285714285714</ele><time>2026-04-12T07:46:51.822Z</time></trkpt><trkpt lat="42.3256076" lon="13.5500098"><ele>851.5714285714287</ele><time>2026-04-12T07:46:54.82Z</time></trkpt><trkpt lat="42.3255812" lon="13.5500905"><ele>855.7142857142857</ele><time>2026-04-12T07:46:57.821Z</time></trkpt><trkpt lat="42.3255787" lon="13.5501979"><ele>859.8571428571429</ele><time>2026-04-12T07:47:01.821Z</time></trkpt><trkpt lat="42.3256018" lon="13.5503071"><ele>864.0</ele><time>2026-04-12T07:47:05.82Z</time></trkpt><trkpt lat="42.3256152" lon="13.5504038"><ele>863.8571428571429</ele><time>2026-04-12T07:47:08.82Z</time></trkpt><trkpt lat="42.3256201" lon="13.5505061"><ele>863.7142857142857</ele><time>2026-04-12T07:47:12.821Z</time></trkpt><trkpt lat="42.3256196" lon="13.5506103"><ele>863.5714285714287</ele><time>2026-04-12T07:47:16.821Z</time></trkpt><trkpt lat="42.3256116" lon="13.5507153"><ele>863.4285714285714</ele><time>2026-04-12T07:47:20.822Z</time></trkpt><trkpt lat="42.325578" lon="13.5508147"><ele>863.2857142857143</ele><time>2026-04-12T07:47:24.82Z</time></trkpt><trkpt lat="42.32555" lon="13.5508995"><ele>863.1428571428572</ele><time>2026-04-12T07:47:27.821Z</time></trkpt><trkpt lat="42.3255423" lon="13.5509907"><ele>863.0</ele><time>2026-04-12T07:47:30.82Z</time></trkpt><trkpt lat="42.3255429" lon="13.5510763"><ele>863.0000000000001</ele><time>2026-04-12T07:47:33.821Z</time></trkpt><trkpt lat="42.3255575" lon="13.5511874"><ele>863.0</ele><time>2026-04-12T07:47:37.82Z</time></trkpt><trkpt lat="42.3255793" lon="13.5512765"><ele>863.0</ele><time>2026-04-12T07:47:41.822Z</time></trkpt><trkpt lat="42.3256494" lon="13.5513302"><ele>863.0</ele><time>2026-04-12T07:47:45.821Z</time></trkpt><trkpt lat="42.32571" lon="13.5514008"><ele>863.0000000000001</ele><time>2026-04-12T07:47:49.82Z</time></trkpt><trkpt lat="42.3257192" lon="13.5515024"><ele>863.0</ele><time>2026-04-12T07:47:53.821Z</time></trkpt><trkpt lat="42.3257783" lon="13.5514712"><ele>865.5000000000001</ele><time>2026-04-12T07:48:06.821Z</time></trkpt><trkpt lat="42.3257943" lon="13.5513783"><ele>868.0</ele><time>2026-04-12T07:48:45.82Z</time></trkpt><trkpt lat="42.325859" lon="13.5513084"><ele>870.5</ele><time>2026-04-12T07:48:49.821Z</time></trkpt><trkpt lat="42.3259293" lon="13.5512535"><ele>873.0</ele><time>2026-04-12T07:48:53.822Z</time></trkpt><trkpt lat="42.3259897" lon="13.5512034"><ele>875.5000000000001</ele><time>2026-04-12T07:48:56.822Z</time></trkpt><trkpt lat="42.3260493" lon="13.5511179"><ele>878.0</ele><time>2026-04-12T07:48:59.82Z</time></trkpt><trkpt lat="42.3261024" lon="13.5510434"><ele>878.0</ele><time>2026-04-12T07:49:02.821Z</time></trkpt><trkpt lat="42.326156" lon="13.5509731"><ele>878.0</ele><time>2026-04-12T07:49:05.82Z</time></trkpt><trkpt lat="42.3262131" lon="13.5509135"><ele>878.0</ele><time>2026-04-12T07:49:08.822Z</time></trkpt><trkpt lat="42.3262635" lon="13.550853"><ele>878.0</ele><time>2026-04-12T07:49:11.822Z</time></trkpt><trkpt lat="42.3263174" lon="13.5507992"><ele>878.0</ele><time>2026-04-12T07:49:14.82Z</time></trkpt><trkpt lat="42.3263727" lon="13.5507377"><ele>878.0</ele><time>2026-04-12T07:49:17.82Z</time></trkpt><trkpt lat="42.3264289" lon="13.5506772"><ele>878.0</ele><time>2026-04-12T07:49:20.822Z</time></trkpt><trkpt lat="42.3264855" lon="13.5506156"><ele>878.7142857142857</ele><time>2026-04-12T07:49:23.821Z</time></trkpt><trkpt lat="42.3265366" lon="13.5505647"><ele>879.4285714285713</ele><time>2026-04-12T07:49:26.821Z</time></trkpt><trkpt lat="42.3265939" lon="13.5505158"><ele>880.1428571428571</ele><time>2026-04-12T07:49:29.82Z</time></trkpt><trkpt lat="42.3266527" lon="13.5504648"><ele>880.8571428571429</ele><time>2026-04-12T07:49:32.822Z</time></trkpt><trkpt lat="42.3267115" lon="13.5504333"><ele>881.5714285714286</ele><time>2026-04-12T07:49:35.82Z</time></trkpt><trkpt lat="42.3267752" lon="13.5503733"><ele>882.2857142857143</ele><time>2026-04-12T07:49:39.821Z</time></trkpt><trkpt lat="42.3268432" lon="13.5503184"><ele>883.0</ele><time>2026-04-12T07:49:43.821Z</time></trkpt><trkpt lat="42.3268976" lon="13.5502617"><ele>883.0</ele><time>2026-04-12T07:49:47.821Z</time></trkpt><trkpt lat="42.3269509" lon="13.5502135"><ele>883.0</ele><time>2026-04-12T07:52:08.821Z</time></trkpt><trkpt lat="42.3270178" lon="13.5501595"><ele>883.0</ele><time>2026-04-12T07:52:11.82Z</time></trkpt><trkpt lat="42.3270772" lon="13.5500738"><ele>883.0</ele><time>2026-04-12T07:52:14.819Z</time></trkpt><trkpt lat="42.3271396" lon="13.5500156"><ele>883.0</ele><time>2026-04-12T07:52:17.82Z</time></trkpt><trkpt lat="42.3272183" lon="13.5499952"><ele>883.0</ele><time>2026-04-12T07:52:20.82Z</time></trkpt><trkpt lat="42.32728" lon="13.5500216"><ele>883.0</ele><time>2026-04-12T07:52:23.819Z</time></trkpt><trkpt lat="42.327302" lon="13.5501163"><ele>882.9999999999999</ele><time>2026-04-12T07:52:26.82Z</time></trkpt><trkpt lat="42.3272858" lon="13.5502203"><ele>883.0</ele><time>2026-04-12T07:52:29.819Z</time></trkpt><trkpt lat="42.3272298" lon="13.5503007"><ele>883.0</ele><time>2026-04-12T07:52:32.82Z</time></trkpt><trkpt lat="42.3271729" lon="13.5503647"><ele>883.0</ele><time>2026-04-12T07:52:35.819Z</time></trkpt><trkpt lat="42.3271256" lon="13.5504453"><ele>882.9999999999999</ele><time>2026-04-12T07:52:38.82Z</time></trkpt><trkpt lat="42.3270879" lon="13.5505394"><ele>883.0</ele><time>2026-04-12T07:52:41.821Z</time></trkpt><trkpt lat="42.3270558" lon="13.5506146"><ele>884.9999999999999</ele><time>2026-04-12T07:52:44.819Z</time></trkpt><trkpt lat="42.3270274" lon="13.5507247"><ele>887.0</ele><time>2026-04-12T07:52:47.819Z</time></trkpt><trkpt lat="42.3270011" lon="13.5508113"><ele>889.0</ele><time>2026-04-12T07:52:49.82Z</time></trkpt><trkpt lat="42.3269732" lon="13.5509044"><ele>891.0</ele><time>2026-04-12T07:52:52.819Z</time></trkpt><trkpt lat="42.3269404" lon="13.5509916"><ele>892.9999999999999</ele><time>2026-04-12T07:52:55.82Z</time></trkpt><trkpt lat="42.3269224" lon="13.5510813"><ele>895.0</ele><time>2026-04-12T07:52:58.82Z</time></trkpt><trkpt lat="42.3269098" lon="13.5511883"><ele>896.4999999999999</ele><time>2026-04-12T07:53:02.819Z</time></trkpt><trkpt lat="42.3268811" lon="13.5512808"><ele>898.0</ele><time>2026-04-12T07:53:06.82Z</time></trkpt><trkpt lat="42.3268545" lon="13.5513676"><ele>899.5</ele><time>2026-04-12T07:53:09.819Z</time></trkpt><trkpt lat="42.3268357" lon="13.5514812"><ele>901.0</ele><time>2026-04-12T07:53:13.819Z</time></trkpt><trkpt lat="42.3268325" lon="13.5515837"><ele>902.4999999999999</ele><time>2026-04-12T07:53:16.82Z</time></trkpt><trkpt lat="42.3268263" lon="13.5516765"><ele>904.0</ele><time>2026-04-12T07:53:19.819Z</time></trkpt><trkpt lat="42.3268098" lon="13.5517772"><ele>904.0</ele><time>2026-04-12T07:53:22.821Z</time></trkpt><trkpt lat="42.3268014" lon="13.5518713"><ele>904.0</ele><time>2026-04-12T07:53:25.819Z</time></trkpt><trkpt lat="42.3267957" lon="13.5519621"><ele>904.0</ele><time>2026-04-12T07:53:28.819Z</time></trkpt><trkpt lat="42.3267983" lon="13.5520503"><ele>904.0</ele><time>2026-04-12T07:53:31.819Z</time></trkpt><trkpt lat="42.3268283" lon="13.5521509"><ele>904.0</ele><time>2026-04-12T07:53:35.819Z</time></trkpt><trkpt lat="42.3268561" lon="13.5522346"><ele>904.0</ele><time>2026-04-12T07:53:38.819Z</time></trkpt><trkpt lat="42.3269069" lon="13.5523074"><ele>904.0</ele><time>2026-04-12T07:53:41.819Z</time></trkpt><trkpt lat="42.3269593" lon="13.5523725"><ele>904.5714285714287</ele><time>2026-04-12T07:53:44.819Z</time></trkpt><trkpt lat="42.3270051" lon="13.5524413"><ele>905.1428571428571</ele><time>2026-04-12T07:53:47.82Z</time></trkpt><trkpt lat="42.3270526" lon="13.5525088"><ele>905.7142857142858</ele><time>2026-04-12T07:53:50.819Z</time></trkpt><trkpt lat="42.3271029" lon="13.5525733"><ele>906.2857142857143</ele><time>2026-04-12T07:53:53.82Z</time></trkpt><trkpt lat="42.3271649" lon="13.5526501"><ele>906.8571428571429</ele><time>2026-04-12T07:53:56.819Z</time></trkpt><trkpt lat="42.3272186" lon="13.552704"><ele>907.4285714285714</ele><time>2026-04-12T07:53:59.819Z</time></trkpt><trkpt lat="42.3272536" lon="13.5527919"><ele>908.0</ele><time>2026-04-12T07:54:02.819Z</time></trkpt><trkpt lat="42.3272717" lon="13.5528864"><ele>909.8333333333334</ele><time>2026-04-12T07:54:07.82Z</time></trkpt><trkpt lat="42.327288" lon="13.5529918"><ele>911.6666666666667</ele><time>2026-04-12T07:54:10.821Z</time></trkpt><trkpt lat="42.3272836" lon="13.5531061"><ele>913.5</ele><time>2026-04-12T07:54:13.82Z</time></trkpt><trkpt lat="42.3273309" lon="13.5532042"><ele>915.3333333333333</ele><time>2026-04-12T07:54:16.82Z</time></trkpt><trkpt lat="42.3273604" lon="13.5532849"><ele>917.1666666666666</ele><time>2026-04-12T07:54:20.82Z</time></trkpt><trkpt lat="42.3273841" lon="13.5533658"><ele>919.0</ele><time>2026-04-12T07:54:23.819Z</time></trkpt><trkpt lat="42.3274201" lon="13.5534748"><ele>919.0</ele><time>2026-04-12T07:54:27.819Z</time></trkpt><trkpt lat="42.3274528" lon="13.5535589"><ele>918.9999999999999</ele><time>2026-04-12T07:54:30.82Z</time></trkpt><trkpt lat="42.3275109" lon="13.5536061"><ele>919.0</ele><time>2026-04-12T07:54:33.82Z</time></trkpt><trkpt lat="42.3275825" lon="13.5535901"><ele>919.0</ele><time>2026-04-12T07:54:36.819Z</time></trkpt><trkpt lat="42.3276234" lon="13.5535078"><ele>918.9999999999999</ele><time>2026-04-12T07:54:39.819Z</time></trkpt><trkpt lat="42.3276387" lon="13.553404"><ele>919.0</ele><time>2026-04-12T07:54:42.82Z</time></trkpt><trkpt lat="42.3276541" lon="13.5532963"><ele>919.0</ele><time>2026-04-12T07:54:45.819Z</time></trkpt><trkpt lat="42.3276776" lon="13.5532088"><ele>919.0</ele><time>2026-04-12T07:54:48.819Z</time></trkpt><trkpt lat="42.3277154" lon="13.5531253"><ele>918.9999999999999</ele><time>2026-04-12T07:54:51.819Z</time></trkpt><trkpt lat="42.3277507" lon="13.553053"><ele>919.0</ele><time>2026-04-12T07:54:54.82Z</time></trkpt><trkpt lat="42.3277817" lon="13.5529742"><ele>919.0</ele><time>2026-04-12T07:54:57.821Z</time></trkpt><trkpt lat="42.327837" lon="13.5529031"><ele>918.9999999999999</ele><time>2026-04-12T07:55:00.819Z</time></trkpt><trkpt lat="42.3278715" lon="13.55283"><ele>919.0</ele><time>2026-04-12T07:55:03.819Z</time></trkpt><trkpt lat="42.3279337" lon="13.5527547"><ele>919.0</ele><time>2026-04-12T07:55:07.819Z</time></trkpt><trkpt lat="42.327984" lon="13.5526891"><ele>918.9999999999999</ele><time>2026-04-12T07:55:10.819Z</time></trkpt><trkpt lat="42.3280305" lon="13.552617"><ele>919.0</ele><time>2026-04-12T07:55:13.82Z</time></trkpt><trkpt lat="42.3280914" lon="13.5525465"><ele>919.0</ele><time>2026-04-12T07:55:17.82Z</time></trkpt><trkpt lat="42.3281677" lon="13.5524978"><ele>919.0</ele><time>2026-04-12T07:55:21.819Z</time></trkpt><trkpt lat="42.3282409" lon="13.5524611"><ele>918.9999999999999</ele><time>2026-04-12T07:55:25.818Z</time></trkpt><trkpt lat="42.3283036" lon="13.552411"><ele>919.0</ele><time>2026-04-12T07:55:28.818Z</time></trkpt><trkpt lat="42.3283559" lon="13.552362"><ele>918.8571428571428</ele><time>2026-04-12T07:55:31.819Z</time></trkpt><trkpt lat="42.3284149" lon="13.5523042"><ele>918.7142857142856</ele><time>2026-04-12T07:55:35.82Z</time></trkpt><trkpt lat="42.3284626" lon="13.5522454"><ele>918.5714285714286</ele><time>2026-04-12T07:55:38.818Z</time></trkpt><trkpt lat="42.328513" lon="13.5521873"><ele>918.4285714285713</ele><time>2026-04-12T07:55:41.819Z</time></trkpt><trkpt lat="42.3285586" lon="13.5521097"><ele>918.2857142857142</ele><time>2026-04-12T07:55:45.818Z</time></trkpt><trkpt lat="42.328602" lon="13.5520433"><ele>918.1428571428571</ele><time>2026-04-12T07:56:34.819Z</time></trkpt><trkpt lat="42.3286544" lon="13.5519926"><ele>918.0</ele><time>2026-04-12T07:56:37.819Z</time></trkpt><trkpt lat="42.3287081" lon="13.5519409"><ele>918.0</ele><time>2026-04-12T07:56:40.818Z</time></trkpt><trkpt lat="42.3287682" lon="13.5519096"><ele>918.0</ele><time>2026-04-12T07:56:43.818Z</time></trkpt><trkpt lat="42.328846" lon="13.5518988"><ele>918.0</ele><time>2026-04-12T07:56:47.819Z</time></trkpt><trkpt lat="42.3289162" lon="13.5518961"><ele>918.0</ele><time>2026-04-12T07:56:50.819Z</time></trkpt><trkpt lat="42.3289995" lon="13.5518819"><ele>918.0</ele><time>2026-04-12T07:56:53.82Z</time></trkpt><trkpt lat="42.3290732" lon="13.5518683"><ele>918.0</ele><time>2026-04-12T07:56:56.819Z</time></trkpt><trkpt lat="42.3291363" lon="13.5518531"><ele>918.0</ele><time>2026-04-12T07:56:59.818Z</time></trkpt><trkpt lat="42.329206" lon="13.5518407"><ele>919.8571428571429</ele><time>2026-04-12T07:57:02.819Z</time></trkpt><trkpt lat="42.3292714" lon="13.5518509"><ele>921.7142857142857</ele><time>2026-04-12T07:57:05.818Z</time></trkpt><trkpt lat="42.3293388" lon="13.5518582"><ele>923.5714285714286</ele><time>2026-04-12T07:57:08.818Z</time></trkpt><trkpt lat="42.329402" lon="13.5518779"><ele>925.4285714285714</ele><time>2026-04-12T07:57:11.819Z</time></trkpt><trkpt lat="42.329472" lon="13.5519136"><ele>927.2857142857142</ele><time>2026-04-12T07:57:15.819Z</time></trkpt><trkpt lat="42.3295433" lon="13.5519311"><ele>929.1428571428571</ele><time>2026-04-12T07:57:18.818Z</time></trkpt><trkpt lat="42.3296112" lon="13.5519377"><ele>931.0</ele><time>2026-04-12T07:57:21.818Z</time></trkpt><trkpt lat="42.3296779" lon="13.5519502"><ele>931.7142857142858</ele><time>2026-04-12T07:57:24.819Z</time></trkpt><trkpt lat="42.3297405" lon="13.5519734"><ele>932.4285714285714</ele><time>2026-04-12T07:57:27.819Z</time></trkpt><trkpt lat="42.3298066" lon="13.5520069"><ele>933.1428571428571</ele><time>2026-04-12T07:57:30.818Z</time></trkpt><trkpt lat="42.3298682" lon="13.5520548"><ele>933.8571428571429</ele><time>2026-04-12T07:57:33.82Z</time></trkpt><trkpt lat="42.3299332" lon="13.5520893"><ele>934.5714285714287</ele><time>2026-04-12T07:57:36.818Z</time></trkpt><trkpt lat="42.3300007" lon="13.5521197"><ele>935.2857142857143</ele><time>2026-04-12T07:57:39.819Z</time></trkpt><trkpt lat="42.3300637" lon="13.5521537"><ele>936.0</ele><time>2026-04-12T07:57:42.82Z</time></trkpt><trkpt lat="42.3301207" lon="13.5521993"><ele>938.5714285714287</ele><time>2026-04-12T07:57:45.819Z</time></trkpt><trkpt lat="42.3301722" lon="13.5522506"><ele>941.1428571428572</ele><time>2026-04-12T07:57:48.819Z</time></trkpt><trkpt lat="42.3302224" lon="13.5523048"><ele>943.7142857142858</ele><time>2026-04-12T07:57:51.818Z</time></trkpt><trkpt lat="42.3302655" lon="13.552381"><ele>946.2857142857142</ele><time>2026-04-12T07:57:54.819Z</time></trkpt><trkpt lat="42.3303089" lon="13.5524582"><ele>948.8571428571428</ele><time>2026-04-12T07:57:57.818Z</time></trkpt><trkpt lat="42.3303438" lon="13.5525539"><ele>951.4285714285713</ele><time>2026-04-12T07:58:01.819Z</time></trkpt><trkpt lat="42.3303785" lon="13.5526376"><ele>954.0</ele><time>2026-04-12T07:58:04.819Z</time></trkpt><trkpt lat="42.330411" lon="13.5527222"><ele>954.0</ele><time>2026-04-12T07:58:07.818Z</time></trkpt><trkpt lat="42.3304479" lon="13.5528146"><ele>953.9999999999999</ele><time>2026-04-12T07:58:10.819Z</time></trkpt><trkpt lat="42.3304946" lon="13.5529069"><ele>954.0</ele><time>2026-04-12T07:58:14.819Z</time></trkpt><trkpt lat="42.3305339" lon="13.552974"><ele>954.0</ele><time>2026-04-12T07:58:17.818Z</time></trkpt><trkpt lat="42.3305901" lon="13.5530159"><ele>953.9999999999999</ele><time>2026-04-12T07:58:20.818Z</time></trkpt><trkpt lat="42.3306594" lon="13.5530192"><ele>954.0</ele><time>2026-04-12T07:58:23.82Z</time></trkpt><trkpt lat="42.3307295" lon="13.553043"><ele>954.0</ele><time>2026-04-12T07:58:26.819Z</time></trkpt><trkpt lat="42.3307946" lon="13.5530887"><ele>955.0</ele><time>2026-04-12T07:58:29.818Z</time></trkpt><trkpt lat="42.3308409" lon="13.553149"><ele>955.9999999999999</ele><time>2026-04-12T07:58:32.819Z</time></trkpt><trkpt lat="42.3308373" lon="13.5532446"><ele>957.0</ele><time>2026-04-12T07:58:35.818Z</time></trkpt><trkpt lat="42.33084" lon="13.5533451"><ele>958.0</ele><time>2026-04-12T07:58:38.82Z</time></trkpt><trkpt lat="42.3308044" lon="13.5534331"><ele>958.9999999999999</ele><time>2026-04-12T07:58:41.818Z</time></trkpt><trkpt lat="42.3307691" lon="13.5535134"><ele>960.0</ele><time>2026-04-12T07:58:44.818Z</time></trkpt><trkpt lat="42.3307397" lon="13.5536017"><ele>961.0</ele><time>2026-04-12T07:58:47.818Z</time></trkpt><trkpt lat="42.3307157" lon="13.5536877"><ele>962.0</ele><time>2026-04-12T07:58:50.819Z</time></trkpt><trkpt lat="42.3306925" lon="13.5537732"><ele>962.9999999999999</ele><time>2026-04-12T07:58:53.818Z</time></trkpt><trkpt lat="42.330676" lon="13.553863"><ele>964.0</ele><time>2026-04-12T07:58:56.819Z</time></trkpt><trkpt lat="42.3306591" lon="13.553975"><ele>965.0</ele><time>2026-04-12T07:59:00.818Z</time></trkpt><trkpt lat="42.3306502" lon="13.5540658"><ele>965.9999999999999</ele><time>2026-04-12T07:59:03.82Z</time></trkpt><trkpt lat="42.3306515" lon="13.5541771"><ele>967.0</ele><time>2026-04-12T07:59:07.819Z</time></trkpt><trkpt lat="42.3306377" lon="13.554267"><ele>968.0</ele><time>2026-04-12T07:59:10.819Z</time></trkpt><trkpt lat="42.3306043" lon="13.5543518"><ele>968.0</ele><time>2026-04-12T07:59:13.82Z</time></trkpt><trkpt lat="42.3305706" lon="13.5544379"><ele>967.9999999999999</ele><time>2026-04-12T07:59:16.819Z</time></trkpt><trkpt lat="42.3305376" lon="13.554521"><ele>968.0</ele><time>2026-04-12T07:59:19.819Z</time></trkpt><trkpt lat="42.3305075" lon="13.5546102"><ele>968.0</ele><time>2026-04-12T07:59:22.82Z</time></trkpt><trkpt lat="42.3304752" lon="13.5546944"><ele>967.9999999999999</ele><time>2026-04-12T07:59:25.819Z</time></trkpt><trkpt lat="42.3304454" lon="13.5547747"><ele>968.0</ele><time>2026-04-12T07:59:28.819Z</time></trkpt><trkpt lat="42.330418" lon="13.5548514"><ele>968.0</ele><time>2026-04-12T07:59:31.82Z</time></trkpt><trkpt lat="42.3303857" lon="13.5549464"><ele>967.1428571428571</ele><time>2026-04-12T07:59:35.819Z</time></trkpt><trkpt lat="42.3303664" lon="13.5550343"><ele>966.2857142857142</ele><time>2026-04-12T07:59:39.819Z</time></trkpt><trkpt lat="42.3303669" lon="13.55512"><ele>965.4285714285713</ele><time>2026-04-12T07:59:42.818Z</time></trkpt><trkpt lat="42.3303997" lon="13.5552105"><ele>964.5714285714284</ele><time>2026-04-12T07:59:45.818Z</time></trkpt><trkpt lat="42.3304573" lon="13.5552729"><ele>963.7142857142857</ele><time>2026-04-12T07:59:48.819Z</time></trkpt><trkpt lat="42.3305012" lon="13.5553517"><ele>962.8571428571427</ele><time>2026-04-12T07:59:51.819Z</time></trkpt><trkpt lat="42.3305434" lon="13.5554485"><ele>961.9999999999999</ele><time>2026-04-12T07:59:55.818Z</time></trkpt><trkpt lat="42.3305755" lon="13.555541"><ele>964.0000000000001</ele><time>2026-04-12T07:59:58.819Z</time></trkpt><trkpt lat="42.3305963" lon="13.5556224"><ele>966.0</ele><time>2026-04-12T08:00:01.819Z</time></trkpt><trkpt lat="42.3306178" lon="13.5557318"><ele>968.0</ele><time>2026-04-12T08:00:04.819Z</time></trkpt><trkpt lat="42.330653" lon="13.5558532"><ele>970.0</ele><time>2026-04-12T08:00:07.819Z</time></trkpt><trkpt lat="42.3306844" lon="13.555953"><ele>972.0000000000001</ele><time>2026-04-12T08:00:09.819Z</time></trkpt><trkpt lat="42.3307175" lon="13.5560464"><ele>974.0</ele><time>2026-04-12T08:00:11.819Z</time></trkpt><trkpt lat="42.3307832" lon="13.5561504"><ele>973.1666666666667</ele><time>2026-04-12T08:00:13.82Z</time></trkpt><trkpt lat="42.3308459" lon="13.5562758"><ele>972.3333333333334</ele><time>2026-04-12T08:00:15.818Z</time></trkpt><trkpt lat="42.3308694" lon="13.5563642"><ele>971.5</ele><time>2026-04-12T08:00:16.818Z</time></trkpt><trkpt lat="42.3309118" lon="13.5564291"><ele>970.6666666666667</ele><time>2026-04-12T08:00:17.818Z</time></trkpt><trkpt lat="42.3309597" lon="13.5565042"><ele>969.8333333333334</ele><time>2026-04-12T08:00:18.819Z</time></trkpt><trkpt lat="42.330993" lon="13.5565801"><ele>969.0</ele><time>2026-04-12T08:00:19.818Z</time></trkpt><trkpt lat="42.3310009" lon="13.5566854"><ele>969.0</ele><time>2026-04-12T08:00:20.818Z</time></trkpt><trkpt lat="42.331035" lon="13.556757"><ele>969.0</ele><time>2026-04-12T08:00:21.819Z</time></trkpt><trkpt lat="42.33104" lon="13.5568431"><ele>969.0</ele><time>2026-04-12T08:00:22.818Z</time></trkpt><trkpt lat="42.3310486" lon="13.5570145"><ele>969.0</ele><time>2026-04-12T08:00:24.819Z</time></trkpt><trkpt lat="42.3310355" lon="13.5571088"><ele>969.0</ele><time>2026-04-12T08:00:25.819Z</time></trkpt><trkpt lat="42.3310003" lon="13.5572451"><ele>969.0</ele><time>2026-04-12T08:00:27.818Z</time></trkpt><trkpt lat="42.3309419" lon="13.557282"><ele>969.5</ele><time>2026-04-12T08:00:29.817Z</time></trkpt><trkpt lat="42.3308748" lon="13.5573163"><ele>970.0</ele><time>2026-04-12T08:00:31.817Z</time></trkpt><trkpt lat="42.3307881" lon="13.5573076"><ele>970.5</ele><time>2026-04-12T08:00:34.817Z</time></trkpt><trkpt lat="42.3307035" lon="13.5572741"><ele>971.0</ele><time>2026-04-12T08:00:37.819Z</time></trkpt><trkpt lat="42.3306205" lon="13.5572714"><ele>971.5</ele><time>2026-04-12T08:00:40.819Z</time></trkpt><trkpt lat="42.3305437" lon="13.557292"><ele>972.0</ele><time>2026-04-12T08:00:43.818Z</time></trkpt><trkpt lat="42.3304696" lon="13.5573263"><ele>970.8333333333334</ele><time>2026-04-12T08:00:46.819Z</time></trkpt><trkpt lat="42.3304079" lon="13.5573645"><ele>969.6666666666667</ele><time>2026-04-12T08:00:48.818Z</time></trkpt><trkpt lat="42.3303445" lon="13.5574028"><ele>968.5</ele><time>2026-04-12T08:00:50.817Z</time></trkpt><trkpt lat="42.3302996" lon="13.5575118"><ele>967.3333333333334</ele><time>2026-04-12T08:00:52.818Z</time></trkpt><trkpt lat="42.330275" lon="13.5576189"><ele>966.1666666666667</ele><time>2026-04-12T08:00:54.819Z</time></trkpt><trkpt lat="42.3303198" lon="13.5577109"><ele>965.0</ele><time>2026-04-12T08:00:56.818Z</time></trkpt><trkpt lat="42.3303374" lon="13.5578345"><ele>965.5000000000001</ele><time>2026-04-12T08:00:58.818Z</time></trkpt><trkpt lat="42.3303254" lon="13.5579368"><ele>966.0</ele><time>2026-04-12T08:01:00.818Z</time></trkpt><trkpt lat="42.3303033" lon="13.5580404"><ele>966.5</ele><time>2026-04-12T08:01:02.818Z</time></trkpt><trkpt lat="42.3302678" lon="13.5581765"><ele>967.0</ele><time>2026-04-12T08:01:04.817Z</time></trkpt><trkpt lat="42.3302533" lon="13.5582643"><ele>967.5000000000001</ele><time>2026-04-12T08:01:06.817Z</time></trkpt><trkpt lat="42.3302248" lon="13.5583603"><ele>968.0</ele><time>2026-04-12T08:01:09.818Z</time></trkpt><trkpt lat="42.3302061" lon="13.5584468"><ele>968.0</ele><time>2026-04-12T08:01:11.818Z</time></trkpt><trkpt lat="42.330183" lon="13.5585322"><ele>967.9999999999999</ele><time>2026-04-12T08:01:13.817Z</time></trkpt><trkpt lat="42.3301704" lon="13.5586199"><ele>968.0</ele><time>2026-04-12T08:01:15.817Z</time></trkpt><trkpt lat="42.3301753" lon="13.5587409"><ele>968.0</ele><time>2026-04-12T08:01:18.817Z</time></trkpt><trkpt lat="42.330176" lon="13.5588429"><ele>967.9999999999999</ele><time>2026-04-12T08:01:21.818Z</time></trkpt><trkpt lat="42.3301274" lon="13.5589084"><ele>968.0</ele><time>2026-04-12T08:01:24.817Z</time></trkpt><trkpt lat="42.3300541" lon="13.5589528"><ele>968.0</ele><time>2026-04-12T08:01:27.818Z</time></trkpt><trkpt lat="42.3299821" lon="13.5590453"><ele>968.8</ele><time>2026-04-12T08:01:31.817Z</time></trkpt><trkpt lat="42.3299384" lon="13.5591169"><ele>969.5999999999999</ele><time>2026-04-12T08:01:33.817Z</time></trkpt><trkpt lat="42.3299009" lon="13.5592219"><ele>970.4000000000001</ele><time>2026-04-12T08:01:35.817Z</time></trkpt><trkpt lat="42.3298624" lon="13.5593477"><ele>971.2</ele><time>2026-04-12T08:01:37.817Z</time></trkpt><trkpt lat="42.3298543" lon="13.5595085"><ele>972.0</ele><time>2026-04-12T08:01:39.817Z</time></trkpt><trkpt lat="42.329816" lon="13.5596509"><ele>972.0</ele><time>2026-04-12T08:01:41.817Z</time></trkpt><trkpt lat="42.3297489" lon="13.559753"><ele>972.0</ele><time>2026-04-12T08:01:43.818Z</time></trkpt><trkpt lat="42.3296902" lon="13.5598464"><ele>972.0</ele><time>2026-04-12T08:01:45.817Z</time></trkpt><trkpt lat="42.3296227" lon="13.5599255"><ele>972.0</ele><time>2026-04-12T08:01:47.817Z</time></trkpt><trkpt lat="42.3295445" lon="13.5599925"><ele>972.0</ele><time>2026-04-12T08:01:49.818Z</time></trkpt><trkpt lat="42.3294872" lon="13.5600718"><ele>972.0</ele><time>2026-04-12T08:01:51.817Z</time></trkpt><trkpt lat="42.3294579" lon="13.560154"><ele>972.0</ele><time>2026-04-12T08:01:54.819Z</time></trkpt><trkpt lat="42.3294097" lon="13.5602373"><ele>972.0</ele><time>2026-04-12T08:01:57.817Z</time></trkpt><trkpt lat="42.3293645" lon="13.5603373"><ele>972.0</ele><time>2026-04-12T08:01:59.819Z</time></trkpt><trkpt lat="42.3293285" lon="13.5604511"><ele>972.0</ele><time>2026-04-12T08:02:01.818Z</time></trkpt><trkpt lat="42.3292886" lon="13.560551"><ele>972.0</ele><time>2026-04-12T08:02:03.818Z</time></trkpt><trkpt lat="42.3292519" lon="13.5606421"><ele>973.1428571428571</ele><time>2026-04-12T08:02:05.818Z</time></trkpt><trkpt lat="42.3292186" lon="13.5607287"><ele>974.2857142857143</ele><time>2026-04-12T08:02:07.817Z</time></trkpt><trkpt lat="42.3291728" lon="13.5608109"><ele>975.4285714285714</ele><time>2026-04-12T08:02:09.817Z</time></trkpt><trkpt lat="42.3291217" lon="13.560884"><ele>976.5714285714286</ele><time>2026-04-12T08:02:11.818Z</time></trkpt><trkpt lat="42.3290784" lon="13.5609546"><ele>977.7142857142858</ele><time>2026-04-12T08:02:13.818Z</time></trkpt><trkpt lat="42.329037" lon="13.5610246"><ele>978.8571428571429</ele><time>2026-04-12T08:02:15.819Z</time></trkpt><trkpt lat="42.3289892" lon="13.5610822"><ele>980.0</ele><time>2026-04-12T08:02:18.818Z</time></trkpt><trkpt lat="42.3289306" lon="13.5611158"><ele>980.0</ele><time>2026-04-12T08:02:20.817Z</time></trkpt><trkpt lat="42.3288672" lon="13.561124"><ele>980.0</ele><time>2026-04-12T08:02:22.819Z</time></trkpt><trkpt lat="42.3287924" lon="13.5611446"><ele>980.0</ele><time>2026-04-12T08:02:24.817Z</time></trkpt><trkpt lat="42.3287264" lon="13.5611739"><ele>980.0</ele><time>2026-04-12T08:02:26.818Z</time></trkpt><trkpt lat="42.3286396" lon="13.561222"><ele>980.0</ele><time>2026-04-12T08:02:29.817Z</time></trkpt><trkpt lat="42.3285919" lon="13.5612886"><ele>980.0</ele><time>2026-04-12T08:02:32.818Z</time></trkpt><trkpt lat="42.3285438" lon="13.5613453"><ele>980.0</ele><time>2026-04-12T08:02:34.818Z</time></trkpt><trkpt lat="42.328489" lon="13.5614105"><ele>980.6666666666667</ele><time>2026-04-12T08:02:36.818Z</time></trkpt><trkpt lat="42.3284198" lon="13.5614594"><ele>981.3333333333334</ele><time>2026-04-12T08:02:39.818Z</time></trkpt><trkpt lat="42.3283611" lon="13.5615303"><ele>982.0</ele><time>2026-04-12T08:02:43.818Z</time></trkpt><trkpt lat="42.3283142" lon="13.5616253"><ele>982.6666666666667</ele><time>2026-04-12T08:02:46.817Z</time></trkpt><trkpt lat="42.3282267" lon="13.5617131"><ele>983.3333333333334</ele><time>2026-04-12T08:02:48.817Z</time></trkpt><trkpt lat="42.3281365" lon="13.5617482"><ele>984.0</ele><time>2026-04-12T08:02:51.819Z</time></trkpt><trkpt lat="42.3280724" lon="13.5618311"><ele>983.8333333333334</ele><time>2026-04-12T08:02:53.818Z</time></trkpt><trkpt lat="42.3280209" lon="13.5619366"><ele>983.6666666666667</ele><time>2026-04-12T08:02:55.818Z</time></trkpt><trkpt lat="42.3279797" lon="13.5620417"><ele>983.5</ele><time>2026-04-12T08:02:57.818Z</time></trkpt><trkpt lat="42.3279558" lon="13.5621592"><ele>983.3333333333334</ele><time>2026-04-12T08:02:59.818Z</time></trkpt><trkpt lat="42.3279328" lon="13.5622629"><ele>983.1666666666667</ele><time>2026-04-12T08:03:01.819Z</time></trkpt><trkpt lat="42.3279202" lon="13.5623491"><ele>983.0</ele><time>2026-04-12T08:03:03.818Z</time></trkpt><trkpt lat="42.3279069" lon="13.5624324"><ele>982.9999999999999</ele><time>2026-04-12T08:03:05.818Z</time></trkpt><trkpt lat="42.3278808" lon="13.562512"><ele>983.0</ele><time>2026-04-12T08:03:07.817Z</time></trkpt><trkpt lat="42.3278566" lon="13.562592"><ele>982.9999999999999</ele><time>2026-04-12T08:03:09.817Z</time></trkpt><trkpt lat="42.3278266" lon="13.5626695"><ele>982.9999999999999</ele><time>2026-04-12T08:03:11.817Z</time></trkpt><trkpt lat="42.3277898" lon="13.5627759"><ele>983.0</ele><time>2026-04-12T08:03:14.817Z</time></trkpt><trkpt lat="42.3277586" lon="13.5628797"><ele>982.9999999999999</ele><time>2026-04-12T08:03:17.819Z</time></trkpt><trkpt lat="42.3277189" lon="13.5629807"><ele>982.9999999999999</ele><time>2026-04-12T08:03:20.817Z</time></trkpt><trkpt lat="42.3276846" lon="13.563086"><ele>984.1666666666667</ele><time>2026-04-12T08:03:23.818Z</time></trkpt><trkpt lat="42.3276468" lon="13.5631872"><ele>985.3333333333334</ele><time>2026-04-12T08:03:26.818Z</time></trkpt><trkpt lat="42.3276144" lon="13.5632808"><ele>986.5</ele><time>2026-04-12T08:03:29.818Z</time></trkpt><trkpt lat="42.3275715" lon="13.5633731"><ele>987.6666666666667</ele><time>2026-04-12T08:03:32.818Z</time></trkpt><trkpt lat="42.3275333" lon="13.563468"><ele>988.8333333333334</ele><time>2026-04-12T08:03:35.817Z</time></trkpt><trkpt lat="42.3274976" lon="13.5635495"><ele>990.0</ele><time>2026-04-12T08:03:38.817Z</time></trkpt><trkpt lat="42.3274724" lon="13.5636326"><ele>990.9999999999999</ele><time>2026-04-12T08:03:42.817Z</time></trkpt><trkpt lat="42.3274368" lon="13.5637139"><ele>992.0</ele><time>2026-04-12T08:03:46.817Z</time></trkpt><trkpt lat="42.327411" lon="13.5637984"><ele>992.9999999999999</ele><time>2026-04-12T08:03:50.817Z</time></trkpt><trkpt lat="42.3273874" lon="13.5638785"><ele>993.9999999999999</ele><time>2026-04-12T08:03:54.817Z</time></trkpt><trkpt lat="42.3274259" lon="13.5639495"><ele>995.0</ele><time>2026-04-12T08:03:59.818Z</time></trkpt><trkpt lat="42.3273888" lon="13.5640288"><ele>995.9999999999999</ele><time>2026-04-12T08:04:04.818Z</time></trkpt><trkpt lat="42.3273333" lon="13.5640947"><ele>996.9999999999999</ele><time>2026-04-12T08:04:07.818Z</time></trkpt><trkpt lat="42.3272729" lon="13.5641899"><ele>996.9999999999999</ele><time>2026-04-12T08:04:10.818Z</time></trkpt><trkpt lat="42.3272533" lon="13.5642814"><ele>997.0</ele><time>2026-04-12T08:04:12.818Z</time></trkpt><trkpt lat="42.3272321" lon="13.5643706"><ele>996.9999999999999</ele><time>2026-04-12T08:04:14.819Z</time></trkpt><trkpt lat="42.3272106" lon="13.5644517"><ele>996.9999999999999</ele><time>2026-04-12T08:04:16.818Z</time></trkpt><trkpt lat="42.3271896" lon="13.5645485"><ele>997.0</ele><time>2026-04-12T08:04:19.817Z</time></trkpt><trkpt lat="42.3271678" lon="13.5646523"><ele>996.9999999999999</ele><time>2026-04-12T08:04:22.818Z</time></trkpt><trkpt lat="42.3271544" lon="13.5647385"><ele>996.9999999999999</ele><time>2026-04-12T08:04:25.818Z</time></trkpt><trkpt lat="42.3271439" lon="13.5648344"><ele>997.1666666666666</ele><time>2026-04-12T08:04:28.818Z</time></trkpt><trkpt lat="42.327142" lon="13.5649245"><ele>997.3333333333333</ele><time>2026-04-12T08:04:31.818Z</time></trkpt><trkpt lat="42.3271596" lon="13.5650257"><ele>997.5</ele><time>2026-04-12T08:04:34.818Z</time></trkpt><trkpt lat="42.3271876" lon="13.5651129"><ele>997.6666666666667</ele><time>2026-04-12T08:04:36.818Z</time></trkpt><trkpt lat="42.3272187" lon="13.5652296"><ele>997.8333333333334</ele><time>2026-04-12T08:04:38.817Z</time></trkpt><trkpt lat="42.3272636" lon="13.565351"><ele>998.0</ele><time>2026-04-12T08:04:40.817Z</time></trkpt><trkpt lat="42.3273227" lon="13.5654842"><ele>997.0000000000001</ele><time>2026-04-12T08:04:42.818Z</time></trkpt><trkpt lat="42.3273592" lon="13.5655594"><ele>996.0</ele><time>2026-04-12T08:04:43.819Z</time></trkpt><trkpt lat="42.3273935" lon="13.5656429"><ele>995.0</ele><time>2026-04-12T08:04:44.817Z</time></trkpt><trkpt lat="42.3274326" lon="13.5657313"><ele>994.0</ele><time>2026-04-12T08:04:45.817Z</time></trkpt><trkpt lat="42.3274684" lon="13.5658247"><ele>993.0000000000001</ele><time>2026-04-12T08:04:46.818Z</time></trkpt><trkpt lat="42.327505" lon="13.5659189"><ele>992.0</ele><time>2026-04-12T08:04:47.817Z</time></trkpt><trkpt lat="42.3275431" lon="13.5660186"><ele>992.0000000000001</ele><time>2026-04-12T08:04:48.818Z</time></trkpt><trkpt lat="42.3275781" lon="13.5661144"><ele>992.0</ele><time>2026-04-12T08:04:49.817Z</time></trkpt><trkpt lat="42.3276144" lon="13.5662234"><ele>992.0</ele><time>2026-04-12T08:04:50.817Z</time></trkpt><trkpt lat="42.3276504" lon="13.5663285"><ele>992.0</ele><time>2026-04-12T08:04:51.817Z</time></trkpt><trkpt lat="42.3276821" lon="13.5664322"><ele>992.0000000000001</ele><time>2026-04-12T08:04:52.817Z</time></trkpt><trkpt lat="42.3277148" lon="13.5665376"><ele>992.0</ele><time>2026-04-12T08:04:53.818Z</time></trkpt><trkpt lat="42.3277356" lon="13.5666549"><ele>992.6666666666667</ele><time>2026-04-12T08:04:54.817Z</time></trkpt><trkpt lat="42.3277568" lon="13.5667586"><ele>993.3333333333334</ele><time>2026-04-12T08:04:55.817Z</time></trkpt><trkpt lat="42.3277408" lon="13.566875"><ele>994.0</ele><time>2026-04-12T08:04:56.817Z</time></trkpt><trkpt lat="42.3276927" lon="13.566973"><ele>994.6666666666667</ele><time>2026-04-12T08:04:57.819Z</time></trkpt><trkpt lat="42.327651" lon="13.5671"><ele>995.3333333333334</ele><time>2026-04-12T08:04:58.818Z</time></trkpt><trkpt lat="42.3275972" lon="13.567198"><ele>996.0</ele><time>2026-04-12T08:04:59.818Z</time></trkpt><trkpt lat="42.3275447" lon="13.5672748"><ele>996.0</ele><time>2026-04-12T08:05:00.817Z</time></trkpt><trkpt lat="42.3274515" lon="13.5672774"><ele>995.9999999999999</ele><time>2026-04-12T08:05:01.818Z</time></trkpt><trkpt lat="42.3273994" lon="13.5673365"><ele>995.9999999999999</ele><time>2026-04-12T08:05:02.818Z</time></trkpt><trkpt lat="42.3273088" lon="13.5674234"><ele>996.0</ele><time>2026-04-12T08:05:04.818Z</time></trkpt><trkpt lat="42.3272355" lon="13.567471"><ele>996.0</ele><time>2026-04-12T08:05:06.817Z</time></trkpt><trkpt lat="42.3271684" lon="13.5675665"><ele>995.0</ele><time>2026-04-12T08:05:09.818Z</time></trkpt><trkpt lat="42.327115" lon="13.5676332"><ele>993.9999999999999</ele><time>2026-04-12T08:05:11.818Z</time></trkpt><trkpt lat="42.3270815" lon="13.5677174"><ele>993.0</ele><time>2026-04-12T08:05:13.817Z</time></trkpt><trkpt lat="42.3270501" lon="13.5678079"><ele>992.0</ele><time>2026-04-12T08:05:15.817Z</time></trkpt><trkpt lat="42.3270182" lon="13.5678968"><ele>990.9999999999999</ele><time>2026-04-12T08:05:17.817Z</time></trkpt><trkpt lat="42.3269739" lon="13.5680077"><ele>990.0</ele><time>2026-04-12T08:05:20.818Z</time></trkpt><trkpt lat="42.3269324" lon="13.5680732"><ele>989.0</ele><time>2026-04-12T08:05:22.817Z</time></trkpt><trkpt lat="42.3268901" lon="13.56814"><ele>989.0</ele><time>2026-04-12T08:05:24.817Z</time></trkpt><trkpt lat="42.3268538" lon="13.5682194"><ele>988.9999999999999</ele><time>2026-04-12T08:05:26.819Z</time></trkpt><trkpt lat="42.3268162" lon="13.5683021"><ele>989.0</ele><time>2026-04-12T08:05:28.819Z</time></trkpt><trkpt lat="42.3267839" lon="13.5683851"><ele>989.0</ele><time>2026-04-12T08:05:30.817Z</time></trkpt><trkpt lat="42.3267534" lon="13.5684687"><ele>988.9999999999999</ele><time>2026-04-12T08:05:32.818Z</time></trkpt><trkpt lat="42.3267224" lon="13.5685522"><ele>989.0</ele><time>2026-04-12T08:05:34.818Z</time></trkpt><trkpt lat="42.3266872" lon="13.5686262"><ele>989.0</ele><time>2026-04-12T08:05:36.818Z</time></trkpt><trkpt lat="42.3266544" lon="13.5687047"><ele>990.4285714285713</ele><time>2026-04-12T08:05:38.817Z</time></trkpt><trkpt lat="42.3266248" lon="13.5687921"><ele>991.8571428571428</ele><time>2026-04-12T08:05:40.817Z</time></trkpt><trkpt lat="42.3265966" lon="13.5688761"><ele>993.2857142857142</ele><time>2026-04-12T08:05:42.819Z</time></trkpt><trkpt lat="42.3265745" lon="13.5689596"><ele>994.7142857142858</ele><time>2026-04-12T08:05:44.818Z</time></trkpt><trkpt lat="42.3265542" lon="13.569045"><ele>996.1428571428572</ele><time>2026-04-12T08:05:46.818Z</time></trkpt><trkpt lat="42.3265425" lon="13.5691372"><ele>997.5714285714287</ele><time>2026-04-12T08:05:48.818Z</time></trkpt><trkpt lat="42.3265283" lon="13.5692249"><ele>999.0</ele><time>2026-04-12T08:05:50.817Z</time></trkpt><trkpt lat="42.326513" lon="13.5693519"><ele>999.0</ele><time>2026-04-12T08:05:53.819Z</time></trkpt><trkpt lat="42.3265028" lon="13.56944"><ele>999.0000000000001</ele><time>2026-04-12T08:05:55.818Z</time></trkpt><trkpt lat="42.3264951" lon="13.5695281"><ele>999.0</ele><time>2026-04-12T08:05:57.817Z</time></trkpt><trkpt lat="42.326491" lon="13.5696186"><ele>999.0</ele><time>2026-04-12T08:05:59.817Z</time></trkpt><trkpt lat="42.3264925" lon="13.5697089"><ele>999.0000000000001</ele><time>2026-04-12T08:06:01.817Z</time></trkpt><trkpt lat="42.326492" lon="13.5697992"><ele>999.0</ele><time>2026-04-12T08:06:03.819Z</time></trkpt><trkpt lat="42.3264892" lon="13.5698862"><ele>999.0</ele><time>2026-04-12T08:06:05.818Z</time></trkpt><trkpt lat="42.3264846" lon="13.5700163"><ele>999.4285714285714</ele><time>2026-04-12T08:06:08.818Z</time></trkpt><trkpt lat="42.3264814" lon="13.5701107"><ele>999.8571428571429</ele><time>2026-04-12T08:06:10.818Z</time></trkpt><trkpt lat="42.3264768" lon="13.570197"><ele>1000.2857142857143</ele><time>2026-04-12T08:06:12.818Z</time></trkpt><trkpt lat="42.326472" lon="13.5702899"><ele>1000.7142857142858</ele><time>2026-04-12T08:06:14.817Z</time></trkpt><trkpt lat="42.3264692" lon="13.5703802"><ele>1001.1428571428571</ele><time>2026-04-12T08:06:16.819Z</time></trkpt><trkpt lat="42.3264657" lon="13.5704696"><ele>1001.5714285714287</ele><time>2026-04-12T08:06:18.817Z</time></trkpt><trkpt lat="42.3264677" lon="13.5705627"><ele>1002.0</ele><time>2026-04-12T08:06:20.818Z</time></trkpt><trkpt lat="42.3264686" lon="13.5706581"><ele>1002.0</ele><time>2026-04-12T08:06:22.817Z</time></trkpt><trkpt lat="42.3264707" lon="13.5707526"><ele>1002.0</ele><time>2026-04-12T08:06:24.817Z</time></trkpt><trkpt lat="42.3264771" lon="13.5708516"><ele>1002.0</ele><time>2026-04-12T08:06:26.816Z</time></trkpt><trkpt lat="42.3264951" lon="13.5709447"><ele>1002.0</ele><time>2026-04-12T08:06:28.816Z</time></trkpt><trkpt lat="42.3265019" lon="13.5710431"><ele>1002.0</ele><time>2026-04-12T08:06:30.816Z</time></trkpt><trkpt lat="42.3265048" lon="13.5711504"><ele>1002.0</ele><time>2026-04-12T08:06:32.817Z</time></trkpt><trkpt lat="42.3265088" lon="13.5712644"><ele>1002.1666666666666</ele><time>2026-04-12T08:06:34.817Z</time></trkpt><trkpt lat="42.3265096" lon="13.5713863"><ele>1002.3333333333333</ele><time>2026-04-12T08:06:36.817Z</time></trkpt><trkpt lat="42.3264997" lon="13.5715095"><ele>1002.5</ele><time>2026-04-12T08:06:38.816Z</time></trkpt><trkpt lat="42.3264714" lon="13.5716228"><ele>1002.6666666666666</ele><time>2026-04-12T08:06:40.817Z</time></trkpt><trkpt lat="42.3264383" lon="13.5717207"><ele>1002.8333333333333</ele><time>2026-04-12T08:06:42.816Z</time></trkpt><trkpt lat="42.3264005" lon="13.5718084"><ele>1003.0</ele><time>2026-04-12T08:06:44.816Z</time></trkpt><trkpt lat="42.3263662" lon="13.5718937"><ele>1002.4285714285713</ele><time>2026-04-12T08:06:46.816Z</time></trkpt><trkpt lat="42.3263288" lon="13.5719832"><ele>1001.8571428571428</ele><time>2026-04-12T08:06:48.817Z</time></trkpt><trkpt lat="42.3262924" lon="13.5720685"><ele>1001.2857142857142</ele><time>2026-04-12T08:06:50.816Z</time></trkpt><trkpt lat="42.3262535" lon="13.5721488"><ele>1000.7142857142858</ele><time>2026-04-12T08:06:52.818Z</time></trkpt><trkpt lat="42.3262094" lon="13.5722183"><ele>1000.1428571428572</ele><time>2026-04-12T08:06:54.818Z</time></trkpt><trkpt lat="42.3261709" lon="13.5722954"><ele>999.5714285714287</ele><time>2026-04-12T08:06:56.818Z</time></trkpt><trkpt lat="42.3261406" lon="13.5723768"><ele>999.0</ele><time>2026-04-12T08:06:58.816Z</time></trkpt><trkpt lat="42.326104" lon="13.5724933"><ele>999.0</ele><time>2026-04-12T08:07:01.818Z</time></trkpt><trkpt lat="42.3260876" lon="13.5725857"><ele>999.0</ele><time>2026-04-12T08:07:03.818Z</time></trkpt><trkpt lat="42.3260907" lon="13.5726846"><ele>999.0</ele><time>2026-04-12T08:07:05.817Z</time></trkpt><trkpt lat="42.3260956" lon="13.5727843"><ele>999.0</ele><time>2026-04-12T08:07:07.817Z</time></trkpt><trkpt lat="42.3260947" lon="13.5728875"><ele>999.0</ele><time>2026-04-12T08:07:09.818Z</time></trkpt><trkpt lat="42.3260993" lon="13.572995"><ele>999.0</ele><time>2026-04-12T08:07:11.817Z</time></trkpt><trkpt lat="42.3261069" lon="13.5731157"><ele>999.2</ele><time>2026-04-12T08:07:13.816Z</time></trkpt><trkpt lat="42.3261214" lon="13.5732502"><ele>999.4000000000001</ele><time>2026-04-12T08:07:15.817Z</time></trkpt><trkpt lat="42.3261392" lon="13.5734049"><ele>999.6</ele><time>2026-04-12T08:07:17.817Z</time></trkpt><trkpt lat="42.3261574" lon="13.5735781"><ele>999.8</ele><time>2026-04-12T08:07:19.816Z</time></trkpt><trkpt lat="42.326166" lon="13.5736696"><ele>1000.0</ele><time>2026-04-12T08:07:20.817Z</time></trkpt><trkpt lat="42.3261795" lon="13.573768"><ele>998.9999999999999</ele><time>2026-04-12T08:07:21.816Z</time></trkpt><trkpt lat="42.3261882" lon="13.5738736"><ele>998.0</ele><time>2026-04-12T08:07:22.817Z</time></trkpt><trkpt lat="42.3261985" lon="13.5739835"><ele>997.0</ele><time>2026-04-12T08:07:23.817Z</time></trkpt><trkpt lat="42.3262083" lon="13.5740956"><ele>996.0</ele><time>2026-04-12T08:07:24.816Z</time></trkpt><trkpt lat="42.3262233" lon="13.5742168"><ele>994.9999999999999</ele><time>2026-04-12T08:07:25.816Z</time></trkpt><trkpt lat="42.3262343" lon="13.5743214"><ele>994.0</ele><time>2026-04-12T08:07:26.817Z</time></trkpt><trkpt lat="42.3262433" lon="13.5744344"><ele>992.1666666666666</ele><time>2026-04-12T08:07:27.817Z</time></trkpt><trkpt lat="42.326253" lon="13.5745486"><ele>990.3333333333333</ele><time>2026-04-12T08:07:28.817Z</time></trkpt><trkpt lat="42.3262646" lon="13.574658"><ele>988.5</ele><time>2026-04-12T08:07:29.816Z</time></trkpt><trkpt lat="42.3262789" lon="13.5747606"><ele>986.6666666666667</ele><time>2026-04-12T08:07:30.817Z</time></trkpt><trkpt lat="42.3262967" lon="13.5748676"><ele>984.8333333333334</ele><time>2026-04-12T08:07:31.818Z</time></trkpt><trkpt lat="42.326319" lon="13.5749812"><ele>983.0</ele><time>2026-04-12T08:07:32.817Z</time></trkpt><trkpt lat="42.326344" lon="13.5750881"><ele>983.0000000000001</ele><time>2026-04-12T08:07:33.817Z</time></trkpt><trkpt lat="42.3263732" lon="13.5751888"><ele>983.0</ele><time>2026-04-12T08:07:34.816Z</time></trkpt><trkpt lat="42.3264071" lon="13.5752937"><ele>983.0</ele><time>2026-04-12T08:07:35.817Z</time></trkpt><trkpt lat="42.3264406" lon="13.5754038"><ele>983.0</ele><time>2026-04-12T08:07:36.817Z</time></trkpt><trkpt lat="42.3264727" lon="13.5755161"><ele>983.0000000000001</ele><time>2026-04-12T08:07:37.816Z</time></trkpt><trkpt lat="42.3265097" lon="13.5756312"><ele>983.0</ele><time>2026-04-12T08:07:38.816Z</time></trkpt><trkpt lat="42.3265394" lon="13.5757379"><ele>982.1666666666667</ele><time>2026-04-12T08:07:39.816Z</time></trkpt><trkpt lat="42.3265727" lon="13.5758487"><ele>981.3333333333334</ele><time>2026-04-12T08:07:40.816Z</time></trkpt><trkpt lat="42.3266029" lon="13.5759533"><ele>980.5</ele><time>2026-04-12T08:07:41.816Z</time></trkpt><trkpt lat="42.3266314" lon="13.5760581"><ele>979.6666666666667</ele><time>2026-04-12T08:07:42.816Z</time></trkpt><trkpt lat="42.3266562" lon="13.5761449"><ele>978.8333333333334</ele><time>2026-04-12T08:07:43.818Z</time></trkpt><trkpt lat="42.3266791" lon="13.5762334"><ele>978.0</ele><time>2026-04-12T08:07:44.817Z</time></trkpt><trkpt lat="42.3267028" lon="13.57632"><ele>978.0</ele><time>2026-04-12T08:07:45.817Z</time></trkpt><trkpt lat="42.3267256" lon="13.5764118"><ele>978.0</ele><time>2026-04-12T08:07:46.817Z</time></trkpt><trkpt lat="42.3267475" lon="13.5765104"><ele>978.0</ele><time>2026-04-12T08:07:47.817Z</time></trkpt><trkpt lat="42.3267627" lon="13.576609"><ele>978.0</ele><time>2026-04-12T08:07:48.817Z</time></trkpt><trkpt lat="42.326778" lon="13.5767089"><ele>978.0</ele><time>2026-04-12T08:07:49.817Z</time></trkpt><trkpt lat="42.3267921" lon="13.5768133"><ele>978.0</ele><time>2026-04-12T08:07:50.817Z</time></trkpt><trkpt lat="42.3267983" lon="13.5769252"><ele>976.5</ele><time>2026-04-12T08:07:51.818Z</time></trkpt><trkpt lat="42.3268074" lon="13.5770384"><ele>975.0</ele><time>2026-04-12T08:07:52.817Z</time></trkpt><trkpt lat="42.3268127" lon="13.5771401"><ele>973.5</ele><time>2026-04-12T08:07:53.817Z</time></trkpt><trkpt lat="42.3268174" lon="13.5772503"><ele>972.0</ele><time>2026-04-12T08:07:54.817Z</time></trkpt><trkpt lat="42.3268315" lon="13.5773564"><ele>970.5</ele><time>2026-04-12T08:07:55.817Z</time></trkpt><trkpt lat="42.3268366" lon="13.5774676"><ele>969.0</ele><time>2026-04-12T08:07:56.816Z</time></trkpt><trkpt lat="42.3268221" lon="13.577582"><ele>969.0</ele><time>2026-04-12T08:07:57.817Z</time></trkpt><trkpt lat="42.3267998" lon="13.5776956"><ele>969.0</ele><time>2026-04-12T08:07:58.816Z</time></trkpt><trkpt lat="42.3267701" lon="13.5778088"><ele>969.0</ele><time>2026-04-12T08:07:59.816Z</time></trkpt><trkpt lat="42.3267415" lon="13.5779235"><ele>969.0</ele><time>2026-04-12T08:08:00.816Z</time></trkpt><trkpt lat="42.3267135" lon="13.5780385"><ele>969.0</ele><time>2026-04-12T08:08:01.817Z</time></trkpt><trkpt lat="42.3266902" lon="13.5781566"><ele>969.0</ele><time>2026-04-12T08:08:02.818Z</time></trkpt><trkpt lat="42.3266726" lon="13.5782772"><ele>968.8000000000001</ele><time>2026-04-12T08:08:03.818Z</time></trkpt><trkpt lat="42.3266613" lon="13.5783996"><ele>968.6000000000001</ele><time>2026-04-12T08:08:04.817Z</time></trkpt><trkpt lat="42.3266562" lon="13.5785231"><ele>968.4</ele><time>2026-04-12T08:08:05.817Z</time></trkpt><trkpt lat="42.3266563" lon="13.5786458"><ele>968.2</ele><time>2026-04-12T08:08:06.817Z</time></trkpt><trkpt lat="42.3266615" lon="13.5787643"><ele>968.0</ele><time>2026-04-12T08:08:07.817Z</time></trkpt><trkpt lat="42.3266688" lon="13.5788868"><ele>966.8</ele><time>2026-04-12T08:08:08.817Z</time></trkpt><trkpt lat="42.3266754" lon="13.5790146"><ele>965.5999999999999</ele><time>2026-04-12T08:08:09.817Z</time></trkpt><trkpt lat="42.3266803" lon="13.5791336"><ele>964.4000000000001</ele><time>2026-04-12T08:08:10.817Z</time></trkpt><trkpt lat="42.3266858" lon="13.5792562"><ele>963.2</ele><time>2026-04-12T08:08:11.818Z</time></trkpt><trkpt lat="42.326689" lon="13.5793814"><ele>962.0</ele><time>2026-04-12T08:08:12.817Z</time></trkpt><trkpt lat="42.3266899" lon="13.5795088"><ele>961.2</ele><time>2026-04-12T08:08:13.817Z</time></trkpt><trkpt lat="42.3266926" lon="13.5796387"><ele>960.4000000000001</ele><time>2026-04-12T08:08:14.817Z</time></trkpt><trkpt lat="42.3266919" lon="13.5797662"><ele>959.5999999999999</ele><time>2026-04-12T08:08:15.816Z</time></trkpt><trkpt lat="42.3266869" lon="13.5798898"><ele>958.8</ele><time>2026-04-12T08:08:16.817Z</time></trkpt><trkpt lat="42.3266808" lon="13.5800138"><ele>958.0</ele><time>2026-04-12T08:08:17.817Z</time></trkpt><trkpt lat="42.3266726" lon="13.5801394"><ele>958.0</ele><time>2026-04-12T08:08:18.817Z</time></trkpt><trkpt lat="42.3266641" lon="13.5802667"><ele>958.0</ele><time>2026-04-12T08:08:19.817Z</time></trkpt><trkpt lat="42.3266577" lon="13.5803994"><ele>958.0</ele><time>2026-04-12T08:08:20.816Z</time></trkpt><trkpt lat="42.3266505" lon="13.5805333"><ele>958.0</ele><time>2026-04-12T08:08:21.816Z</time></trkpt><trkpt lat="42.3266403" lon="13.5806708"><ele>958.0</ele><time>2026-04-12T08:08:22.817Z</time></trkpt><trkpt lat="42.3266211" lon="13.5808044"><ele>957.2</ele><time>2026-04-12T08:08:23.816Z</time></trkpt><trkpt lat="42.3265957" lon="13.5809347"><ele>956.4</ele><time>2026-04-12T08:08:24.816Z</time></trkpt><trkpt lat="42.3265653" lon="13.5810673"><ele>955.6000000000001</ele><time>2026-04-12T08:08:25.817Z</time></trkpt><trkpt lat="42.3265296" lon="13.5811855"><ele>954.8000000000001</ele><time>2026-04-12T08:08:26.817Z</time></trkpt><trkpt lat="42.3264904" lon="13.5813031"><ele>954.0</ele><time>2026-04-12T08:08:27.818Z</time></trkpt><trkpt lat="42.3264514" lon="13.5814264"><ele>953.0</ele><time>2026-04-12T08:08:28.817Z</time></trkpt><trkpt lat="42.3264171" lon="13.5815458"><ele>952.0000000000001</ele><time>2026-04-12T08:08:29.816Z</time></trkpt><trkpt lat="42.3263839" lon="13.5816666"><ele>951.0000000000001</ele><time>2026-04-12T08:08:30.816Z</time></trkpt><trkpt lat="42.3263647" lon="13.5817866"><ele>950.0</ele><time>2026-04-12T08:08:31.817Z</time></trkpt><trkpt lat="42.3263655" lon="13.5819104"><ele>949.0</ele><time>2026-04-12T08:08:32.817Z</time></trkpt><trkpt lat="42.3263898" lon="13.5820336"><ele>947.0</ele><time>2026-04-12T08:08:33.816Z</time></trkpt><trkpt lat="42.3264312" lon="13.5821482"><ele>945.0000000000001</ele><time>2026-04-12T08:08:34.817Z</time></trkpt><trkpt lat="42.3264857" lon="13.5822532"><ele>943.0000000000001</ele><time>2026-04-12T08:08:35.818Z</time></trkpt><trkpt lat="42.3265533" lon="13.5823518"><ele>941.0</ele><time>2026-04-12T08:08:36.817Z</time></trkpt><trkpt lat="42.3266384" lon="13.5824324"><ele>939.0</ele><time>2026-04-12T08:08:37.817Z</time></trkpt><trkpt lat="42.3267345" lon="13.5825095"><ele>939.0</ele><time>2026-04-12T08:08:38.817Z</time></trkpt><trkpt lat="42.3268268" lon="13.5825866"><ele>939.0000000000001</ele><time>2026-04-12T08:08:39.817Z</time></trkpt><trkpt lat="42.3269166" lon="13.5826713"><ele>939.0000000000001</ele><time>2026-04-12T08:08:40.817Z</time></trkpt><trkpt lat="42.3269932" lon="13.5827866"><ele>939.0</ele><time>2026-04-12T08:08:41.817Z</time></trkpt><trkpt lat="42.3270523" lon="13.5829183"><ele>939.0</ele><time>2026-04-12T08:08:42.817Z</time></trkpt><trkpt lat="42.3270846" lon="13.5830608"><ele>937.2</ele><time>2026-04-12T08:08:43.816Z</time></trkpt><trkpt lat="42.3270926" lon="13.5832087"><ele>935.4000000000001</ele><time>2026-04-12T08:08:44.816Z</time></trkpt><trkpt lat="42.3270747" lon="13.5833596"><ele>933.6</ele><time>2026-04-12T08:08:45.817Z</time></trkpt><trkpt lat="42.3270443" lon="13.5835047"><ele>931.8</ele><time>2026-04-12T08:08:46.817Z</time></trkpt><trkpt lat="42.3270088" lon="13.5836464"><ele>930.0</ele><time>2026-04-12T08:08:47.816Z</time></trkpt><trkpt lat="42.3269704" lon="13.5837799"><ele>930.0</ele><time>2026-04-12T08:08:48.817Z</time></trkpt><trkpt lat="42.3269353" lon="13.5839102"><ele>930.0</ele><time>2026-04-12T08:08:49.816Z</time></trkpt><trkpt lat="42.3268973" lon="13.5840323"><ele>930.0</ele><time>2026-04-12T08:08:50.816Z</time></trkpt><trkpt lat="42.3268599" lon="13.5841499"><ele>930.0</ele><time>2026-04-12T08:08:51.817Z</time></trkpt><trkpt lat="42.3268223" lon="13.5842635"><ele>930.0</ele><time>2026-04-12T08:08:52.818Z</time></trkpt><trkpt lat="42.3267848" lon="13.5843719"><ele>930.0</ele><time>2026-04-12T08:08:53.818Z</time></trkpt><trkpt lat="42.3267506" lon="13.5844728"><ele>930.0</ele><time>2026-04-12T08:08:54.817Z</time></trkpt><trkpt lat="42.3267128" lon="13.5845654"><ele>930.0</ele><time>2026-04-12T08:08:55.816Z</time></trkpt><trkpt lat="42.3266737" lon="13.5846529"><ele>930.0</ele><time>2026-04-12T08:08:56.816Z</time></trkpt><trkpt lat="42.3266297" lon="13.5847348"><ele>930.0</ele><time>2026-04-12T08:08:57.817Z</time></trkpt><trkpt lat="42.3265828" lon="13.5848079"><ele>930.0</ele><time>2026-04-12T08:08:58.817Z</time></trkpt><trkpt lat="42.3265344" lon="13.5848744"><ele>929.4</ele><time>2026-04-12T08:08:59.818Z</time></trkpt><trkpt lat="42.32649" lon="13.5849353"><ele>928.8</ele><time>2026-04-12T08:09:00.818Z</time></trkpt><trkpt lat="42.3264052" lon="13.5850482"><ele>928.2</ele><time>2026-04-12T08:09:02.816Z</time></trkpt><trkpt lat="42.3263314" lon="13.5851253"><ele>927.6</ele><time>2026-04-12T08:09:04.816Z</time></trkpt><trkpt lat="42.3262574" lon="13.5852074"><ele>927.0</ele><time>2026-04-12T08:09:06.817Z</time></trkpt><trkpt lat="42.326193" lon="13.5852962"><ele>928.4000000000001</ele><time>2026-04-12T08:09:08.817Z</time></trkpt><trkpt lat="42.3261422" lon="13.5853956"><ele>929.8000000000001</ele><time>2026-04-12T08:09:10.816Z</time></trkpt><trkpt lat="42.3261057" lon="13.5855226"><ele>931.2</ele><time>2026-04-12T08:09:12.817Z</time></trkpt><trkpt lat="42.3260849" lon="13.5856513"><ele>932.6</ele><time>2026-04-12T08:09:14.818Z</time></trkpt><trkpt lat="42.3260628" lon="13.5857757"><ele>934.0</ele><time>2026-04-12T08:09:16.817Z</time></trkpt><trkpt lat="42.3260391" lon="13.5859059"><ele>934.0</ele><time>2026-04-12T08:09:18.817Z</time></trkpt><trkpt lat="42.3260101" lon="13.5860438"><ele>934.0000000000001</ele><time>2026-04-12T08:09:20.816Z</time></trkpt><trkpt lat="42.325983" lon="13.5861762"><ele>934.0000000000001</ele><time>2026-04-12T08:09:22.817Z</time></trkpt><trkpt lat="42.3259574" lon="13.5863035"><ele>934.0</ele><time>2026-04-12T08:09:24.817Z</time></trkpt><trkpt lat="42.3259352" lon="13.5864389"><ele>934.0</ele><time>2026-04-12T08:09:26.817Z</time></trkpt><trkpt lat="42.3259091" lon="13.5865539"><ele>933.9999999999999</ele><time>2026-04-12T08:09:28.817Z</time></trkpt><trkpt lat="42.3259007" lon="13.5866574"><ele>934.0</ele><time>2026-04-12T08:09:32.816Z</time></trkpt><trkpt lat="42.3259171" lon="13.5867582"><ele>934.0</ele><time>2026-04-12T08:09:37.817Z</time></trkpt><trkpt lat="42.3259204" lon="13.5868774"><ele>934.0</ele><time>2026-04-12T08:09:41.816Z</time></trkpt><trkpt lat="42.3258988" lon="13.5869639"><ele>933.9999999999999</ele><time>2026-04-12T08:09:49.817Z</time></trkpt><trkpt lat="42.3258785" lon="13.5870471"><ele>934.0</ele><time>2026-04-12T08:09:51.816Z</time></trkpt><trkpt lat="42.3258736" lon="13.5871665"><ele>934.1666666666666</ele><time>2026-04-12T08:09:53.816Z</time></trkpt><trkpt lat="42.3258918" lon="13.5872868"><ele>934.3333333333333</ele><time>2026-04-12T08:09:55.817Z</time></trkpt><trkpt lat="42.3259052" lon="13.5873944"><ele>934.5</ele><time>2026-04-12T08:09:57.816Z</time></trkpt><trkpt lat="42.3259095" lon="13.5875164"><ele>934.6666666666667</ele><time>2026-04-12T08:09:59.817Z</time></trkpt><trkpt lat="42.3259306" lon="13.5876354"><ele>934.8333333333334</ele><time>2026-04-12T08:10:01.817Z</time></trkpt><trkpt lat="42.325968" lon="13.5877321"><ele>935.0</ele><time>2026-04-12T08:10:03.817Z</time></trkpt><trkpt lat="42.326019" lon="13.5877998"><ele>935.3333333333334</ele><time>2026-04-12T08:10:05.817Z</time></trkpt><trkpt lat="42.3260741" lon="13.5878572"><ele>935.6666666666667</ele><time>2026-04-12T08:10:07.817Z</time></trkpt><trkpt lat="42.3261458" lon="13.5879295"><ele>936.0</ele><time>2026-04-12T08:10:10.817Z</time></trkpt><trkpt lat="42.326199" lon="13.587983"><ele>936.3333333333333</ele><time>2026-04-12T08:10:12.818Z</time></trkpt><trkpt lat="42.3262799" lon="13.5880458"><ele>936.6666666666666</ele><time>2026-04-12T08:10:15.817Z</time></trkpt><trkpt lat="42.3263604" lon="13.5881025"><ele>937.0</ele><time>2026-04-12T08:10:18.816Z</time></trkpt><trkpt lat="42.3264411" lon="13.5881576"><ele>938.1666666666666</ele><time>2026-04-12T08:10:21.816Z</time></trkpt><trkpt lat="42.3265012" lon="13.588195"><ele>939.3333333333333</ele><time>2026-04-12T08:10:23.817Z</time></trkpt><trkpt lat="42.3265767" lon="13.588252"><ele>940.5</ele><time>2026-04-12T08:10:26.817Z</time></trkpt><trkpt lat="42.3266555" lon="13.5883079"><ele>941.6666666666667</ele><time>2026-04-12T08:10:29.816Z</time></trkpt><trkpt lat="42.3267366" lon="13.588358"><ele>942.8333333333334</ele><time>2026-04-12T08:10:32.817Z</time></trkpt><trkpt lat="42.3268148" lon="13.5884176"><ele>944.0</ele><time>2026-04-12T08:10:35.817Z</time></trkpt><trkpt lat="42.3268794" lon="13.5884829"><ele>944.0000000000001</ele><time>2026-04-12T08:10:38.817Z</time></trkpt><trkpt lat="42.3268794" lon="13.5885942"><ele>944.0</ele><time>2026-04-12T08:10:41.817Z</time></trkpt><trkpt lat="42.3268428" lon="13.5887091"><ele>944.0</ele><time>2026-04-12T08:10:44.817Z</time></trkpt><trkpt lat="42.3268224" lon="13.5887948"><ele>944.0</ele><time>2026-04-12T08:10:46.817Z</time></trkpt><trkpt lat="42.3267938" lon="13.5888788"><ele>944.0000000000001</ele><time>2026-04-12T08:10:48.817Z</time></trkpt><trkpt lat="42.3267612" lon="13.5889573"><ele>944.0</ele><time>2026-04-12T08:10:50.817Z</time></trkpt><trkpt lat="42.3267362" lon="13.5890536"><ele>944.2857142857142</ele><time>2026-04-12T08:10:52.816Z</time></trkpt><trkpt lat="42.326715" lon="13.5891515"><ele>944.5714285714287</ele><time>2026-04-12T08:10:54.817Z</time></trkpt><trkpt lat="42.3266873" lon="13.5892541"><ele>944.8571428571429</ele><time>2026-04-12T08:10:56.816Z</time></trkpt><trkpt lat="42.3266584" lon="13.5893509"><ele>945.1428571428571</ele><time>2026-04-12T08:10:58.816Z</time></trkpt><trkpt lat="42.3266361" lon="13.5894451"><ele>945.4285714285713</ele><time>2026-04-12T08:11:00.816Z</time></trkpt><trkpt lat="42.3266083" lon="13.5895355"><ele>945.7142857142858</ele><time>2026-04-12T08:11:02.816Z</time></trkpt><trkpt lat="42.3265866" lon="13.5896233"><ele>946.0</ele><time>2026-04-12T08:11:04.816Z</time></trkpt><trkpt lat="42.3265437" lon="13.589729"><ele>946.9999999999999</ele><time>2026-04-12T08:11:07.818Z</time></trkpt><trkpt lat="42.3265244" lon="13.5898283"><ele>948.0</ele><time>2026-04-12T08:11:10.816Z</time></trkpt><trkpt lat="42.3265785" lon="13.5899063"><ele>949.0</ele><time>2026-04-12T08:11:13.816Z</time></trkpt><trkpt lat="42.3266515" lon="13.5899227"><ele>950.0</ele><time>2026-04-12T08:11:16.817Z</time></trkpt><trkpt lat="42.3267302" lon="13.5899395"><ele>950.9999999999999</ele><time>2026-04-12T08:11:19.816Z</time></trkpt><trkpt lat="42.3268084" lon="13.5899454"><ele>952.0</ele><time>2026-04-12T08:11:22.816Z</time></trkpt><trkpt lat="42.3268724" lon="13.5899695"><ele>952.0</ele><time>2026-04-12T08:11:25.817Z</time></trkpt><trkpt lat="42.3269514" lon="13.5899774"><ele>952.0</ele><time>2026-04-12T08:11:30.816Z</time></trkpt><trkpt lat="42.3268702" lon="13.5900121"><ele>952.0</ele><time>2026-04-12T08:11:34.817Z</time></trkpt><trkpt lat="42.3267905" lon="13.5899721"><ele>952.0</ele><time>2026-04-12T08:11:36.817Z</time></trkpt><trkpt lat="42.3266812" lon="13.5899269"><ele>952.0</ele><time>2026-04-12T08:11:38.817Z</time></trkpt><trkpt lat="42.3265739" lon="13.5898917"><ele>951.9999999999999</ele><time>2026-04-12T08:11:40.817Z</time></trkpt><trkpt lat="42.326487" lon="13.589857"><ele>952.0</ele><time>2026-04-12T08:11:42.816Z</time></trkpt><trkpt lat="42.3264123" lon="13.5898112"><ele>952.0</ele><time>2026-04-12T08:11:45.817Z</time></trkpt><trkpt lat="42.3263183" lon="13.5898176"><ele>952.0</ele><time>2026-04-12T08:11:48.817Z</time></trkpt><trkpt lat="42.3263132" lon="13.5899384"><ele>951.9999999999999</ele><time>2026-04-12T08:11:50.817Z</time></trkpt><trkpt lat="42.3262912" lon="13.5900544"><ele>952.0</ele><time>2026-04-12T08:11:52.817Z</time></trkpt><trkpt lat="42.3262727" lon="13.5901884"><ele>950.8</ele><time>2026-04-12T08:11:54.816Z</time></trkpt><trkpt lat="42.326247" lon="13.5903385"><ele>949.6</ele><time>2026-04-12T08:11:56.816Z</time></trkpt><trkpt lat="42.326221" lon="13.5904934"><ele>948.3999999999999</ele><time>2026-04-12T08:11:58.818Z</time></trkpt><trkpt lat="42.3262126" lon="13.5906209"><ele>947.1999999999999</ele><time>2026-04-12T08:12:00.817Z</time></trkpt><trkpt lat="42.32622" lon="13.5907275"><ele>946.0</ele><time>2026-04-12T08:12:02.817Z</time></trkpt><trkpt lat="42.3261484" lon="13.5907393"><ele>945.9999999999999</ele><time>2026-04-12T08:12:08.818Z</time></trkpt><trkpt lat="42.3260592" lon="13.5906784"><ele>946.0</ele><time>2026-04-12T08:12:11.816Z</time></trkpt><trkpt lat="42.3259715" lon="13.5906712"><ele>946.0</ele><time>2026-04-12T08:12:13.817Z</time></trkpt><trkpt lat="42.3258865" lon="13.5906725"><ele>946.0</ele><time>2026-04-12T08:12:15.818Z</time></trkpt><trkpt lat="42.3258254" lon="13.590761"><ele>945.9999999999999</ele><time>2026-04-12T08:12:17.817Z</time></trkpt><trkpt lat="42.3258148" lon="13.5908648"><ele>946.0</ele><time>2026-04-12T08:12:19.817Z</time></trkpt><trkpt lat="42.3258003" lon="13.5909758"><ele>945.9999999999999</ele><time>2026-04-12T08:12:21.816Z</time></trkpt><trkpt lat="42.3257738" lon="13.5910884"><ele>946.0</ele><time>2026-04-12T08:12:23.817Z</time></trkpt><trkpt lat="42.325756" lon="13.59118"><ele>946.0</ele><time>2026-04-12T08:12:25.817Z</time></trkpt><trkpt lat="42.3257428" lon="13.5913096"><ele>946.0</ele><time>2026-04-12T08:12:28.816Z</time></trkpt><trkpt lat="42.3257449" lon="13.5914047"><ele>945.9999999999999</ele><time>2026-04-12T08:12:30.817Z</time></trkpt><trkpt lat="42.3257301" lon="13.5914938"><ele>946.0</ele><time>2026-04-12T08:12:32.818Z</time></trkpt><trkpt lat="42.3256935" lon="13.5915704"><ele>945.8333333333333</ele><time>2026-04-12T08:12:34.816Z</time></trkpt><trkpt lat="42.3256362" lon="13.5916238"><ele>945.6666666666666</ele><time>2026-04-12T08:12:36.818Z</time></trkpt><trkpt lat="42.3255795" lon="13.5916723"><ele>945.5</ele><time>2026-04-12T08:12:38.817Z</time></trkpt><trkpt lat="42.325524" lon="13.5917194"><ele>945.3333333333333</ele><time>2026-04-12T08:12:40.816Z</time></trkpt><trkpt lat="42.3254326" lon="13.5917816"><ele>945.1666666666666</ele><time>2026-04-12T08:12:43.817Z</time></trkpt><trkpt lat="42.3253541" lon="13.5918335"><ele>945.0</ele><time>2026-04-12T08:12:45.815Z</time></trkpt><trkpt lat="42.3252656" lon="13.5918787"><ele>945.0</ele><time>2026-04-12T08:12:47.815Z</time></trkpt><trkpt lat="42.3251876" lon="13.5919149"><ele>945.0</ele><time>2026-04-12T08:12:49.815Z</time></trkpt><trkpt lat="42.3251258" lon="13.591953"><ele>945.0</ele><time>2026-04-12T08:12:51.816Z</time></trkpt><trkpt lat="42.3250587" lon="13.5919988"><ele>945.0</ele><time>2026-04-12T08:12:53.815Z</time></trkpt><trkpt lat="42.3249979" lon="13.5920324"><ele>945.0</ele><time>2026-04-12T08:12:55.815Z</time></trkpt><trkpt lat="42.3249158" lon="13.5920977"><ele>945.0</ele><time>2026-04-12T08:12:58.816Z</time></trkpt><trkpt lat="42.3248505" lon="13.5921464"><ele>945.1666666666666</ele><time>2026-04-12T08:13:00.815Z</time></trkpt><trkpt lat="42.3247881" lon="13.5922075"><ele>945.3333333333333</ele><time>2026-04-12T08:13:04.815Z</time></trkpt><trkpt lat="42.3247089" lon="13.5922268"><ele>945.5</ele><time>2026-04-12T08:13:08.817Z</time></trkpt><trkpt lat="42.324644" lon="13.5922599"><ele>945.6666666666666</ele><time>2026-04-12T08:13:11.816Z</time></trkpt><trkpt lat="42.3245596" lon="13.5923113"><ele>945.8333333333333</ele><time>2026-04-12T08:13:14.817Z</time></trkpt><trkpt lat="42.3245035" lon="13.5923599"><ele>946.0</ele><time>2026-04-12T08:13:16.815Z</time></trkpt><trkpt lat="42.3244518" lon="13.5924134"><ele>945.9999999999999</ele><time>2026-04-12T08:13:18.815Z</time></trkpt><trkpt lat="42.3243776" lon="13.5924723"><ele>946.0</ele><time>2026-04-12T08:13:23.816Z</time></trkpt><trkpt lat="42.324323" lon="13.5925202"><ele>946.0</ele><time>2026-04-12T08:13:25.816Z</time></trkpt><trkpt lat="42.3242535" lon="13.592582"><ele>946.0</ele><time>2026-04-12T08:13:28.816Z</time></trkpt><trkpt lat="42.3242077" lon="13.5926465"><ele>945.9999999999999</ele><time>2026-04-12T08:13:31.815Z</time></trkpt><trkpt lat="42.3241469" lon="13.5927214"><ele>946.0</ele><time>2026-04-12T08:13:35.816Z</time></trkpt><trkpt lat="42.3240896" lon="13.5927814"><ele>945.1666666666666</ele><time>2026-04-12T08:13:40.816Z</time></trkpt><trkpt lat="42.3240345" lon="13.59286"><ele>944.3333333333333</ele><time>2026-04-12T08:13:43.815Z</time></trkpt><trkpt lat="42.3239944" lon="13.5929261"><ele>943.5</ele><time>2026-04-12T08:13:46.816Z</time></trkpt><trkpt lat="42.3239202" lon="13.5929818"><ele>942.6666666666667</ele><time>2026-04-12T08:13:49.817Z</time></trkpt><trkpt lat="42.3238593" lon="13.5930203"><ele>941.8333333333334</ele><time>2026-04-12T08:13:51.815Z</time></trkpt><trkpt lat="42.3237786" lon="13.5930612"><ele>941.0</ele><time>2026-04-12T08:13:53.816Z</time></trkpt><trkpt lat="42.3237075" lon="13.5930986"><ele>941.0000000000001</ele><time>2026-04-12T08:13:55.815Z</time></trkpt><trkpt lat="42.3236468" lon="13.5931473"><ele>941.0</ele><time>2026-04-12T08:13:57.815Z</time></trkpt><trkpt lat="42.3235765" lon="13.5932006"><ele>941.0</ele><time>2026-04-12T08:13:59.815Z</time></trkpt><trkpt lat="42.3235" lon="13.593255"><ele>941.0</ele><time>2026-04-12T08:14:01.815Z</time></trkpt><trkpt lat="42.32343" lon="13.5933206"><ele>941.0000000000001</ele><time>2026-04-12T08:14:03.816Z</time></trkpt><trkpt lat="42.3233428" lon="13.5934114"><ele>941.0</ele><time>2026-04-12T08:14:05.816Z</time></trkpt><trkpt lat="42.3232762" lon="13.5934758"><ele>941.0000000000001</ele><time>2026-04-12T08:14:07.815Z</time></trkpt><trkpt lat="42.3232276" lon="13.5935387"><ele>941.0</ele><time>2026-04-12T08:14:09.817Z</time></trkpt><trkpt lat="42.3231603" lon="13.5936134"><ele>941.0</ele><time>2026-04-12T08:14:11.816Z</time></trkpt><trkpt lat="42.3231124" lon="13.5936978"><ele>941.0</ele><time>2026-04-12T08:14:13.815Z</time></trkpt><trkpt lat="42.3230412" lon="13.5938141"><ele>941.0000000000001</ele><time>2026-04-12T08:14:15.815Z</time></trkpt><trkpt lat="42.3229995" lon="13.593879"><ele>941.0</ele><time>2026-04-12T08:14:16.816Z</time></trkpt><trkpt lat="42.3229602" lon="13.5939532"><ele>939.8571428571427</ele><time>2026-04-12T08:14:17.817Z</time></trkpt><trkpt lat="42.3229196" lon="13.594032"><ele>938.7142857142857</ele><time>2026-04-12T08:14:18.817Z</time></trkpt><trkpt lat="42.3228827" lon="13.5941104"><ele>937.5714285714284</ele><time>2026-04-12T08:14:19.816Z</time></trkpt><trkpt lat="42.3228362" lon="13.5941886"><ele>936.4285714285713</ele><time>2026-04-12T08:14:20.816Z</time></trkpt><trkpt lat="42.3227912" lon="13.5942651"><ele>935.2857142857142</ele><time>2026-04-12T08:14:21.816Z</time></trkpt><trkpt lat="42.3227476" lon="13.5943408"><ele>934.1428571428571</ele><time>2026-04-12T08:14:22.816Z</time></trkpt><trkpt lat="42.322701" lon="13.5944117"><ele>933.0</ele><time>2026-04-12T08:14:23.815Z</time></trkpt><trkpt lat="42.3226594" lon="13.5944827"><ele>933.4285714285713</ele><time>2026-04-12T08:14:24.815Z</time></trkpt><trkpt lat="42.3226182" lon="13.5945586"><ele>933.8571428571428</ele><time>2026-04-12T08:14:25.815Z</time></trkpt><trkpt lat="42.3225749" lon="13.5946263"><ele>934.2857142857142</ele><time>2026-04-12T08:14:26.816Z</time></trkpt><trkpt lat="42.3225369" lon="13.5946975"><ele>934.7142857142858</ele><time>2026-04-12T08:14:27.816Z</time></trkpt><trkpt lat="42.3225013" lon="13.59477"><ele>935.1428571428572</ele><time>2026-04-12T08:14:28.815Z</time></trkpt><trkpt lat="42.3224586" lon="13.5948455"><ele>935.5714285714287</ele><time>2026-04-12T08:14:29.815Z</time></trkpt><trkpt lat="42.3224092" lon="13.5949168"><ele>936.0</ele><time>2026-04-12T08:14:30.815Z</time></trkpt><trkpt lat="42.3223653" lon="13.5949919"><ele>936.0</ele><time>2026-04-12T08:14:31.816Z</time></trkpt><trkpt lat="42.3223193" lon="13.5950661"><ele>936.0</ele><time>2026-04-12T08:14:32.815Z</time></trkpt><trkpt lat="42.3222846" lon="13.5951463"><ele>936.0</ele><time>2026-04-12T08:14:33.817Z</time></trkpt><trkpt lat="42.3222627" lon="13.5952364"><ele>936.0</ele><time>2026-04-12T08:14:34.816Z</time></trkpt><trkpt lat="42.3222587" lon="13.595381"><ele>936.0</ele><time>2026-04-12T08:14:36.816Z</time></trkpt><trkpt lat="42.3222747" lon="13.5954889"><ele>936.0</ele><time>2026-04-12T08:14:38.815Z</time></trkpt><trkpt lat="42.322285" lon="13.5955849"><ele>937.0</ele><time>2026-04-12T08:14:40.815Z</time></trkpt><trkpt lat="42.3222948" lon="13.5956829"><ele>938.0000000000001</ele><time>2026-04-12T08:14:42.817Z</time></trkpt><trkpt lat="42.3223016" lon="13.5957796"><ele>939.0</ele><time>2026-04-12T08:14:44.815Z</time></trkpt><trkpt lat="42.3223014" lon="13.5958732"><ele>940.0</ele><time>2026-04-12T08:14:46.816Z</time></trkpt><trkpt lat="42.3222937" lon="13.59596"><ele>941.0000000000001</ele><time>2026-04-12T08:14:48.816Z</time></trkpt><trkpt lat="42.3223032" lon="13.5960634"><ele>942.0</ele><time>2026-04-12T08:14:51.815Z</time></trkpt><trkpt lat="42.3223668" lon="13.5960318"><ele>943.0</ele><time>2026-04-12T08:14:55.816Z</time></trkpt><trkpt lat="42.3224313" lon="13.5959673"><ele>942.9999999999999</ele><time>2026-04-12T08:14:59.815Z</time></trkpt><trkpt lat="42.322491" lon="13.595886"><ele>943.0</ele><time>2026-04-12T08:15:02.816Z</time></trkpt><trkpt lat="42.3225552" lon="13.5957991"><ele>943.0</ele><time>2026-04-12T08:15:05.815Z</time></trkpt><trkpt lat="42.3226162" lon="13.5957221"><ele>943.0</ele><time>2026-04-12T08:15:08.815Z</time></trkpt><trkpt lat="42.3226802" lon="13.5956415"><ele>942.9999999999999</ele><time>2026-04-12T08:15:11.815Z</time></trkpt><trkpt lat="42.3227435" lon="13.5955576"><ele>943.0</ele><time>2026-04-12T08:15:14.816Z</time></trkpt><trkpt lat="42.3228124" lon="13.5954782"><ele>942.9999999999999</ele><time>2026-04-12T08:15:17.817Z</time></trkpt><trkpt lat="42.3228778" lon="13.5954043"><ele>943.0</ele><time>2026-04-12T08:15:20.816Z</time></trkpt><trkpt lat="42.3229429" lon="13.5953384"><ele>943.0</ele><time>2026-04-12T08:15:23.816Z</time></trkpt><trkpt lat="42.323008" lon="13.5952734"><ele>943.0</ele><time>2026-04-12T08:15:26.815Z</time></trkpt><trkpt lat="42.3230761" lon="13.5952186"><ele>942.9999999999999</ele><time>2026-04-12T08:15:29.816Z</time></trkpt><trkpt lat="42.3231419" lon="13.5951668"><ele>943.0</ele><time>2026-04-12T08:15:32.816Z</time></trkpt><trkpt lat="42.3232149" lon="13.595119"><ele>945.4999999999999</ele><time>2026-04-12T08:15:35.815Z</time></trkpt><trkpt lat="42.3232917" lon="13.5950671"><ele>948.0</ele><time>2026-04-12T08:15:38.816Z</time></trkpt><trkpt lat="42.3233702" lon="13.5950108"><ele>950.5</ele><time>2026-04-12T08:15:41.815Z</time></trkpt><trkpt lat="42.3234439" lon="13.594962"><ele>953.0</ele><time>2026-04-12T08:15:44.816Z</time></trkpt><trkpt lat="42.323514" lon="13.5949016"><ele>955.4999999999999</ele><time>2026-04-12T08:15:47.815Z</time></trkpt><trkpt lat="42.3235807" lon="13.5948406"><ele>958.0</ele><time>2026-04-12T08:15:50.815Z</time></trkpt><trkpt lat="42.3236684" lon="13.5948312"><ele>958.0</ele><time>2026-04-12T08:15:53.816Z</time></trkpt><trkpt lat="42.3237501" lon="13.5948497"><ele>958.0</ele><time>2026-04-12T08:15:56.816Z</time></trkpt><trkpt lat="42.3237595" lon="13.5949406"><ele>958.0</ele><time>2026-04-12T08:16:04.816Z</time></trkpt><trkpt lat="42.3237241" lon="13.5950224"><ele>958.0</ele><time>2026-04-12T08:16:07.817Z</time></trkpt><trkpt lat="42.3237055" lon="13.5951149"><ele>958.0</ele><time>2026-04-12T08:16:10.816Z</time></trkpt><trkpt lat="42.3236918" lon="13.5952072"><ele>958.0</ele><time>2026-04-12T08:16:13.815Z</time></trkpt><trkpt lat="42.3236741" lon="13.5952958"><ele>958.0</ele><time>2026-04-12T08:16:16.816Z</time></trkpt><trkpt lat="42.3236614" lon="13.5953887"><ele>958.0</ele><time>2026-04-12T08:16:34.817Z</time></trkpt><trkpt lat="42.3236808" lon="13.5952952"><ele>958.0</ele><time>2026-04-12T08:16:39.815Z</time></trkpt><trkpt lat="42.3236949" lon="13.5951947"><ele>958.0</ele><time>2026-04-12T08:16:41.816Z</time></trkpt><trkpt lat="42.3237212" lon="13.5950607"><ele>958.0</ele><time>2026-04-12T08:16:43.815Z</time></trkpt><trkpt lat="42.3237548" lon="13.5949214"><ele>958.0</ele><time>2026-04-12T08:16:45.815Z</time></trkpt><trkpt lat="42.3237996" lon="13.594792"><ele>958.0</ele><time>2026-04-12T08:16:47.816Z</time></trkpt><trkpt lat="42.3238115" lon="13.5946854"><ele>958.0</ele><time>2026-04-12T08:16:49.816Z</time></trkpt><trkpt lat="42.3238246" lon="13.5945975"><ele>958.0</ele><time>2026-04-12T08:16:51.815Z</time></trkpt><trkpt lat="42.32384" lon="13.5945029"><ele>958.0</ele><time>2026-04-12T08:16:53.815Z</time></trkpt><trkpt lat="42.3238844" lon="13.594406"><ele>958.0</ele><time>2026-04-12T08:16:56.815Z</time></trkpt><trkpt lat="42.3239617" lon="13.594415"><ele>958.0</ele><time>2026-04-12T08:18:40.814Z</time></trkpt><trkpt lat="42.3240091" lon="13.5944766"><ele>958.0</ele><time>2026-04-12T08:18:43.815Z</time></trkpt><trkpt lat="42.3240673" lon="13.5945516"><ele>959.0</ele><time>2026-04-12T08:18:47.814Z</time></trkpt><trkpt lat="42.324136" lon="13.5946078"><ele>960.0</ele><time>2026-04-12T08:18:51.814Z</time></trkpt><trkpt lat="42.3241969" lon="13.5945763"><ele>961.0</ele><time>2026-04-12T08:18:56.814Z</time></trkpt><trkpt lat="42.3242676" lon="13.5945465"><ele>962.0</ele><time>2026-04-12T08:19:00.814Z</time></trkpt><trkpt lat="42.3243177" lon="13.5944793"><ele>963.0</ele><time>2026-04-12T08:19:03.814Z</time></trkpt><trkpt lat="42.3243823" lon="13.5944191"><ele>964.0</ele><time>2026-04-12T08:19:06.815Z</time></trkpt><trkpt lat="42.3244478" lon="13.5944219"><ele>965.0</ele><time>2026-04-12T08:19:12.814Z</time></trkpt><trkpt lat="42.3245025" lon="13.5945033"><ele>966.4285714285713</ele><time>2026-04-12T08:19:16.814Z</time></trkpt><trkpt lat="42.3245484" lon="13.5945946"><ele>967.8571428571429</ele><time>2026-04-12T08:19:20.814Z</time></trkpt><trkpt lat="42.3245759" lon="13.594691"><ele>969.2857142857142</ele><time>2026-04-12T08:19:24.815Z</time></trkpt><trkpt lat="42.3246159" lon="13.5947789"><ele>970.7142857142857</ele><time>2026-04-12T08:19:28.814Z</time></trkpt><trkpt lat="42.3246693" lon="13.5948466"><ele>972.1428571428571</ele><time>2026-04-12T08:19:32.815Z</time></trkpt><trkpt lat="42.3247273" lon="13.5948076"><ele>973.5714285714286</ele><time>2026-04-12T08:19:41.815Z</time></trkpt><trkpt lat="42.3247689" lon="13.5947341"><ele>975.0</ele><time>2026-04-12T08:19:47.815Z</time></trkpt><trkpt lat="42.3248268" lon="13.5946756"><ele>975.4285714285713</ele><time>2026-04-12T08:19:53.815Z</time></trkpt><trkpt lat="42.3248905" lon="13.5946218"><ele>975.8571428571428</ele><time>2026-04-12T08:19:59.814Z</time></trkpt><trkpt lat="42.3249556" lon="13.594604"><ele>976.2857142857142</ele><time>2026-04-12T08:20:02.814Z</time></trkpt><trkpt lat="42.3250218" lon="13.5946177"><ele>976.7142857142858</ele><time>2026-04-12T08:20:09.814Z</time></trkpt><trkpt lat="42.325041" lon="13.5945351"><ele>977.1428571428572</ele><time>2026-04-12T08:20:14.814Z</time></trkpt><trkpt lat="42.325098" lon="13.5944875"><ele>977.5714285714287</ele><time>2026-04-12T08:20:18.815Z</time></trkpt><trkpt lat="42.3251473" lon="13.5944011"><ele>978.0</ele><time>2026-04-12T08:20:21.814Z</time></trkpt><trkpt lat="42.3252082" lon="13.5943127"><ele>978.0</ele><time>2026-04-12T08:20:24.815Z</time></trkpt><trkpt lat="42.325255" lon="13.5942491"><ele>978.0</ele><time>2026-04-12T08:20:26.815Z</time></trkpt><trkpt lat="42.3253134" lon="13.5941646"><ele>978.0</ele><time>2026-04-12T08:20:29.815Z</time></trkpt><trkpt lat="42.3253557" lon="13.594078"><ele>978.0</ele><time>2026-04-12T08:20:32.815Z</time></trkpt><trkpt lat="42.3254434" lon="13.5940845"><ele>978.0</ele><time>2026-04-12T08:20:36.815Z</time></trkpt><trkpt lat="42.3254489" lon="13.5941889"><ele>978.0</ele><time>2026-04-12T08:20:39.814Z</time></trkpt><trkpt lat="42.3254856" lon="13.5942707"><ele>978.0</ele><time>2026-04-12T08:20:42.814Z</time></trkpt><trkpt lat="42.3255004" lon="13.5943573"><ele>978.0000000000001</ele><time>2026-04-12T08:20:45.816Z</time></trkpt><trkpt lat="42.3254874" lon="13.5944447"><ele>978.0</ele><time>2026-04-12T08:20:48.815Z</time></trkpt><trkpt lat="42.3254828" lon="13.5945398"><ele>978.0</ele><time>2026-04-12T08:20:51.815Z</time></trkpt><trkpt lat="42.3254733" lon="13.5946293"><ele>978.0000000000001</ele><time>2026-04-12T08:20:54.814Z</time></trkpt><trkpt lat="42.3254654" lon="13.5947273"><ele>978.0</ele><time>2026-04-12T08:20:57.815Z</time></trkpt><trkpt lat="42.3254888" lon="13.5948149"><ele>978.0</ele><time>2026-04-12T08:21:00.815Z</time></trkpt><trkpt lat="42.325501" lon="13.5949015"><ele>979.4285714285714</ele><time>2026-04-12T08:21:03.814Z</time></trkpt><trkpt lat="42.3255164" lon="13.594989"><ele>980.8571428571429</ele><time>2026-04-12T08:21:06.814Z</time></trkpt><trkpt lat="42.3255285" lon="13.5950749"><ele>982.2857142857143</ele><time>2026-04-12T08:21:09.815Z</time></trkpt><trkpt lat="42.3255321" lon="13.5951708"><ele>983.7142857142858</ele><time>2026-04-12T08:21:12.815Z</time></trkpt><trkpt lat="42.3255347" lon="13.5952808"><ele>985.1428571428571</ele><time>2026-04-12T08:21:16.815Z</time></trkpt><trkpt lat="42.3255158" lon="13.5953907"><ele>986.5714285714287</ele><time>2026-04-12T08:21:20.814Z</time></trkpt><trkpt lat="42.3254976" lon="13.5954837"><ele>988.0</ele><time>2026-04-12T08:21:23.815Z</time></trkpt><trkpt lat="42.3254788" lon="13.5955658"><ele>989.5714285714287</ele><time>2026-04-12T08:21:26.814Z</time></trkpt><trkpt lat="42.3254545" lon="13.5956552"><ele>991.1428571428571</ele><time>2026-04-12T08:21:29.814Z</time></trkpt><trkpt lat="42.325437" lon="13.5957616"><ele>992.7142857142858</ele><time>2026-04-12T08:21:32.814Z</time></trkpt><trkpt lat="42.3254214" lon="13.5958497"><ele>994.2857142857143</ele><time>2026-04-12T08:21:35.816Z</time></trkpt><trkpt lat="42.3254033" lon="13.5959331"><ele>995.8571428571429</ele><time>2026-04-12T08:21:38.815Z</time></trkpt><trkpt lat="42.3253857" lon="13.5960324"><ele>997.4285714285714</ele><time>2026-04-12T08:21:42.814Z</time></trkpt><trkpt lat="42.3253725" lon="13.5961198"><ele>999.0</ele><time>2026-04-12T08:21:45.815Z</time></trkpt><trkpt lat="42.3253587" lon="13.596206"><ele>1001.4285714285714</ele><time>2026-04-12T08:21:48.814Z</time></trkpt><trkpt lat="42.3253551" lon="13.5963019"><ele>1003.8571428571429</ele><time>2026-04-12T08:21:52.814Z</time></trkpt><trkpt lat="42.3253442" lon="13.5964101"><ele>1006.2857142857143</ele><time>2026-04-12T08:21:56.815Z</time></trkpt><trkpt lat="42.3253495" lon="13.5964974"><ele>1008.7142857142858</ele><time>2026-04-12T08:21:59.816Z</time></trkpt><trkpt lat="42.3253519" lon="13.596601"><ele>1011.1428571428571</ele><time>2026-04-12T08:22:03.814Z</time></trkpt><trkpt lat="42.3253577" lon="13.5966905"><ele>1013.5714285714287</ele><time>2026-04-12T08:22:07.814Z</time></trkpt><trkpt lat="42.3253504" lon="13.5967856"><ele>1016.0</ele><time>2026-04-12T08:22:11.815Z</time></trkpt><trkpt lat="42.3253472" lon="13.5969006"><ele>1016.0</ele><time>2026-04-12T08:22:15.814Z</time></trkpt><trkpt lat="42.3253132" lon="13.5969843"><ele>1016.0</ele><time>2026-04-12T08:22:18.815Z</time></trkpt><trkpt lat="42.325289" lon="13.5970851"><ele>1016.0</ele><time>2026-04-12T08:22:21.814Z</time></trkpt><trkpt lat="42.325269" lon="13.5971697"><ele>1016.0</ele><time>2026-04-12T08:22:25.815Z</time></trkpt><trkpt lat="42.325268" lon="13.5972677"><ele>1016.0</ele><time>2026-04-12T08:22:28.815Z</time></trkpt><trkpt lat="42.3252675" lon="13.5973572"><ele>1016.0</ele><time>2026-04-12T08:22:31.814Z</time></trkpt><trkpt lat="42.3252553" lon="13.597467"><ele>1016.0</ele><time>2026-04-12T08:22:35.816Z</time></trkpt><trkpt lat="42.3252295" lon="13.597561"><ele>1018.4285714285714</ele><time>2026-04-12T08:22:39.815Z</time></trkpt><trkpt lat="42.3252379" lon="13.5976694"><ele>1020.8571428571429</ele><time>2026-04-12T08:22:43.815Z</time></trkpt><trkpt lat="42.3252328" lon="13.5977683"><ele>1023.2857142857143</ele><time>2026-04-12T08:22:46.815Z</time></trkpt><trkpt lat="42.3252148" lon="13.5978572"><ele>1025.7142857142858</ele><time>2026-04-12T08:22:49.815Z</time></trkpt><trkpt lat="42.3252025" lon="13.5979552"><ele>1028.142857142857</ele><time>2026-04-12T08:22:52.814Z</time></trkpt><trkpt lat="42.3251997" lon="13.5980601"><ele>1030.5714285714287</ele><time>2026-04-12T08:22:56.814Z</time></trkpt><trkpt lat="42.3251987" lon="13.598161"><ele>1033.0</ele><time>2026-04-12T08:23:00.816Z</time></trkpt><trkpt lat="42.3251735" lon="13.5982551"><ele>1035.6666666666665</ele><time>2026-04-12T08:23:03.815Z</time></trkpt><trkpt lat="42.3251584" lon="13.5983393"><ele>1038.3333333333333</ele><time>2026-04-12T08:23:06.815Z</time></trkpt><trkpt lat="42.3251567" lon="13.5984368"><ele>1041.0</ele><time>2026-04-12T08:23:09.815Z</time></trkpt><trkpt lat="42.3251654" lon="13.5985456"><ele>1043.6666666666667</ele><time>2026-04-12T08:23:13.814Z</time></trkpt><trkpt lat="42.3251505" lon="13.5986363"><ele>1046.3333333333335</ele><time>2026-04-12T08:23:16.815Z</time></trkpt><trkpt lat="42.3251394" lon="13.5987517"><ele>1049.0</ele><time>2026-04-12T08:23:20.814Z</time></trkpt><trkpt lat="42.3251475" lon="13.598867"><ele>1051.7142857142858</ele><time>2026-04-12T08:23:24.814Z</time></trkpt><trkpt lat="42.3251355" lon="13.5989524"><ele>1054.4285714285716</ele><time>2026-04-12T08:23:28.814Z</time></trkpt><trkpt lat="42.3251398" lon="13.5990585"><ele>1057.1428571428573</ele><time>2026-04-12T08:23:32.813Z</time></trkpt><trkpt lat="42.3251577" lon="13.5991467"><ele>1059.857142857143</ele><time>2026-04-12T08:23:35.814Z</time></trkpt><trkpt lat="42.325169" lon="13.5992393"><ele>1062.5714285714287</ele><time>2026-04-12T08:23:38.814Z</time></trkpt><trkpt lat="42.3251686" lon="13.5993434"><ele>1065.2857142857144</ele><time>2026-04-12T08:23:42.813Z</time></trkpt><trkpt lat="42.3251453" lon="13.5994426"><ele>1068.0</ele><time>2026-04-12T08:23:47.813Z</time></trkpt><trkpt lat="42.3251121" lon="13.599532"><ele>1069.2857142857144</ele><time>2026-04-12T08:23:51.813Z</time></trkpt><trkpt lat="42.3250718" lon="13.5996113"><ele>1070.5714285714287</ele><time>2026-04-12T08:23:55.814Z</time></trkpt><trkpt lat="42.3250426" lon="13.5997016"><ele>1071.857142857143</ele><time>2026-04-12T08:24:01.814Z</time></trkpt><trkpt lat="42.3250128" lon="13.5997892"><ele>1073.1428571428573</ele><time>2026-04-12T08:24:57.814Z</time></trkpt><trkpt lat="42.3250034" lon="13.5998901"><ele>1074.4285714285716</ele><time>2026-04-12T08:25:02.813Z</time></trkpt><trkpt lat="42.3249733" lon="13.5999669"><ele>1075.7142857142858</ele><time>2026-04-12T08:25:09.813Z</time></trkpt><trkpt lat="42.3249833" lon="13.5998798"><ele>1077.0</ele><time>2026-04-12T08:25:20.813Z</time></trkpt><trkpt lat="42.3249972" lon="13.5997901"><ele>1077.0</ele><time>2026-04-12T08:26:07.814Z</time></trkpt><trkpt lat="42.3250232" lon="13.5996992"><ele>1077.0</ele><time>2026-04-12T08:26:12.815Z</time></trkpt><trkpt lat="42.3250739" lon="13.5995904"><ele>1077.0</ele><time>2026-04-12T08:26:23.814Z</time></trkpt><trkpt lat="42.3251079" lon="13.5995116"><ele>1077.0</ele><time>2026-04-12T08:26:25.813Z</time></trkpt><trkpt lat="42.3251499" lon="13.5994342"><ele>1077.0</ele><time>2026-04-12T08:26:29.814Z</time></trkpt><trkpt lat="42.3252134" lon="13.599442"><ele>1077.0</ele><time>2026-04-12T08:26:32.813Z</time></trkpt><trkpt lat="42.3252845" lon="13.5994676"><ele>1077.0</ele><time>2026-04-12T08:26:35.813Z</time></trkpt><trkpt lat="42.3253556" lon="13.5994777"><ele>1077.142857142857</ele><time>2026-04-12T08:26:38.814Z</time></trkpt><trkpt lat="42.32542" lon="13.5994809"><ele>1077.2857142857142</ele><time>2026-04-12T08:26:41.815Z</time></trkpt><trkpt lat="42.325485" lon="13.5994674"><ele>1077.4285714285716</ele><time>2026-04-12T08:26:44.814Z</time></trkpt><trkpt lat="42.3255471" lon="13.5994498"><ele>1077.5714285714284</ele><time>2026-04-12T08:26:47.813Z</time></trkpt><trkpt lat="42.3256094" lon="13.5994296"><ele>1077.7142857142858</ele><time>2026-04-12T08:26:50.813Z</time></trkpt><trkpt lat="42.3256692" lon="13.5994017"><ele>1077.857142857143</ele><time>2026-04-12T08:26:53.814Z</time></trkpt><trkpt lat="42.3257302" lon="13.5993753"><ele>1078.0</ele><time>2026-04-12T08:26:56.814Z</time></trkpt><trkpt lat="42.3258055" lon="13.5993347"><ele>1078.0</ele><time>2026-04-12T08:27:00.813Z</time></trkpt><trkpt lat="42.3258638" lon="13.5992886"><ele>1078.0</ele><time>2026-04-12T08:27:03.813Z</time></trkpt><trkpt lat="42.325926" lon="13.5992385"><ele>1078.0</ele><time>2026-04-12T08:27:06.814Z</time></trkpt><trkpt lat="42.3259898" lon="13.5991871"><ele>1078.0</ele><time>2026-04-12T08:27:09.814Z</time></trkpt><trkpt lat="42.3259156" lon="13.5992429"><ele>1078.0</ele><time>2026-04-12T08:27:20.813Z</time></trkpt><trkpt lat="42.3258416" lon="13.5993171"><ele>1078.0</ele><time>2026-04-12T08:27:23.814Z</time></trkpt><trkpt lat="42.3259149" lon="13.5992564"><ele>1078.0</ele><time>2026-04-12T08:27:31.813Z</time></trkpt><trkpt lat="42.3259825" lon="13.5991915"><ele>1078.0</ele><time>2026-04-12T08:27:34.812Z</time></trkpt><trkpt lat="42.3260332" lon="13.5991358"><ele>1078.0</ele><time>2026-04-12T08:27:37.813Z</time></trkpt><trkpt lat="42.3260898" lon="13.5990772"><ele>1078.0</ele><time>2026-04-12T08:28:25.812Z</time></trkpt><trkpt lat="42.326136" lon="13.599"><ele>1078.0</ele><time>2026-04-12T08:28:28.813Z</time></trkpt><trkpt lat="42.3261649" lon="13.5989196"><ele>1078.0</ele><time>2026-04-12T08:28:31.812Z</time></trkpt><trkpt lat="42.3261986" lon="13.5988352"><ele>1078.0</ele><time>2026-04-12T08:28:34.812Z</time></trkpt><trkpt lat="42.3262404" lon="13.5987388"><ele>1076.6</ele><time>2026-04-12T08:28:36.813Z</time></trkpt><trkpt lat="42.3263134" lon="13.5986371"><ele>1075.1999999999998</ele><time>2026-04-12T08:28:38.813Z</time></trkpt><trkpt lat="42.3263795" lon="13.5985324"><ele>1073.8</ele><time>2026-04-12T08:28:40.813Z</time></trkpt><trkpt lat="42.3264509" lon="13.598426"><ele>1072.3999999999999</ele><time>2026-04-12T08:28:42.813Z</time></trkpt><trkpt lat="42.3265179" lon="13.5983263"><ele>1071.0</ele><time>2026-04-12T08:28:44.812Z</time></trkpt><trkpt lat="42.3265696" lon="13.5982507"><ele>1071.0</ele><time>2026-04-12T08:28:46.812Z</time></trkpt><trkpt lat="42.3266167" lon="13.5981805"><ele>1071.0</ele><time>2026-04-12T08:28:48.812Z</time></trkpt><trkpt lat="42.326663" lon="13.5981033"><ele>1071.0</ele><time>2026-04-12T08:28:50.812Z</time></trkpt><trkpt lat="42.3267041" lon="13.5980341"><ele>1071.0</ele><time>2026-04-12T08:28:52.813Z</time></trkpt><trkpt lat="42.3267455" lon="13.5979586"><ele>1071.0</ele><time>2026-04-12T08:28:54.812Z</time></trkpt><trkpt lat="42.3268069" lon="13.5978848"><ele>1071.0</ele><time>2026-04-12T08:28:56.813Z</time></trkpt><trkpt lat="42.3268697" lon="13.5977917"><ele>1070.8</ele><time>2026-04-12T08:28:58.814Z</time></trkpt><trkpt lat="42.3269291" lon="13.5977053"><ele>1070.6</ele><time>2026-04-12T08:29:00.813Z</time></trkpt><trkpt lat="42.3269926" lon="13.5976098"><ele>1070.4</ele><time>2026-04-12T08:29:02.812Z</time></trkpt><trkpt lat="42.327069" lon="13.5975378"><ele>1070.2</ele><time>2026-04-12T08:29:04.813Z</time></trkpt><trkpt lat="42.327135" lon="13.5974487"><ele>1070.0</ele><time>2026-04-12T08:29:06.814Z</time></trkpt><trkpt lat="42.3271968" lon="13.5973624"><ele>1070.1666666666667</ele><time>2026-04-12T08:29:08.813Z</time></trkpt><trkpt lat="42.3272478" lon="13.5972702"><ele>1070.3333333333335</ele><time>2026-04-12T08:29:10.813Z</time></trkpt><trkpt lat="42.3273063" lon="13.5971906"><ele>1070.5</ele><time>2026-04-12T08:29:12.814Z</time></trkpt><trkpt lat="42.3273579" lon="13.5971159"><ele>1070.6666666666667</ele><time>2026-04-12T08:29:14.812Z</time></trkpt><trkpt lat="42.3274084" lon="13.5970384"><ele>1070.8333333333333</ele><time>2026-04-12T08:29:16.812Z</time></trkpt><trkpt lat="42.3274555" lon="13.5969535"><ele>1071.0</ele><time>2026-04-12T08:29:18.813Z</time></trkpt><trkpt lat="42.3275049" lon="13.5968549"><ele>1071.0</ele><time>2026-04-12T08:29:20.814Z</time></trkpt><trkpt lat="42.3275678" lon="13.5967725"><ele>1071.0</ele><time>2026-04-12T08:29:22.813Z</time></trkpt><trkpt lat="42.3276361" lon="13.5967169"><ele>1071.0</ele><time>2026-04-12T08:29:24.813Z</time></trkpt><trkpt lat="42.327707" lon="13.5966693"><ele>1071.0</ele><time>2026-04-12T08:29:26.813Z</time></trkpt><trkpt lat="42.3277845" lon="13.5966232"><ele>1071.0</ele><time>2026-04-12T08:29:28.813Z</time></trkpt><trkpt lat="42.3278778" lon="13.5965344"><ele>1071.0</ele><time>2026-04-12T08:29:30.813Z</time></trkpt><trkpt lat="42.327955" lon="13.596437"><ele>1071.0</ele><time>2026-04-12T08:29:32.812Z</time></trkpt><trkpt lat="42.328024" lon="13.5963388"><ele>1071.0</ele><time>2026-04-12T08:29:34.813Z</time></trkpt><trkpt lat="42.3281101" lon="13.5962501"><ele>1071.0</ele><time>2026-04-12T08:29:36.812Z</time></trkpt><trkpt lat="42.3282042" lon="13.5961588"><ele>1071.0</ele><time>2026-04-12T08:29:38.812Z</time></trkpt><trkpt lat="42.3283008" lon="13.5960808"><ele>1071.0</ele><time>2026-04-12T08:29:40.812Z</time></trkpt><trkpt lat="42.3283888" lon="13.596011"><ele>1070.0</ele><time>2026-04-12T08:29:42.813Z</time></trkpt><trkpt lat="42.328462" lon="13.5959431"><ele>1069.0</ele><time>2026-04-12T08:29:44.813Z</time></trkpt><trkpt lat="42.3285343" lon="13.5958542"><ele>1068.0</ele><time>2026-04-12T08:29:46.814Z</time></trkpt><trkpt lat="42.3286214" lon="13.595778"><ele>1067.0</ele><time>2026-04-12T08:29:48.813Z</time></trkpt><trkpt lat="42.3287181" lon="13.5956918"><ele>1066.0</ele><time>2026-04-12T08:29:50.813Z</time></trkpt><trkpt lat="42.3288146" lon="13.5956138"><ele>1064.8333333333333</ele><time>2026-04-12T08:29:52.813Z</time></trkpt><trkpt lat="42.3289232" lon="13.5955436"><ele>1063.6666666666665</ele><time>2026-04-12T08:29:54.814Z</time></trkpt><trkpt lat="42.3289875" lon="13.5955158"><ele>1062.5</ele><time>2026-04-12T08:29:55.813Z</time></trkpt><trkpt lat="42.3290499" lon="13.5954881"><ele>1061.3333333333333</ele><time>2026-04-12T08:29:56.813Z</time></trkpt><trkpt lat="42.3291122" lon="13.5954541"><ele>1060.1666666666667</ele><time>2026-04-12T08:29:57.812Z</time></trkpt><trkpt lat="42.3292172" lon="13.5953818"><ele>1059.0</ele><time>2026-04-12T08:29:59.813Z</time></trkpt><trkpt lat="42.3292961" lon="13.5953059"><ele>1059.0</ele><time>2026-04-12T08:30:01.812Z</time></trkpt><trkpt lat="42.3293566" lon="13.5952153"><ele>1059.0</ele><time>2026-04-12T08:30:03.812Z</time></trkpt><trkpt lat="42.32942" lon="13.5951104"><ele>1059.0</ele><time>2026-04-12T08:30:05.813Z</time></trkpt><trkpt lat="42.3295022" lon="13.5950484"><ele>1059.0</ele><time>2026-04-12T08:30:07.812Z</time></trkpt><trkpt lat="42.3295977" lon="13.5950357"><ele>1059.0</ele><time>2026-04-12T08:30:09.812Z</time></trkpt><trkpt lat="42.3296841" lon="13.5950583"><ele>1058.8333333333333</ele><time>2026-04-12T08:30:11.812Z</time></trkpt><trkpt lat="42.3297753" lon="13.5950063"><ele>1058.6666666666667</ele><time>2026-04-12T08:30:13.812Z</time></trkpt><trkpt lat="42.3298762" lon="13.5949248"><ele>1058.5</ele><time>2026-04-12T08:30:15.812Z</time></trkpt><trkpt lat="42.3299403" lon="13.5949122"><ele>1058.3333333333335</ele><time>2026-04-12T08:30:16.812Z</time></trkpt><trkpt lat="42.3300214" lon="13.5948784"><ele>1058.1666666666667</ele><time>2026-04-12T08:30:17.812Z</time></trkpt><trkpt lat="42.3300845" lon="13.594852"><ele>1058.0</ele><time>2026-04-12T08:30:18.813Z</time></trkpt><trkpt lat="42.3301607" lon="13.594821"><ele>1058.0</ele><time>2026-04-12T08:30:19.812Z</time></trkpt><trkpt lat="42.3302326" lon="13.5947759"><ele>1058.0</ele><time>2026-04-12T08:30:20.812Z</time></trkpt><trkpt lat="42.3303065" lon="13.5947303"><ele>1058.0</ele><time>2026-04-12T08:30:21.813Z</time></trkpt><trkpt lat="42.3304315" lon="13.5946445"><ele>1058.0</ele><time>2026-04-12T08:30:23.813Z</time></trkpt><trkpt lat="42.3305496" lon="13.5945638"><ele>1058.0</ele><time>2026-04-12T08:30:25.813Z</time></trkpt><trkpt lat="42.3306097" lon="13.5945354"><ele>1055.5</ele><time>2026-04-12T08:30:26.813Z</time></trkpt><trkpt lat="42.3306799" lon="13.5945082"><ele>1053.0</ele><time>2026-04-12T08:30:27.814Z</time></trkpt><trkpt lat="42.3307383" lon="13.5944624"><ele>1050.5</ele><time>2026-04-12T08:30:28.813Z</time></trkpt><trkpt lat="42.3308042" lon="13.5944296"><ele>1048.0</ele><time>2026-04-12T08:30:29.813Z</time></trkpt><trkpt lat="42.3308798" lon="13.5944032"><ele>1045.5</ele><time>2026-04-12T08:30:30.813Z</time></trkpt><trkpt lat="42.3309574" lon="13.5943753"><ele>1043.0</ele><time>2026-04-12T08:30:31.812Z</time></trkpt><trkpt lat="42.3310599" lon="13.5943048"><ele>1043.0</ele><time>2026-04-12T08:30:33.814Z</time></trkpt><trkpt lat="42.3311272" lon="13.5942669"><ele>1043.0</ele><time>2026-04-12T08:30:35.813Z</time></trkpt><trkpt lat="42.3311946" lon="13.5941942"><ele>1043.0</ele><time>2026-04-12T08:30:37.813Z</time></trkpt><trkpt lat="42.3312736" lon="13.5941613"><ele>1043.0</ele><time>2026-04-12T08:30:40.814Z</time></trkpt><trkpt lat="42.3313504" lon="13.5941739"><ele>1043.0</ele><time>2026-04-12T08:30:43.813Z</time></trkpt><trkpt lat="42.331378" lon="13.5942544"><ele>1043.0</ele><time>2026-04-12T08:30:45.813Z</time></trkpt><trkpt lat="42.331378" lon="13.5943621"><ele>1042.8333333333335</ele><time>2026-04-12T08:30:48.813Z</time></trkpt><trkpt lat="42.3314287" lon="13.5944376"><ele>1042.6666666666667</ele><time>2026-04-12T08:30:52.813Z</time></trkpt><trkpt lat="42.3315223" lon="13.5944382"><ele>1042.5</ele><time>2026-04-12T08:30:55.812Z</time></trkpt><trkpt lat="42.3315886" lon="13.5944714"><ele>1042.3333333333333</ele><time>2026-04-12T08:30:57.813Z</time></trkpt><trkpt lat="42.3316539" lon="13.5945101"><ele>1042.1666666666665</ele><time>2026-04-12T08:30:59.812Z</time></trkpt><trkpt lat="42.3316377" lon="13.5946"><ele>1042.0</ele><time>2026-04-12T08:31:15.812Z</time></trkpt><trkpt lat="42.3317226" lon="13.5945838"><ele>1042.0</ele><time>2026-04-12T08:31:19.813Z</time></trkpt><trkpt lat="42.331777" lon="13.5944934"><ele>1042.0</ele><time>2026-04-12T08:31:21.812Z</time></trkpt><trkpt lat="42.331838" lon="13.5943965"><ele>1042.0</ele><time>2026-04-12T08:31:23.814Z</time></trkpt><trkpt lat="42.3319088" lon="13.5943006"><ele>1042.0</ele><time>2026-04-12T08:31:25.814Z</time></trkpt><trkpt lat="42.3319655" lon="13.594167"><ele>1042.0</ele><time>2026-04-12T08:31:27.813Z</time></trkpt><trkpt lat="42.3320141" lon="13.5940352"><ele>1042.0</ele><time>2026-04-12T08:31:29.813Z</time></trkpt><trkpt lat="42.332064" lon="13.5939422"><ele>1042.0</ele><time>2026-04-12T08:31:31.813Z</time></trkpt><trkpt lat="42.3321336" lon="13.5939391"><ele>1042.0</ele><time>2026-04-12T08:31:33.813Z</time></trkpt><trkpt lat="42.3321571" lon="13.5940268"><ele>1042.0</ele><time>2026-04-12T08:31:35.812Z</time></trkpt><trkpt lat="42.3321223" lon="13.5941011"><ele>1042.0</ele><time>2026-04-12T08:31:37.813Z</time></trkpt><trkpt lat="42.3320884" lon="13.5941801"><ele>1042.0</ele><time>2026-04-12T08:31:39.812Z</time></trkpt><trkpt lat="42.3320288" lon="13.5942724"><ele>1042.0</ele><time>2026-04-12T08:31:41.812Z</time></trkpt><trkpt lat="42.3319383" lon="13.594308"><ele>1042.0</ele><time>2026-04-12T08:31:43.813Z</time></trkpt><trkpt lat="42.331876" lon="13.594363"><ele>1042.0</ele><time>2026-04-12T08:31:45.813Z</time></trkpt><trkpt lat="42.3318182" lon="13.5944533"><ele>1042.0</ele><time>2026-04-12T08:31:47.812Z</time></trkpt><trkpt lat="42.3318429" lon="13.5945405"><ele>1042.0</ele><time>2026-04-12T08:31:49.814Z</time></trkpt><trkpt lat="42.3318646" lon="13.5944584"><ele>1042.0</ele><time>2026-04-12T08:31:53.812Z</time></trkpt><trkpt lat="42.3318823" lon="13.5943676"><ele>1042.0</ele><time>2026-04-12T08:31:55.813Z</time></trkpt><trkpt lat="42.3319332" lon="13.5942896"><ele>1042.0</ele><time>2026-04-12T08:31:57.813Z</time></trkpt><trkpt lat="42.3319725" lon="13.5942115"><ele>1042.0</ele><time>2026-04-12T08:31:59.814Z</time></trkpt><trkpt lat="42.3319968" lon="13.5940928"><ele>1042.0</ele><time>2026-04-12T08:32:02.813Z</time></trkpt><trkpt lat="42.3320311" lon="13.5939868"><ele>1042.0</ele><time>2026-04-12T08:32:05.811Z</time></trkpt><trkpt lat="42.3320915" lon="13.5939121"><ele>1042.0</ele><time>2026-04-12T08:32:08.811Z</time></trkpt><trkpt lat="42.3321498" lon="13.5939495"><ele>1042.0</ele><time>2026-04-12T08:32:13.812Z</time></trkpt><trkpt lat="42.3321718" lon="13.5940314"><ele>1042.0</ele><time>2026-04-12T08:32:16.812Z</time></trkpt><trkpt lat="42.3322163" lon="13.5941133"><ele>1043.0</ele><time>2026-04-12T08:32:18.812Z</time></trkpt><trkpt lat="42.3322796" lon="13.594164"><ele>1044.0</ele><time>2026-04-12T08:32:20.812Z</time></trkpt><trkpt lat="42.3323303" lon="13.5942263"><ele>1045.0</ele><time>2026-04-12T08:32:22.812Z</time></trkpt><trkpt lat="42.3323915" lon="13.5943175"><ele>1046.0</ele><time>2026-04-12T08:32:25.812Z</time></trkpt><trkpt lat="42.3324598" lon="13.5944066"><ele>1047.0</ele><time>2026-04-12T08:32:28.811Z</time></trkpt><trkpt lat="42.3325172" lon="13.5944929"><ele>1048.0</ele><time>2026-04-12T08:32:31.811Z</time></trkpt><trkpt lat="42.332578" lon="13.5945876"><ele>1048.1666666666665</ele><time>2026-04-12T08:32:34.811Z</time></trkpt><trkpt lat="42.3326315" lon="13.5946732"><ele>1048.3333333333333</ele><time>2026-04-12T08:32:37.812Z</time></trkpt><trkpt lat="42.3326794" lon="13.5947585"><ele>1048.5</ele><time>2026-04-12T08:32:40.811Z</time></trkpt><trkpt lat="42.3327281" lon="13.5948358"><ele>1048.6666666666667</ele><time>2026-04-12T08:32:43.811Z</time></trkpt><trkpt lat="42.3327829" lon="13.5949278"><ele>1048.8333333333335</ele><time>2026-04-12T08:32:46.811Z</time></trkpt><trkpt lat="42.3328303" lon="13.5950266"><ele>1049.0</ele><time>2026-04-12T08:32:49.812Z</time></trkpt><trkpt lat="42.3328684" lon="13.5951095"><ele>1049.0</ele><time>2026-04-12T08:32:52.812Z</time></trkpt><trkpt lat="42.3329186" lon="13.5951896"><ele>1049.0</ele><time>2026-04-12T08:32:55.811Z</time></trkpt><trkpt lat="42.3329709" lon="13.5952784"><ele>1049.0</ele><time>2026-04-12T08:32:58.811Z</time></trkpt><trkpt lat="42.3330205" lon="13.5953587"><ele>1049.0</ele><time>2026-04-12T08:33:01.813Z</time></trkpt><trkpt lat="42.3330601" lon="13.5954413"><ele>1049.0</ele><time>2026-04-12T08:33:04.811Z</time></trkpt><trkpt lat="42.3331015" lon="13.5955151"><ele>1049.0</ele><time>2026-04-12T08:33:07.812Z</time></trkpt><trkpt lat="42.333141" lon="13.5956061"><ele>1051.3333333333335</ele><time>2026-04-12T08:33:10.812Z</time></trkpt><trkpt lat="42.3331833" lon="13.5956988"><ele>1053.6666666666667</ele><time>2026-04-12T08:33:13.812Z</time></trkpt><trkpt lat="42.3332275" lon="13.595792"><ele>1056.0</ele><time>2026-04-12T08:33:16.812Z</time></trkpt><trkpt lat="42.3332687" lon="13.5958705"><ele>1058.3333333333333</ele><time>2026-04-12T08:33:19.811Z</time></trkpt><trkpt lat="42.3333017" lon="13.595957"><ele>1060.6666666666665</ele><time>2026-04-12T08:33:22.813Z</time></trkpt><trkpt lat="42.3333331" lon="13.5960401"><ele>1063.0</ele><time>2026-04-12T08:33:25.811Z</time></trkpt><trkpt lat="42.3333666" lon="13.5961446"><ele>1064.0</ele><time>2026-04-12T08:33:29.812Z</time></trkpt><trkpt lat="42.3334017" lon="13.5962263"><ele>1065.0</ele><time>2026-04-12T08:33:32.811Z</time></trkpt><trkpt lat="42.3334323" lon="13.5963072"><ele>1066.0</ele><time>2026-04-12T08:33:35.812Z</time></trkpt><trkpt lat="42.3334799" lon="13.5963921"><ele>1067.0</ele><time>2026-04-12T08:33:39.812Z</time></trkpt><trkpt lat="42.3335114" lon="13.5964939"><ele>1068.0</ele><time>2026-04-12T08:33:43.812Z</time></trkpt><trkpt lat="42.3335362" lon="13.596601"><ele>1069.0</ele><time>2026-04-12T08:33:47.811Z</time></trkpt><trkpt lat="42.3335567" lon="13.5967"><ele>1069.0</ele><time>2026-04-12T08:33:51.811Z</time></trkpt><trkpt lat="42.3335918" lon="13.596801"><ele>1069.0</ele><time>2026-04-12T08:33:55.812Z</time></trkpt><trkpt lat="42.333613" lon="13.5969023"><ele>1069.0</ele><time>2026-04-12T08:33:59.812Z</time></trkpt><trkpt lat="42.333647" lon="13.5969934"><ele>1069.0</ele><time>2026-04-12T08:34:03.811Z</time></trkpt><trkpt lat="42.3336717" lon="13.5970904"><ele>1069.0</ele><time>2026-04-12T08:34:07.812Z</time></trkpt><trkpt lat="42.3336986" lon="13.597188"><ele>1069.0</ele><time>2026-04-12T08:34:11.812Z</time></trkpt><trkpt lat="42.3337159" lon="13.5972751"><ele>1070.7142857142858</ele><time>2026-04-12T08:34:14.812Z</time></trkpt><trkpt lat="42.3337389" lon="13.5973769"><ele>1072.4285714285716</ele><time>2026-04-12T08:34:18.812Z</time></trkpt><trkpt lat="42.333773" lon="13.5974566"><ele>1074.142857142857</ele><time>2026-04-12T08:34:23.811Z</time></trkpt><trkpt lat="42.3337692" lon="13.5975423"><ele>1075.857142857143</ele><time>2026-04-12T08:34:44.811Z</time></trkpt><trkpt lat="42.3338048" lon="13.5976131"><ele>1077.5714285714284</ele><time>2026-04-12T08:34:47.812Z</time></trkpt><trkpt lat="42.3338675" lon="13.5976469"><ele>1079.2857142857142</ele><time>2026-04-12T08:34:50.811Z</time></trkpt><trkpt lat="42.3339316" lon="13.5976586"><ele>1081.0</ele><time>2026-04-12T08:34:53.813Z</time></trkpt><trkpt lat="42.3339977" lon="13.597659"><ele>1083.142857142857</ele><time>2026-04-12T08:34:56.812Z</time></trkpt><trkpt lat="42.3340713" lon="13.597669"><ele>1085.2857142857142</ele><time>2026-04-12T08:35:00.811Z</time></trkpt><trkpt lat="42.3341469" lon="13.5976699"><ele>1087.4285714285716</ele><time>2026-04-12T08:35:04.812Z</time></trkpt><trkpt lat="42.3342221" lon="13.5976805"><ele>1089.5714285714284</ele><time>2026-04-12T08:35:08.811Z</time></trkpt><trkpt lat="42.3342527" lon="13.5977758"><ele>1091.7142857142858</ele><time>2026-04-12T08:35:13.812Z</time></trkpt><trkpt lat="42.3342781" lon="13.5978617"><ele>1093.857142857143</ele><time>2026-04-12T08:35:33.811Z</time></trkpt><trkpt lat="42.3342325" lon="13.5979435"><ele>1096.0</ele><time>2026-04-12T08:40:27.811Z</time></trkpt><trkpt lat="42.3341713" lon="13.5979936"><ele>1099.1428571428573</ele><time>2026-04-12T08:40:31.81Z</time></trkpt><trkpt lat="42.334119" lon="13.5980718"><ele>1102.2857142857142</ele><time>2026-04-12T08:40:35.811Z</time></trkpt><trkpt lat="42.334099" lon="13.5981588"><ele>1105.4285714285716</ele><time>2026-04-12T08:40:39.81Z</time></trkpt><trkpt lat="42.3341132" lon="13.5982626"><ele>1108.5714285714287</ele><time>2026-04-12T08:40:44.81Z</time></trkpt><trkpt lat="42.3340757" lon="13.5983557"><ele>1111.7142857142858</ele><time>2026-04-12T08:40:48.809Z</time></trkpt><trkpt lat="42.3340393" lon="13.5984298"><ele>1114.857142857143</ele><time>2026-04-12T08:40:52.809Z</time></trkpt><trkpt lat="42.3339898" lon="13.5984841"><ele>1118.0</ele><time>2026-04-12T08:41:08.81Z</time></trkpt><trkpt lat="42.3339496" lon="13.5985709"><ele>1118.0</ele><time>2026-04-12T08:41:13.809Z</time></trkpt><trkpt lat="42.3339979" lon="13.5986362"><ele>1118.0</ele><time>2026-04-12T08:41:59.809Z</time></trkpt><trkpt lat="42.3340195" lon="13.59872"><ele>1118.0</ele><time>2026-04-12T08:42:11.81Z</time></trkpt><trkpt lat="42.3340136" lon="13.5988741"><ele>1118.0</ele><time>2026-04-12T08:42:41.81Z</time></trkpt><trkpt lat="42.3339652" lon="13.5989359"><ele>1118.0</ele><time>2026-04-12T08:42:52.809Z</time></trkpt><trkpt lat="42.3338875" lon="13.5989018"><ele>1118.0</ele><time>2026-04-12T08:43:05.81Z</time></trkpt><trkpt lat="42.3338481" lon="13.5989764"><ele>1118.0</ele><time>2026-04-12T08:43:11.81Z</time></trkpt><trkpt lat="42.3338859" lon="13.5990621"><ele>1118.0</ele><time>2026-04-12T08:43:14.809Z</time></trkpt><trkpt lat="42.3339048" lon="13.5991477"><ele>1118.0</ele><time>2026-04-12T08:43:20.811Z</time></trkpt><trkpt lat="42.3338692" lon="13.5992265"><ele>1118.0</ele><time>2026-04-12T08:43:25.81Z</time></trkpt><trkpt lat="42.3339364" lon="13.5992084"><ele>1118.0</ele><time>2026-04-12T08:44:33.808Z</time></trkpt><trkpt lat="42.3339468" lon="13.5993155"><ele>1118.0</ele><time>2026-04-12T08:44:40.808Z</time></trkpt><trkpt lat="42.3339988" lon="13.5993773"><ele>1118.0</ele><time>2026-04-12T08:44:43.809Z</time></trkpt><trkpt lat="42.3339268" lon="13.5993983"><ele>1118.0</ele><time>2026-04-12T08:44:55.809Z</time></trkpt><trkpt lat="42.333873" lon="13.5994482"><ele>1118.0</ele><time>2026-04-12T08:45:03.808Z</time></trkpt><trkpt lat="42.3338204" lon="13.5995303"><ele>1118.0</ele><time>2026-04-12T08:45:14.808Z</time></trkpt><trkpt lat="42.3337613" lon="13.5995735"><ele>1118.0</ele><time>2026-04-12T08:45:20.808Z</time></trkpt><trkpt lat="42.3337047" lon="13.5996316"><ele>1118.0</ele><time>2026-04-12T08:45:27.81Z</time></trkpt><trkpt lat="42.333658" lon="13.5999795"><ele>1121.142857142857</ele><time>2026-04-12T08:45:32.809Z</time></trkpt><trkpt lat="42.3335975" lon="13.6000311"><ele>1124.2857142857144</ele><time>2026-04-12T08:45:38.809Z</time></trkpt><trkpt lat="42.3336538" lon="13.6000794"><ele>1127.4285714285716</ele><time>2026-04-12T08:45:55.808Z</time></trkpt><trkpt lat="42.3337244" lon="13.6001102"><ele>1130.5714285714287</ele><time>2026-04-12T08:46:20.808Z</time></trkpt><trkpt lat="42.3337482" lon="13.6001898"><ele>1133.7142857142858</ele><time>2026-04-12T08:46:27.81Z</time></trkpt><trkpt lat="42.3338133" lon="13.6002234"><ele>1136.857142857143</ele><time>2026-04-12T08:46:56.808Z</time></trkpt><trkpt lat="42.3338792" lon="13.6002431"><ele>1140.0</ele><time>2026-04-12T08:47:02.808Z</time></trkpt><trkpt lat="42.3339317" lon="13.6002982"><ele>1143.8333333333333</ele><time>2026-04-12T08:47:57.808Z</time></trkpt><trkpt lat="42.3339011" lon="13.6004043"><ele>1147.6666666666667</ele><time>2026-04-12T08:48:02.807Z</time></trkpt><trkpt lat="42.3338511" lon="13.6004598"><ele>1151.5</ele><time>2026-04-12T08:48:06.807Z</time></trkpt><trkpt lat="42.3337779" lon="13.6005464"><ele>1155.3333333333335</ele><time>2026-04-12T08:48:10.808Z</time></trkpt><trkpt lat="42.3337163" lon="13.6005841"><ele>1159.1666666666667</ele><time>2026-04-12T08:48:23.807Z</time></trkpt><trkpt lat="42.3336304" lon="13.6006081"><ele>1163.0</ele><time>2026-04-12T08:48:28.808Z</time></trkpt><trkpt lat="42.3335671" lon="13.6006378"><ele>1163.0</ele><time>2026-04-12T08:48:31.808Z</time></trkpt><trkpt lat="42.3335359" lon="13.6007254"><ele>1163.0</ele><time>2026-04-12T08:48:35.808Z</time></trkpt><trkpt lat="42.3335864" lon="13.6007782"><ele>1163.0</ele><time>2026-04-12T08:48:38.807Z</time></trkpt><trkpt lat="42.3335563" lon="13.6008581"><ele>1163.0</ele><time>2026-04-12T08:49:06.807Z</time></trkpt><trkpt lat="42.3335252" lon="13.6009334"><ele>1163.0</ele><time>2026-04-12T08:49:33.808Z</time></trkpt><trkpt lat="42.3334945" lon="13.6010081"><ele>1163.0</ele><time>2026-04-12T08:49:48.809Z</time></trkpt><trkpt lat="42.3334504" lon="13.6010728"><ele>1163.0</ele><time>2026-04-12T08:49:58.807Z</time></trkpt><trkpt lat="42.333449" lon="13.6011703"><ele>1164.857142857143</ele><time>2026-04-12T08:50:17.807Z</time></trkpt><trkpt lat="42.3334415" lon="13.6012717"><ele>1166.7142857142858</ele><time>2026-04-12T08:50:29.807Z</time></trkpt><trkpt lat="42.3334606" lon="13.6013725"><ele>1168.5714285714284</ele><time>2026-04-12T08:50:32.807Z</time></trkpt><trkpt lat="42.3334828" lon="13.6014722"><ele>1170.4285714285716</ele><time>2026-04-12T08:50:35.806Z</time></trkpt><trkpt lat="42.3335274" lon="13.6015469"><ele>1172.2857142857142</ele><time>2026-04-12T08:50:38.806Z</time></trkpt><trkpt lat="42.3335584" lon="13.6016302"><ele>1174.142857142857</ele><time>2026-04-12T08:50:41.806Z</time></trkpt><trkpt lat="42.3336291" lon="13.6016452"><ele>1176.0</ele><time>2026-04-12T08:50:44.806Z</time></trkpt><trkpt lat="42.3337044" lon="13.6016384"><ele>1176.0</ele><time>2026-04-12T08:50:47.807Z</time></trkpt><trkpt lat="42.3337729" lon="13.6016443"><ele>1176.0</ele><time>2026-04-12T08:50:50.806Z</time></trkpt><trkpt lat="42.3338527" lon="13.6016486"><ele>1176.0</ele><time>2026-04-12T08:50:54.807Z</time></trkpt><trkpt lat="42.3339303" lon="13.6016677"><ele>1176.0</ele><time>2026-04-12T08:50:58.807Z</time></trkpt><trkpt lat="42.333969" lon="13.6017412"><ele>1176.0</ele><time>2026-04-12T08:51:01.807Z</time></trkpt><trkpt lat="42.3340434" lon="13.6018042"><ele>1176.0</ele><time>2026-04-12T08:51:05.807Z</time></trkpt><trkpt lat="42.3341172" lon="13.6018562"><ele>1177.1666666666667</ele><time>2026-04-12T08:51:08.807Z</time></trkpt><trkpt lat="42.3341869" lon="13.6019313"><ele>1178.3333333333333</ele><time>2026-04-12T08:51:11.807Z</time></trkpt><trkpt lat="42.3342563" lon="13.6020044"><ele>1179.5</ele><time>2026-04-12T08:51:14.806Z</time></trkpt><trkpt lat="42.3343279" lon="13.6020496"><ele>1180.6666666666665</ele><time>2026-04-12T08:51:17.806Z</time></trkpt><trkpt lat="42.33441" lon="13.6020478"><ele>1181.8333333333333</ele><time>2026-04-12T08:51:20.807Z</time></trkpt><trkpt lat="42.3344777" lon="13.6020313"><ele>1183.0</ele><time>2026-04-12T08:51:22.807Z</time></trkpt><trkpt lat="42.3345464" lon="13.6019942"><ele>1183.4285714285713</ele><time>2026-04-12T08:51:24.807Z</time></trkpt><trkpt lat="42.3346037" lon="13.601934"><ele>1183.857142857143</ele><time>2026-04-12T08:51:26.806Z</time></trkpt><trkpt lat="42.3346611" lon="13.601877"><ele>1184.2857142857142</ele><time>2026-04-12T08:51:28.806Z</time></trkpt><trkpt lat="42.33472" lon="13.6018254"><ele>1184.7142857142858</ele><time>2026-04-12T08:51:30.807Z</time></trkpt><trkpt lat="42.3347803" lon="13.6017743"><ele>1185.142857142857</ele><time>2026-04-12T08:51:32.807Z</time></trkpt><trkpt lat="42.3348379" lon="13.6017095"><ele>1185.5714285714284</ele><time>2026-04-12T08:51:34.806Z</time></trkpt><trkpt lat="42.3348972" lon="13.6016522"><ele>1186.0</ele><time>2026-04-12T08:51:36.806Z</time></trkpt><trkpt lat="42.3349425" lon="13.6015897"><ele>1186.3333333333333</ele><time>2026-04-12T08:51:38.806Z</time></trkpt><trkpt lat="42.3350314" lon="13.6015275"><ele>1186.6666666666665</ele><time>2026-04-12T08:51:41.807Z</time></trkpt><trkpt lat="42.3351007" lon="13.6014838"><ele>1187.0</ele><time>2026-04-12T08:51:43.806Z</time></trkpt><trkpt lat="42.3351757" lon="13.6014501"><ele>1187.3333333333333</ele><time>2026-04-12T08:51:46.807Z</time></trkpt><trkpt lat="42.3352396" lon="13.6014215"><ele>1187.6666666666667</ele><time>2026-04-12T08:51:49.807Z</time></trkpt><trkpt lat="42.3353015" lon="13.6013757"><ele>1188.0</ele><time>2026-04-12T08:51:52.806Z</time></trkpt><trkpt lat="42.3353596" lon="13.6013348"><ele>1188.0</ele><time>2026-04-12T08:51:55.806Z</time></trkpt><trkpt lat="42.3354174" lon="13.6012886"><ele>1188.0</ele><time>2026-04-12T08:51:58.807Z</time></trkpt><trkpt lat="42.3354658" lon="13.6012274"><ele>1188.0</ele><time>2026-04-12T08:52:01.807Z</time></trkpt><trkpt lat="42.3355124" lon="13.6011677"><ele>1188.0</ele><time>2026-04-12T08:52:04.807Z</time></trkpt><trkpt lat="42.3355712" lon="13.6011082"><ele>1188.0</ele><time>2026-04-12T08:52:08.807Z</time></trkpt><trkpt lat="42.3356246" lon="13.6010435"><ele>1188.0</ele><time>2026-04-12T08:52:12.808Z</time></trkpt><trkpt lat="42.3356757" lon="13.6009801"><ele>1188.0</ele><time>2026-04-12T08:52:16.806Z</time></trkpt><trkpt lat="42.3357381" lon="13.6009203"><ele>1190.1666666666667</ele><time>2026-04-12T08:52:20.808Z</time></trkpt><trkpt lat="42.3357952" lon="13.6008608"><ele>1192.3333333333333</ele><time>2026-04-12T08:52:26.806Z</time></trkpt><trkpt lat="42.3358525" lon="13.6008027"><ele>1194.5</ele><time>2026-04-12T08:52:31.806Z</time></trkpt><trkpt lat="42.3359033" lon="13.6007243"><ele>1196.6666666666665</ele><time>2026-04-12T08:52:35.807Z</time></trkpt><trkpt lat="42.3359373" lon="13.600634"><ele>1198.8333333333333</ele><time>2026-04-12T08:52:39.806Z</time></trkpt><trkpt lat="42.3359657" lon="13.6005296"><ele>1201.0</ele><time>2026-04-12T08:52:43.807Z</time></trkpt><trkpt lat="42.3360148" lon="13.600446"><ele>1201.0000000000002</ele><time>2026-04-12T08:52:47.806Z</time></trkpt><trkpt lat="42.3360688" lon="13.6003673"><ele>1201.0</ele><time>2026-04-12T08:52:51.806Z</time></trkpt><trkpt lat="42.3361287" lon="13.6003023"><ele>1201.0</ele><time>2026-04-12T08:52:55.806Z</time></trkpt><trkpt lat="42.3361875" lon="13.6002425"><ele>1201.0</ele><time>2026-04-12T08:52:59.807Z</time></trkpt><trkpt lat="42.3362524" lon="13.6002104"><ele>1201.0</ele><time>2026-04-12T08:53:03.806Z</time></trkpt><trkpt lat="42.3363164" lon="13.6001864"><ele>1201.0000000000002</ele><time>2026-04-12T08:53:06.807Z</time></trkpt><trkpt lat="42.3363773" lon="13.6001228"><ele>1201.0</ele><time>2026-04-12T08:53:09.806Z</time></trkpt><trkpt lat="42.3364444" lon="13.6000559"><ele>1204.2857142857144</ele><time>2026-04-12T08:53:12.808Z</time></trkpt><trkpt lat="42.3364996" lon="13.5999948"><ele>1207.5714285714287</ele><time>2026-04-12T08:53:15.807Z</time></trkpt><trkpt lat="42.3365534" lon="13.5999475"><ele>1210.857142857143</ele><time>2026-04-12T08:53:18.806Z</time></trkpt><trkpt lat="42.3366302" lon="13.5999106"><ele>1214.1428571428573</ele><time>2026-04-12T08:53:22.807Z</time></trkpt><trkpt lat="42.3367032" lon="13.5998801"><ele>1217.4285714285716</ele><time>2026-04-12T08:53:26.807Z</time></trkpt><trkpt lat="42.3367734" lon="13.5998354"><ele>1220.7142857142858</ele><time>2026-04-12T08:53:31.806Z</time></trkpt><trkpt lat="42.3368345" lon="13.5997874"><ele>1224.0</ele><time>2026-04-12T08:53:38.807Z</time></trkpt><trkpt lat="42.3369016" lon="13.5997377"><ele>1224.0</ele><time>2026-04-12T08:53:44.807Z</time></trkpt><trkpt lat="42.3369587" lon="13.5997012"><ele>1224.0</ele><time>2026-04-12T08:53:49.808Z</time></trkpt><trkpt lat="42.3370205" lon="13.5996701"><ele>1224.0</ele><time>2026-04-12T08:54:00.806Z</time></trkpt><trkpt lat="42.3369619" lon="13.5997161"><ele>1224.0</ele><time>2026-04-12T08:54:05.806Z</time></trkpt><trkpt lat="42.3369083" lon="13.5997637"><ele>1224.0</ele><time>2026-04-12T08:54:07.806Z</time></trkpt><trkpt lat="42.3368478" lon="13.5998075"><ele>1224.0</ele><time>2026-04-12T08:54:12.805Z</time></trkpt><trkpt lat="42.3367749" lon="13.5998569"><ele>1224.0</ele><time>2026-04-12T08:54:15.805Z</time></trkpt><trkpt lat="42.3367066" lon="13.5998902"><ele>1224.0</ele><time>2026-04-12T08:54:18.806Z</time></trkpt><trkpt lat="42.3366414" lon="13.5999237"><ele>1224.0</ele><time>2026-04-12T08:54:22.805Z</time></trkpt><trkpt lat="42.336572" lon="13.5999631"><ele>1224.0</ele><time>2026-04-12T08:54:25.806Z</time></trkpt><trkpt lat="42.3365065" lon="13.6000123"><ele>1224.0</ele><time>2026-04-12T08:54:28.806Z</time></trkpt><trkpt lat="42.3364757" lon="13.6000978"><ele>1224.0</ele><time>2026-04-12T08:54:31.807Z</time></trkpt><trkpt lat="42.3364402" lon="13.6001805"><ele>1224.0</ele><time>2026-04-12T08:54:34.806Z</time></trkpt><trkpt lat="42.336424" lon="13.6002718"><ele>1224.0</ele><time>2026-04-12T08:54:38.806Z</time></trkpt><trkpt lat="42.3364342" lon="13.6003653"><ele>1224.0</ele><time>2026-04-12T08:54:41.805Z</time></trkpt><trkpt lat="42.3365196" lon="13.6003483"><ele>1224.0</ele><time>2026-04-12T08:54:45.805Z</time></trkpt><trkpt lat="42.3365812" lon="13.6002813"><ele>1224.0</ele><time>2026-04-12T08:54:48.806Z</time></trkpt><trkpt lat="42.3366573" lon="13.6002696"><ele>1224.0</ele><time>2026-04-12T08:54:52.806Z</time></trkpt><trkpt lat="42.3367378" lon="13.6003012"><ele>1224.0</ele><time>2026-04-12T08:54:55.806Z</time></trkpt><trkpt lat="42.3368055" lon="13.600353"><ele>1224.0</ele><time>2026-04-12T08:54:58.806Z</time></trkpt><trkpt lat="42.3368665" lon="13.6004263"><ele>1223.0</ele><time>2026-04-12T08:55:01.806Z</time></trkpt><trkpt lat="42.3369251" lon="13.6004868"><ele>1222.0</ele><time>2026-04-12T08:55:03.806Z</time></trkpt><trkpt lat="42.3369687" lon="13.6005565"><ele>1221.0</ele><time>2026-04-12T08:55:06.807Z</time></trkpt><trkpt lat="42.3370136" lon="13.6006238"><ele>1220.0</ele><time>2026-04-12T08:55:09.805Z</time></trkpt><trkpt lat="42.3370388" lon="13.6007075"><ele>1219.0</ele><time>2026-04-12T08:55:12.806Z</time></trkpt><trkpt lat="42.3370766" lon="13.600781"><ele>1218.0</ele><time>2026-04-12T08:55:15.805Z</time></trkpt><trkpt lat="42.3371222" lon="13.6008672"><ele>1217.0</ele><time>2026-04-12T08:55:18.805Z</time></trkpt><trkpt lat="42.3371685" lon="13.6009492"><ele>1217.0</ele><time>2026-04-12T08:55:22.805Z</time></trkpt><trkpt lat="42.3372098" lon="13.6010249"><ele>1217.0</ele><time>2026-04-12T08:55:26.805Z</time></trkpt><trkpt lat="42.3372685" lon="13.6010811"><ele>1217.0</ele><time>2026-04-12T08:55:28.805Z</time></trkpt><trkpt lat="42.3373129" lon="13.6011606"><ele>1217.0</ele><time>2026-04-12T08:55:32.805Z</time></trkpt><trkpt lat="42.3373681" lon="13.6012182"><ele>1217.0</ele><time>2026-04-12T08:55:35.805Z</time></trkpt><trkpt lat="42.3374356" lon="13.6012573"><ele>1217.0</ele><time>2026-04-12T08:55:38.807Z</time></trkpt><trkpt lat="42.3374922" lon="13.601333"><ele>1217.0</ele><time>2026-04-12T08:55:41.805Z</time></trkpt><trkpt lat="42.3375455" lon="13.6014144"><ele>1219.5</ele><time>2026-04-12T08:55:44.807Z</time></trkpt><trkpt lat="42.3376128" lon="13.6014674"><ele>1222.0</ele><time>2026-04-12T08:55:48.806Z</time></trkpt><trkpt lat="42.3376822" lon="13.601515"><ele>1224.5</ele><time>2026-04-12T08:55:53.805Z</time></trkpt><trkpt lat="42.3377185" lon="13.6015942"><ele>1227.0</ele><time>2026-04-12T08:55:57.806Z</time></trkpt><trkpt lat="42.3377486" lon="13.6016753"><ele>1229.5</ele><time>2026-04-12T08:56:01.806Z</time></trkpt><trkpt lat="42.3378105" lon="13.6017674"><ele>1232.0</ele><time>2026-04-12T08:56:05.806Z</time></trkpt><trkpt lat="42.3378581" lon="13.6018307"><ele>1232.0</ele><time>2026-04-12T08:56:07.806Z</time></trkpt><trkpt lat="42.3379053" lon="13.6019085"><ele>1232.0</ele><time>2026-04-12T08:56:10.805Z</time></trkpt><trkpt lat="42.3379482" lon="13.6019865"><ele>1232.0</ele><time>2026-04-12T08:56:13.807Z</time></trkpt><trkpt lat="42.3379902" lon="13.6020764"><ele>1232.0</ele><time>2026-04-12T08:56:16.805Z</time></trkpt><trkpt lat="42.3380443" lon="13.6021435"><ele>1232.0</ele><time>2026-04-12T08:56:20.806Z</time></trkpt><trkpt lat="42.3380665" lon="13.6022458"><ele>1232.0</ele><time>2026-04-12T08:56:25.805Z</time></trkpt><trkpt lat="42.3380729" lon="13.6023565"><ele>1235.4285714285713</ele><time>2026-04-12T08:56:29.807Z</time></trkpt><trkpt lat="42.3380972" lon="13.6024635"><ele>1238.857142857143</ele><time>2026-04-12T08:56:33.806Z</time></trkpt><trkpt lat="42.3381175" lon="13.6025578"><ele>1242.2857142857142</ele><time>2026-04-12T08:56:37.805Z</time></trkpt><trkpt lat="42.3381282" lon="13.6026485"><ele>1245.7142857142858</ele><time>2026-04-12T08:56:40.805Z</time></trkpt><trkpt lat="42.3381262" lon="13.6027349"><ele>1249.142857142857</ele><time>2026-04-12T08:56:42.806Z</time></trkpt><trkpt lat="42.3381297" lon="13.6028634"><ele>1252.5714285714284</ele><time>2026-04-12T08:56:45.805Z</time></trkpt><trkpt lat="42.3381186" lon="13.6029478"><ele>1256.0</ele><time>2026-04-12T08:56:47.805Z</time></trkpt><trkpt lat="42.3381164" lon="13.6030559"><ele>1256.8333333333335</ele><time>2026-04-12T08:56:50.805Z</time></trkpt><trkpt lat="42.3380944" lon="13.6031673"><ele>1257.6666666666667</ele><time>2026-04-12T08:56:54.807Z</time></trkpt><trkpt lat="42.3380871" lon="13.6032589"><ele>1258.5</ele><time>2026-04-12T08:56:57.806Z</time></trkpt><trkpt lat="42.3380716" lon="13.6033532"><ele>1259.3333333333333</ele><time>2026-04-12T08:57:00.806Z</time></trkpt><trkpt lat="42.3380274" lon="13.6034485"><ele>1260.1666666666665</ele><time>2026-04-12T08:57:03.805Z</time></trkpt><trkpt lat="42.3379733" lon="13.6035294"><ele>1261.0</ele><time>2026-04-12T08:57:06.806Z</time></trkpt><trkpt lat="42.3379406" lon="13.6036079"><ele>1257.7142857142858</ele><time>2026-04-12T08:57:08.805Z</time></trkpt><trkpt lat="42.3378992" lon="13.6036873"><ele>1254.4285714285713</ele><time>2026-04-12T08:57:11.806Z</time></trkpt><trkpt lat="42.3378639" lon="13.6037644"><ele>1251.142857142857</ele><time>2026-04-12T08:57:14.807Z</time></trkpt><trkpt lat="42.337855" lon="13.6038492"><ele>1247.857142857143</ele><time>2026-04-12T08:57:17.805Z</time></trkpt><trkpt lat="42.3378662" lon="13.6039425"><ele>1244.5714285714287</ele><time>2026-04-12T08:57:20.805Z</time></trkpt><trkpt lat="42.3378677" lon="13.6040355"><ele>1241.2857142857142</ele><time>2026-04-12T08:57:23.806Z</time></trkpt><trkpt lat="42.337875" lon="13.6041452"><ele>1238.0</ele><time>2026-04-12T08:57:27.806Z</time></trkpt><trkpt lat="42.3379097" lon="13.6042229"><ele>1238.0</ele><time>2026-04-12T08:57:30.806Z</time></trkpt><trkpt lat="42.3379389" lon="13.6043172"><ele>1238.0</ele><time>2026-04-12T08:57:34.806Z</time></trkpt><trkpt lat="42.3379717" lon="13.6043899"><ele>1238.0</ele><time>2026-04-12T08:57:38.805Z</time></trkpt><trkpt lat="42.3380075" lon="13.6044861"><ele>1238.0</ele><time>2026-04-12T08:57:42.805Z</time></trkpt><trkpt lat="42.3380362" lon="13.6045826"><ele>1238.0</ele><time>2026-04-12T08:57:46.806Z</time></trkpt><trkpt lat="42.3380627" lon="13.6046713"><ele>1238.0</ele><time>2026-04-12T08:57:49.806Z</time></trkpt><trkpt lat="42.3381008" lon="13.6047689"><ele>1238.0</ele><time>2026-04-12T08:57:53.806Z</time></trkpt><trkpt lat="42.3381436" lon="13.6048493"><ele>1242.5714285714284</ele><time>2026-04-12T08:57:57.805Z</time></trkpt><trkpt lat="42.3382207" lon="13.6048818"><ele>1247.142857142857</ele><time>2026-04-12T08:58:02.804Z</time></trkpt><trkpt lat="42.3382849" lon="13.6049212"><ele>1251.7142857142858</ele><time>2026-04-12T08:58:05.805Z</time></trkpt><trkpt lat="42.3383353" lon="13.60498"><ele>1256.2857142857142</ele><time>2026-04-12T08:58:08.805Z</time></trkpt><trkpt lat="42.3383685" lon="13.6050592"><ele>1260.857142857143</ele><time>2026-04-12T08:58:10.804Z</time></trkpt><trkpt lat="42.3384017" lon="13.605144"><ele>1265.4285714285713</ele><time>2026-04-12T08:58:12.806Z</time></trkpt><trkpt lat="42.3384644" lon="13.6051644"><ele>1270.0</ele><time>2026-04-12T08:58:17.805Z</time></trkpt><trkpt lat="42.3384935" lon="13.6052577"><ele>1269.5</ele><time>2026-04-12T08:58:21.805Z</time></trkpt><trkpt lat="42.3385052" lon="13.6053512"><ele>1269.0</ele><time>2026-04-12T08:58:25.804Z</time></trkpt><trkpt lat="42.3385227" lon="13.6054427"><ele>1268.5</ele><time>2026-04-12T08:58:28.804Z</time></trkpt><trkpt lat="42.3385727" lon="13.6055209"><ele>1268.0</ele><time>2026-04-12T08:58:32.805Z</time></trkpt><trkpt lat="42.3386061" lon="13.6056289"><ele>1267.5</ele><time>2026-04-12T08:58:36.805Z</time></trkpt><trkpt lat="42.3386594" lon="13.6057239"><ele>1267.0</ele><time>2026-04-12T08:58:40.805Z</time></trkpt><trkpt lat="42.3387186" lon="13.6058068"><ele>1267.0</ele><time>2026-04-12T08:58:43.805Z</time></trkpt><trkpt lat="42.3387641" lon="13.6058693"><ele>1267.0</ele><time>2026-04-12T08:58:46.805Z</time></trkpt><trkpt lat="42.3387924" lon="13.6059588"><ele>1267.0</ele><time>2026-04-12T08:58:49.805Z</time></trkpt><trkpt lat="42.3388257" lon="13.6060853"><ele>1267.0</ele><time>2026-04-12T08:58:52.804Z</time></trkpt><trkpt lat="42.3388712" lon="13.6061777"><ele>1267.0</ele><time>2026-04-12T08:58:56.805Z</time></trkpt><trkpt lat="42.3389088" lon="13.6062788"><ele>1267.0</ele><time>2026-04-12T08:59:00.805Z</time></trkpt><trkpt lat="42.3389364" lon="13.6063858"><ele>1271.5</ele><time>2026-04-12T08:59:04.805Z</time></trkpt><trkpt lat="42.3389331" lon="13.6064762"><ele>1276.0</ele><time>2026-04-12T08:59:08.805Z</time></trkpt><trkpt lat="42.3389509" lon="13.6065679"><ele>1280.5</ele><time>2026-04-12T08:59:11.805Z</time></trkpt><trkpt lat="42.3389568" lon="13.6066809"><ele>1285.0</ele><time>2026-04-12T08:59:15.804Z</time></trkpt><trkpt lat="42.3389651" lon="13.6067813"><ele>1289.5</ele><time>2026-04-12T08:59:18.806Z</time></trkpt><trkpt lat="42.3389831" lon="13.6068891"><ele>1294.0</ele><time>2026-04-12T08:59:22.805Z</time></trkpt><trkpt lat="42.3389983" lon="13.606985"><ele>1294.0</ele><time>2026-04-12T08:59:26.806Z</time></trkpt><trkpt lat="42.3390595" lon="13.6070343"><ele>1294.0</ele><time>2026-04-12T08:59:31.805Z</time></trkpt><trkpt lat="42.3390918" lon="13.6071096"><ele>1294.0</ele><time>2026-04-12T08:59:59.805Z</time></trkpt><trkpt lat="42.3391504" lon="13.6071446"><ele>1294.0</ele><time>2026-04-12T09:00:05.805Z</time></trkpt><trkpt lat="42.3392113" lon="13.6071982"><ele>1294.0</ele><time>2026-04-12T09:00:08.805Z</time></trkpt><trkpt lat="42.3392581" lon="13.6072704"><ele>1294.0</ele><time>2026-04-12T09:00:12.804Z</time></trkpt><trkpt lat="42.3392967" lon="13.6073517"><ele>1294.0</ele><time>2026-04-12T09:00:16.805Z</time></trkpt><trkpt lat="42.3393128" lon="13.6074476"><ele>1294.0</ele><time>2026-04-12T09:01:14.804Z</time></trkpt><trkpt lat="42.3393479" lon="13.6075256"><ele>1294.0</ele><time>2026-04-12T09:01:19.806Z</time></trkpt><trkpt lat="42.3393812" lon="13.6075981"><ele>1294.0</ele><time>2026-04-12T09:01:52.806Z</time></trkpt><trkpt lat="42.3394038" lon="13.6076926"><ele>1294.0</ele><time>2026-04-12T09:01:57.805Z</time></trkpt><trkpt lat="42.3394383" lon="13.60778"><ele>1294.0</ele><time>2026-04-12T09:02:01.805Z</time></trkpt><trkpt lat="42.339463" lon="13.6078662"><ele>1294.0</ele><time>2026-04-12T09:02:05.804Z</time></trkpt><trkpt lat="42.3394882" lon="13.6079604"><ele>1294.0</ele><time>2026-04-12T09:02:09.805Z</time></trkpt><trkpt lat="42.3395159" lon="13.6080467"><ele>1294.142857142857</ele><time>2026-04-12T09:02:13.804Z</time></trkpt><trkpt lat="42.3395249" lon="13.6081356"><ele>1294.2857142857142</ele><time>2026-04-12T09:02:17.803Z</time></trkpt><trkpt lat="42.3395503" lon="13.6082173"><ele>1294.4285714285716</ele><time>2026-04-12T09:02:48.804Z</time></trkpt><trkpt lat="42.3395305" lon="13.6083158"><ele>1294.5714285714284</ele><time>2026-04-12T09:03:00.803Z</time></trkpt><trkpt lat="42.3395189" lon="13.6084238"><ele>1294.7142857142858</ele><time>2026-04-12T09:03:04.804Z</time></trkpt><trkpt lat="42.3395092" lon="13.6085284"><ele>1294.857142857143</ele><time>2026-04-12T09:03:08.804Z</time></trkpt><trkpt lat="42.3395063" lon="13.6086312"><ele>1295.0</ele><time>2026-04-12T09:03:12.804Z</time></trkpt><trkpt lat="42.339507" lon="13.6087209"><ele>1295.857142857143</ele><time>2026-04-12T09:03:16.803Z</time></trkpt><trkpt lat="42.3395139" lon="13.6088085"><ele>1296.7142857142858</ele><time>2026-04-12T09:03:21.804Z</time></trkpt><trkpt lat="42.3395095" lon="13.6088947"><ele>1297.5714285714284</ele><time>2026-04-12T09:03:27.803Z</time></trkpt><trkpt lat="42.3395112" lon="13.608991"><ele>1298.4285714285716</ele><time>2026-04-12T09:04:04.803Z</time></trkpt><trkpt lat="42.3395062" lon="13.6090895"><ele>1299.2857142857142</ele><time>2026-04-12T09:04:22.804Z</time></trkpt><trkpt lat="42.3395085" lon="13.6091937"><ele>1300.142857142857</ele><time>2026-04-12T09:04:26.803Z</time></trkpt><trkpt lat="42.3395177" lon="13.6092927"><ele>1301.0</ele><time>2026-04-12T09:04:30.804Z</time></trkpt><trkpt lat="42.3395166" lon="13.6093826"><ele>1301.0</ele><time>2026-04-12T09:04:34.803Z</time></trkpt><trkpt lat="42.3395133" lon="13.6094838"><ele>1301.0</ele><time>2026-04-12T09:04:39.804Z</time></trkpt><trkpt lat="42.3395115" lon="13.6095783"><ele>1301.0</ele><time>2026-04-12T09:04:43.803Z</time></trkpt><trkpt lat="42.339525" lon="13.6096841"><ele>1301.0</ele><time>2026-04-12T09:04:47.804Z</time></trkpt><trkpt lat="42.3395248" lon="13.6097895"><ele>1301.0</ele><time>2026-04-12T09:04:51.803Z</time></trkpt><trkpt lat="42.3395324" lon="13.6098948"><ele>1301.0</ele><time>2026-04-12T09:04:55.803Z</time></trkpt><trkpt lat="42.3395985" lon="13.6099224"><ele>1301.0</ele><time>2026-04-12T09:05:00.804Z</time></trkpt><trkpt lat="42.3396285" lon="13.6098444"><ele>1302.2857142857142</ele><time>2026-04-12T09:05:04.804Z</time></trkpt><trkpt lat="42.3396893" lon="13.6098898"><ele>1303.5714285714287</ele><time>2026-04-12T09:05:24.804Z</time></trkpt><trkpt lat="42.3397548" lon="13.6098544"><ele>1304.857142857143</ele><time>2026-04-12T09:05:34.804Z</time></trkpt><trkpt lat="42.3397747" lon="13.6097714"><ele>1306.142857142857</ele><time>2026-04-12T09:05:47.804Z</time></trkpt><trkpt lat="42.3398238" lon="13.6096907"><ele>1307.4285714285713</ele><time>2026-04-12T09:05:59.802Z</time></trkpt><trkpt lat="42.3398763" lon="13.6096129"><ele>1308.7142857142858</ele><time>2026-04-12T09:06:04.803Z</time></trkpt><trkpt lat="42.3399304" lon="13.6095655"><ele>1310.0</ele><time>2026-04-12T09:06:08.802Z</time></trkpt><trkpt lat="42.3399965" lon="13.6095266"><ele>1311.4285714285716</ele><time>2026-04-12T09:06:13.803Z</time></trkpt><trkpt lat="42.3400657" lon="13.6095193"><ele>1312.857142857143</ele><time>2026-04-12T09:06:50.802Z</time></trkpt><trkpt lat="42.340133" lon="13.6095144"><ele>1314.2857142857142</ele><time>2026-04-12T09:06:54.802Z</time></trkpt><trkpt lat="42.3402058" lon="13.6095175"><ele>1315.7142857142858</ele><time>2026-04-12T09:07:01.802Z</time></trkpt><trkpt lat="42.3402713" lon="13.6094637"><ele>1317.142857142857</ele><time>2026-04-12T09:07:06.802Z</time></trkpt><trkpt lat="42.3403213" lon="13.6093884"><ele>1318.5714285714287</ele><time>2026-04-12T09:07:11.803Z</time></trkpt><trkpt lat="42.340374" lon="13.6093363"><ele>1320.0</ele><time>2026-04-12T09:07:29.802Z</time></trkpt><trkpt lat="42.340424" lon="13.609259"><ele>1320.1428571428573</ele><time>2026-04-12T09:07:33.803Z</time></trkpt><trkpt lat="42.3404585" lon="13.6091705"><ele>1320.2857142857142</ele><time>2026-04-12T09:07:37.803Z</time></trkpt><trkpt lat="42.3404986" lon="13.6091031"><ele>1320.4285714285716</ele><time>2026-04-12T09:07:43.803Z</time></trkpt><trkpt lat="42.3404964" lon="13.6090144"><ele>1320.5714285714287</ele><time>2026-04-12T09:08:25.803Z</time></trkpt><trkpt lat="42.3405432" lon="13.6089346"><ele>1320.7142857142858</ele><time>2026-04-12T09:08:31.803Z</time></trkpt><trkpt lat="42.3405942" lon="13.6088767"><ele>1320.857142857143</ele><time>2026-04-12T09:08:36.803Z</time></trkpt><trkpt lat="42.3406485" lon="13.6088093"><ele>1321.0</ele><time>2026-04-12T09:08:40.803Z</time></trkpt><trkpt lat="42.3407014" lon="13.6087567"><ele>1319.4285714285713</ele><time>2026-04-12T09:08:44.803Z</time></trkpt><trkpt lat="42.3407479" lon="13.6086913"><ele>1317.857142857143</ele><time>2026-04-12T09:08:54.802Z</time></trkpt><trkpt lat="42.340796" lon="13.6086153"><ele>1316.2857142857142</ele><time>2026-04-12T09:08:58.803Z</time></trkpt><trkpt lat="42.3408523" lon="13.6085504"><ele>1314.7142857142858</ele><time>2026-04-12T09:09:02.803Z</time></trkpt><trkpt lat="42.3409114" lon="13.6084915"><ele>1313.142857142857</ele><time>2026-04-12T09:09:05.803Z</time></trkpt><trkpt lat="42.3409791" lon="13.6084404"><ele>1311.5714285714287</ele><time>2026-04-12T09:09:08.804Z</time></trkpt><trkpt lat="42.3410452" lon="13.6083833"><ele>1310.0</ele><time>2026-04-12T09:09:11.803Z</time></trkpt><trkpt lat="42.3411025" lon="13.6083461"><ele>1311.857142857143</ele><time>2026-04-12T09:09:14.802Z</time></trkpt><trkpt lat="42.3411683" lon="13.6083079"><ele>1313.7142857142858</ele><time>2026-04-12T09:09:17.802Z</time></trkpt><trkpt lat="42.3412375" lon="13.608277"><ele>1315.5714285714284</ele><time>2026-04-12T09:09:20.803Z</time></trkpt><trkpt lat="42.3413073" lon="13.6082334"><ele>1317.4285714285716</ele><time>2026-04-12T09:09:23.802Z</time></trkpt><trkpt lat="42.3413651" lon="13.6081978"><ele>1319.2857142857142</ele><time>2026-04-12T09:09:26.803Z</time></trkpt><trkpt lat="42.3414409" lon="13.6081797"><ele>1321.142857142857</ele><time>2026-04-12T09:09:33.803Z</time></trkpt><trkpt lat="42.341516" lon="13.6081401"><ele>1323.0</ele><time>2026-04-12T09:09:37.802Z</time></trkpt><trkpt lat="42.3415873" lon="13.608112"><ele>1323.0</ele><time>2026-04-12T09:09:41.802Z</time></trkpt><trkpt lat="42.3416646" lon="13.6080997"><ele>1323.0</ele><time>2026-04-12T09:09:46.801Z</time></trkpt><trkpt lat="42.3417446" lon="13.6081214"><ele>1323.0</ele><time>2026-04-12T09:09:49.802Z</time></trkpt><trkpt lat="42.3418318" lon="13.6081458"><ele>1323.0</ele><time>2026-04-12T09:09:51.801Z</time></trkpt><trkpt lat="42.3420151" lon="13.6081137"><ele>1323.0</ele><time>2026-04-12T09:09:53.802Z</time></trkpt><trkpt lat="42.3421011" lon="13.6081097"><ele>1323.0</ele><time>2026-04-12T09:09:55.803Z</time></trkpt><trkpt lat="42.3421789" lon="13.6081454"><ele>1323.0</ele><time>2026-04-12T09:09:57.801Z</time></trkpt><trkpt lat="42.3422549" lon="13.6082041"><ele>1323.0</ele><time>2026-04-12T09:10:03.801Z</time></trkpt><trkpt lat="42.342323" lon="13.608242"><ele>1323.0</ele><time>2026-04-12T09:10:05.802Z</time></trkpt><trkpt lat="42.3424006" lon="13.6082746"><ele>1323.0</ele><time>2026-04-12T09:10:07.803Z</time></trkpt><trkpt lat="42.3424819" lon="13.608332"><ele>1323.0</ele><time>2026-04-12T09:10:10.801Z</time></trkpt><trkpt lat="42.342555" lon="13.6083832"><ele>1323.857142857143</ele><time>2026-04-12T09:10:13.802Z</time></trkpt><trkpt lat="42.3426168" lon="13.6084291"><ele>1324.7142857142858</ele><time>2026-04-12T09:10:16.802Z</time></trkpt><trkpt lat="42.342677" lon="13.6084892"><ele>1325.5714285714284</ele><time>2026-04-12T09:10:19.801Z</time></trkpt><trkpt lat="42.3427221" lon="13.6085626"><ele>1326.4285714285716</ele><time>2026-04-12T09:10:22.801Z</time></trkpt><trkpt lat="42.3427681" lon="13.6086355"><ele>1327.2857142857142</ele><time>2026-04-12T09:10:25.801Z</time></trkpt><trkpt lat="42.3428126" lon="13.6087182"><ele>1328.142857142857</ele><time>2026-04-12T09:10:28.802Z</time></trkpt><trkpt lat="42.3428667" lon="13.6087969"><ele>1329.0</ele><time>2026-04-12T09:10:31.802Z</time></trkpt><trkpt lat="42.3429176" lon="13.6088771"><ele>1326.857142857143</ele><time>2026-04-12T09:10:34.801Z</time></trkpt><trkpt lat="42.3429476" lon="13.6089553"><ele>1324.7142857142858</ele><time>2026-04-12T09:10:37.801Z</time></trkpt><trkpt lat="42.3429795" lon="13.6090409"><ele>1322.5714285714284</ele><time>2026-04-12T09:10:40.803Z</time></trkpt><trkpt lat="42.343016" lon="13.6091267"><ele>1320.4285714285716</ele><time>2026-04-12T09:10:43.803Z</time></trkpt><trkpt lat="42.34306" lon="13.6091962"><ele>1318.2857142857144</ele><time>2026-04-12T09:10:46.801Z</time></trkpt><trkpt lat="42.3431032" lon="13.609263"><ele>1316.142857142857</ele><time>2026-04-12T09:10:49.803Z</time></trkpt><trkpt lat="42.3431462" lon="13.6093278"><ele>1314.0</ele><time>2026-04-12T09:10:52.802Z</time></trkpt><trkpt lat="42.3431914" lon="13.6093871"><ele>1318.857142857143</ele><time>2026-04-12T09:10:56.802Z</time></trkpt><trkpt lat="42.3432429" lon="13.6094381"><ele>1323.7142857142858</ele><time>2026-04-12T09:11:31.801Z</time></trkpt><trkpt lat="42.3432479" lon="13.6095406"><ele>1328.5714285714287</ele><time>2026-04-12T09:12:11.802Z</time></trkpt><trkpt lat="42.3432629" lon="13.6096515"><ele>1333.4285714285716</ele><time>2026-04-12T09:12:15.801Z</time></trkpt><trkpt lat="42.3432723" lon="13.6097494"><ele>1338.2857142857142</ele><time>2026-04-12T09:12:18.801Z</time></trkpt><trkpt lat="42.3432961" lon="13.6098397"><ele>1343.1428571428573</ele><time>2026-04-12T09:12:21.801Z</time></trkpt><trkpt lat="42.3433175" lon="13.6099285"><ele>1348.0</ele><time>2026-04-12T09:12:25.802Z</time></trkpt><trkpt lat="42.3433353" lon="13.6100183"><ele>1348.0000000000002</ele><time>2026-04-12T09:12:29.802Z</time></trkpt><trkpt lat="42.3433511" lon="13.6101053"><ele>1348.0</ele><time>2026-04-12T09:12:33.802Z</time></trkpt><trkpt lat="42.3433736" lon="13.6102007"><ele>1348.0</ele><time>2026-04-12T09:12:38.802Z</time></trkpt><trkpt lat="42.3434086" lon="13.6102764"><ele>1348.0</ele><time>2026-04-12T09:12:46.803Z</time></trkpt><trkpt lat="42.3434349" lon="13.6103671"><ele>1348.0</ele><time>2026-04-12T09:12:50.801Z</time></trkpt><trkpt lat="42.3434699" lon="13.6104648"><ele>1348.0000000000002</ele><time>2026-04-12T09:12:54.802Z</time></trkpt><trkpt lat="42.3434952" lon="13.6105575"><ele>1348.0</ele><time>2026-04-12T09:12:58.801Z</time></trkpt><trkpt lat="42.3435053" lon="13.6106495"><ele>1347.5714285714287</ele><time>2026-04-12T09:13:02.801Z</time></trkpt><trkpt lat="42.3435284" lon="13.6107521"><ele>1347.142857142857</ele><time>2026-04-12T09:13:06.802Z</time></trkpt><trkpt lat="42.3435501" lon="13.6108513"><ele>1346.7142857142858</ele><time>2026-04-12T09:13:10.803Z</time></trkpt><trkpt lat="42.3435621" lon="13.6109364"><ele>1346.2857142857142</ele><time>2026-04-12T09:13:13.802Z</time></trkpt><trkpt lat="42.3435709" lon="13.6110244"><ele>1345.857142857143</ele><time>2026-04-12T09:13:16.803Z</time></trkpt><trkpt lat="42.3435895" lon="13.611109"><ele>1345.4285714285716</ele><time>2026-04-12T09:13:19.801Z</time></trkpt><trkpt lat="42.3436089" lon="13.6112099"><ele>1345.0</ele><time>2026-04-12T09:13:23.802Z</time></trkpt><trkpt lat="42.3436151" lon="13.6113127"><ele>1344.8333333333333</ele><time>2026-04-12T09:13:26.801Z</time></trkpt><trkpt lat="42.3436309" lon="13.6114226"><ele>1344.6666666666665</ele><time>2026-04-12T09:13:29.801Z</time></trkpt><trkpt lat="42.3436572" lon="13.6115164"><ele>1344.5</ele><time>2026-04-12T09:13:32.801Z</time></trkpt><trkpt lat="42.3436881" lon="13.6116203"><ele>1344.3333333333333</ele><time>2026-04-12T09:13:36.802Z</time></trkpt><trkpt lat="42.3437023" lon="13.6117037"><ele>1344.1666666666667</ele><time>2026-04-12T09:13:39.8Z</time></trkpt><trkpt lat="42.3437129" lon="13.6117996"><ele>1344.0</ele><time>2026-04-12T09:13:43.801Z</time></trkpt><trkpt lat="42.3437406" lon="13.6119029"><ele>1344.4285714285713</ele><time>2026-04-12T09:13:47.801Z</time></trkpt><trkpt lat="42.3437633" lon="13.6119958"><ele>1344.857142857143</ele><time>2026-04-12T09:13:51.801Z</time></trkpt><trkpt lat="42.3437843" lon="13.6120853"><ele>1345.2857142857142</ele><time>2026-04-12T09:14:02.801Z</time></trkpt><trkpt lat="42.3438028" lon="13.6121689"><ele>1345.7142857142858</ele><time>2026-04-12T09:14:19.801Z</time></trkpt><trkpt lat="42.3438152" lon="13.6122553"><ele>1346.142857142857</ele><time>2026-04-12T09:14:23.801Z</time></trkpt><trkpt lat="42.3438021" lon="13.6123427"><ele>1346.5714285714284</ele><time>2026-04-12T09:14:34.8Z</time></trkpt><trkpt lat="42.3438143" lon="13.6124381"><ele>1347.0</ele><time>2026-04-12T09:14:38.8Z</time></trkpt><trkpt lat="42.3438182" lon="13.6125333"><ele>1346.9999999999998</ele><time>2026-04-12T09:14:42.801Z</time></trkpt><trkpt lat="42.3438354" lon="13.6126288"><ele>1347.0</ele><time>2026-04-12T09:14:46.8Z</time></trkpt><trkpt lat="42.3438531" lon="13.6127171"><ele>1347.0</ele><time>2026-04-12T09:14:50.8Z</time></trkpt><trkpt lat="42.3438643" lon="13.6128141"><ele>1347.0</ele><time>2026-04-12T09:15:08.801Z</time></trkpt><trkpt lat="42.3438723" lon="13.6129042"><ele>1347.0</ele><time>2026-04-12T09:15:17.801Z</time></trkpt><trkpt lat="42.3438676" lon="13.6130094"><ele>1346.9999999999998</ele><time>2026-04-12T09:15:40.801Z</time></trkpt><trkpt lat="42.3438816" lon="13.613115"><ele>1347.0</ele><time>2026-04-12T09:15:44.8Z</time></trkpt><trkpt lat="42.3438848" lon="13.6132067"><ele>1354.4285714285713</ele><time>2026-04-12T09:15:47.801Z</time></trkpt><trkpt lat="42.3438919" lon="13.6133077"><ele>1361.857142857143</ele><time>2026-04-12T09:15:50.8Z</time></trkpt><trkpt lat="42.3438946" lon="13.6134091"><ele>1369.2857142857142</ele><time>2026-04-12T09:15:53.802Z</time></trkpt><trkpt lat="42.3439032" lon="13.6135103"><ele>1376.7142857142858</ele><time>2026-04-12T09:15:56.8Z</time></trkpt><trkpt lat="42.3439097" lon="13.6136079"><ele>1384.142857142857</ele><time>2026-04-12T09:15:59.8Z</time></trkpt><trkpt lat="42.3439055" lon="13.6136962"><ele>1391.5714285714284</ele><time>2026-04-12T09:16:02.8Z</time></trkpt><trkpt lat="42.3439694" lon="13.6136598"><ele>1399.0</ele><time>2026-04-12T09:16:44.8Z</time></trkpt><trkpt lat="42.344004" lon="13.6135785"><ele>1399.0</ele><time>2026-04-12T09:17:08.801Z</time></trkpt><trkpt lat="42.3440374" lon="13.6135016"><ele>1399.0</ele><time>2026-04-12T09:17:17.799Z</time></trkpt><trkpt lat="42.3440807" lon="13.613433"><ele>1399.0</ele><time>2026-04-12T09:17:50.799Z</time></trkpt><trkpt lat="42.3441011" lon="13.6133441"><ele>1399.0</ele><time>2026-04-12T09:18:00.799Z</time></trkpt><trkpt lat="42.3441664" lon="13.6133356"><ele>1399.0</ele><time>2026-04-12T09:18:31.799Z</time></trkpt><trkpt lat="42.3442195" lon="13.6132642"><ele>1399.0</ele><time>2026-04-12T09:19:38.8Z</time></trkpt><trkpt lat="42.3442329" lon="13.6131776"><ele>1399.0</ele><time>2026-04-12T09:19:58.799Z</time></trkpt><trkpt lat="42.3442667" lon="13.6130966"><ele>1399.0</ele><time>2026-04-12T09:20:30.8Z</time></trkpt><trkpt lat="42.3443208" lon="13.6130397"><ele>1399.0</ele><time>2026-04-12T09:22:11.799Z</time></trkpt><trkpt lat="42.3443569" lon="13.6129672"><ele>1399.0</ele><time>2026-04-12T09:22:50.798Z</time></trkpt><trkpt lat="42.3444072" lon="13.6129059"><ele>1399.0</ele><time>2026-04-12T09:23:05.799Z</time></trkpt><trkpt lat="42.3444562" lon="13.6128477"><ele>1399.0</ele><time>2026-04-12T09:23:23.798Z</time></trkpt><trkpt lat="42.3445036" lon="13.6129091"><ele>1399.0</ele><time>2026-04-12T09:23:38.799Z</time></trkpt><trkpt lat="42.3445092" lon="13.6129989"><ele>1399.0</ele><time>2026-04-12T09:25:34.799Z</time></trkpt><trkpt lat="42.3445223" lon="13.6130852"><ele>1399.0</ele><time>2026-04-12T09:25:49.797Z</time></trkpt><trkpt lat="42.3445317" lon="13.6131741"><ele>1399.0</ele><time>2026-04-12T09:25:57.799Z</time></trkpt><trkpt lat="42.3445405" lon="13.6132681"><ele>1399.0</ele><time>2026-04-12T09:26:05.798Z</time></trkpt><trkpt lat="42.3445476" lon="13.6133536"><ele>1399.0</ele><time>2026-04-12T09:26:14.798Z</time></trkpt><trkpt lat="42.3446121" lon="13.613352"><ele>1399.0</ele><time>2026-04-12T09:26:27.798Z</time></trkpt><trkpt lat="42.3446377" lon="13.6132609"><ele>1399.0</ele><time>2026-04-12T09:26:51.798Z</time></trkpt><trkpt lat="42.3446678" lon="13.6131777"><ele>1399.0</ele><time>2026-04-12T09:26:58.798Z</time></trkpt><trkpt lat="42.3447075" lon="13.6131024"><ele>1403.4285714285713</ele><time>2026-04-12T09:27:08.798Z</time></trkpt><trkpt lat="42.3447396" lon="13.6130177"><ele>1407.857142857143</ele><time>2026-04-12T09:27:17.796Z</time></trkpt><trkpt lat="42.3447698" lon="13.6129401"><ele>1412.2857142857142</ele><time>2026-04-12T09:27:28.797Z</time></trkpt><trkpt lat="42.3448183" lon="13.6128766"><ele>1416.7142857142858</ele><time>2026-04-12T09:27:36.796Z</time></trkpt><trkpt lat="42.3448877" lon="13.6128492"><ele>1421.142857142857</ele><time>2026-04-12T09:27:49.797Z</time></trkpt><trkpt lat="42.3449488" lon="13.612819"><ele>1425.5714285714287</ele><time>2026-04-12T09:27:58.796Z</time></trkpt><trkpt lat="42.3450066" lon="13.6127783"><ele>1430.0</ele><time>2026-04-12T09:28:11.798Z</time></trkpt><trkpt lat="42.3450696" lon="13.6127199"><ele>1430.0</ele><time>2026-04-12T09:28:15.798Z</time></trkpt><trkpt lat="42.3451334" lon="13.6126824"><ele>1430.0</ele><time>2026-04-12T09:28:19.796Z</time></trkpt><trkpt lat="42.3452013" lon="13.6126512"><ele>1430.0</ele><time>2026-04-12T09:28:23.796Z</time></trkpt><trkpt lat="42.3452698" lon="13.612636"><ele>1430.0</ele><time>2026-04-12T09:28:27.797Z</time></trkpt><trkpt lat="42.345333" lon="13.6126423"><ele>1430.0</ele><time>2026-04-12T09:28:31.796Z</time></trkpt><trkpt lat="42.3453952" lon="13.6125947"><ele>1430.0</ele><time>2026-04-12T09:29:22.798Z</time></trkpt><trkpt lat="42.3454332" lon="13.6125091"><ele>1430.0</ele><time>2026-04-12T09:29:26.797Z</time></trkpt><trkpt lat="42.3455027" lon="13.6124926"><ele>1431.7142857142858</ele><time>2026-04-12T09:29:29.796Z</time></trkpt><trkpt lat="42.3455778" lon="13.6124746"><ele>1433.4285714285713</ele><time>2026-04-12T09:29:33.796Z</time></trkpt><trkpt lat="42.3456474" lon="13.6124411"><ele>1435.142857142857</ele><time>2026-04-12T09:29:37.796Z</time></trkpt><trkpt lat="42.3457267" lon="13.6124226"><ele>1436.857142857143</ele><time>2026-04-12T09:29:41.796Z</time></trkpt><trkpt lat="42.3457933" lon="13.6124214"><ele>1438.5714285714284</ele><time>2026-04-12T09:29:44.796Z</time></trkpt><trkpt lat="42.3458615" lon="13.6123891"><ele>1440.2857142857142</ele><time>2026-04-12T09:29:47.797Z</time></trkpt><trkpt lat="42.3459255" lon="13.6123431"><ele>1442.0</ele><time>2026-04-12T09:29:50.796Z</time></trkpt><trkpt lat="42.3459931" lon="13.6122728"><ele>1442.0</ele><time>2026-04-12T09:29:53.796Z</time></trkpt><trkpt lat="42.3460604" lon="13.6122042"><ele>1442.0</ele><time>2026-04-12T09:29:56.797Z</time></trkpt><trkpt lat="42.3461179" lon="13.6121175"><ele>1442.0</ele><time>2026-04-12T09:29:59.797Z</time></trkpt><trkpt lat="42.3461574" lon="13.6120408"><ele>1442.0</ele><time>2026-04-12T09:30:02.798Z</time></trkpt><trkpt lat="42.3461954" lon="13.6119606"><ele>1442.0</ele><time>2026-04-12T09:30:05.798Z</time></trkpt><trkpt lat="42.3462335" lon="13.611878"><ele>1442.0</ele><time>2026-04-12T09:30:08.797Z</time></trkpt><trkpt lat="42.3463025" lon="13.6118121"><ele>1443.75</ele><time>2026-04-12T09:30:11.795Z</time></trkpt><trkpt lat="42.3463715" lon="13.6117517"><ele>1445.5</ele><time>2026-04-12T09:30:14.795Z</time></trkpt><trkpt lat="42.3464371" lon="13.6116947"><ele>1447.25</ele><time>2026-04-12T09:30:17.797Z</time></trkpt><trkpt lat="42.346506" lon="13.611667"><ele>1449.0</ele><time>2026-04-12T09:30:20.795Z</time></trkpt><trkpt lat="42.3475742" lon="13.6129609"><ele>1450.2857142857142</ele><time>2026-04-12T09:32:33.796Z</time></trkpt><trkpt lat="42.3476221" lon="13.6130182"><ele>1451.5714285714284</ele><time>2026-04-12T09:33:44.794Z</time></trkpt><trkpt lat="42.3475881" lon="13.6131068"><ele>1452.857142857143</ele><time>2026-04-12T09:33:48.795Z</time></trkpt><trkpt lat="42.347538" lon="13.6131677"><ele>1454.142857142857</ele><time>2026-04-12T09:33:51.795Z</time></trkpt><trkpt lat="42.3475208" lon="13.6132521"><ele>1455.4285714285713</ele><time>2026-04-12T09:33:54.794Z</time></trkpt><trkpt lat="42.3475152" lon="13.6133416"><ele>1456.7142857142858</ele><time>2026-04-12T09:33:57.794Z</time></trkpt><trkpt lat="42.3475079" lon="13.6134369"><ele>1458.0</ele><time>2026-04-12T09:34:00.795Z</time></trkpt><trkpt lat="42.3474965" lon="13.6135313"><ele>1458.0</ele><time>2026-04-12T09:34:03.795Z</time></trkpt><trkpt lat="42.3474817" lon="13.6136393"><ele>1458.0</ele><time>2026-04-12T09:34:07.795Z</time></trkpt><trkpt lat="42.34747" lon="13.6137304"><ele>1458.0</ele><time>2026-04-12T09:34:10.794Z</time></trkpt><trkpt lat="42.3474647" lon="13.6138209"><ele>1458.0</ele><time>2026-04-12T09:34:13.795Z</time></trkpt><trkpt lat="42.3474557" lon="13.6139093"><ele>1458.0</ele><time>2026-04-12T09:34:16.794Z</time></trkpt><trkpt lat="42.3474377" lon="13.6140127"><ele>1458.0</ele><time>2026-04-12T09:34:20.794Z</time></trkpt><trkpt lat="42.3474158" lon="13.6141158"><ele>1458.0</ele><time>2026-04-12T09:34:24.794Z</time></trkpt><trkpt lat="42.3473963" lon="13.6142185"><ele>1459.1666666666667</ele><time>2026-04-12T09:34:28.794Z</time></trkpt><trkpt lat="42.3473741" lon="13.6143258"><ele>1460.3333333333333</ele><time>2026-04-12T09:34:32.795Z</time></trkpt><trkpt lat="42.3473472" lon="13.6144299"><ele>1461.5</ele><time>2026-04-12T09:34:36.795Z</time></trkpt><trkpt lat="42.347316" lon="13.6145295"><ele>1462.6666666666665</ele><time>2026-04-12T09:34:40.794Z</time></trkpt><trkpt lat="42.3472804" lon="13.6146228"><ele>1463.8333333333333</ele><time>2026-04-12T09:34:44.796Z</time></trkpt><trkpt lat="42.3472571" lon="13.6147213"><ele>1465.0</ele><time>2026-04-12T09:34:48.795Z</time></trkpt><trkpt lat="42.3472287" lon="13.6148246"><ele>1466.2857142857144</ele><time>2026-04-12T09:34:52.794Z</time></trkpt><trkpt lat="42.3472034" lon="13.6149081"><ele>1467.5714285714284</ele><time>2026-04-12T09:34:55.794Z</time></trkpt><trkpt lat="42.3471751" lon="13.6149898"><ele>1468.857142857143</ele><time>2026-04-12T09:34:58.796Z</time></trkpt><trkpt lat="42.3471488" lon="13.6150821"><ele>1470.1428571428573</ele><time>2026-04-12T09:35:01.795Z</time></trkpt><trkpt lat="42.3471164" lon="13.6151676"><ele>1471.4285714285716</ele><time>2026-04-12T09:35:04.796Z</time></trkpt><trkpt lat="42.3470952" lon="13.6152566"><ele>1472.7142857142858</ele><time>2026-04-12T09:35:07.794Z</time></trkpt><trkpt lat="42.3470819" lon="13.6153451"><ele>1474.0</ele><time>2026-04-12T09:35:10.795Z</time></trkpt><trkpt lat="42.3470508" lon="13.6154481"><ele>1475.7142857142858</ele><time>2026-04-12T09:35:14.795Z</time></trkpt><trkpt lat="42.3470203" lon="13.6155241"><ele>1477.4285714285716</ele><time>2026-04-12T09:35:17.794Z</time></trkpt><trkpt lat="42.3469956" lon="13.6156295"><ele>1479.1428571428573</ele><time>2026-04-12T09:35:21.795Z</time></trkpt><trkpt lat="42.3469743" lon="13.6157111"><ele>1480.857142857143</ele><time>2026-04-12T09:35:24.794Z</time></trkpt><trkpt lat="42.3469461" lon="13.6158128"><ele>1482.5714285714284</ele><time>2026-04-12T09:35:28.794Z</time></trkpt><trkpt lat="42.3469298" lon="13.6159155"><ele>1484.2857142857144</ele><time>2026-04-12T09:35:32.795Z</time></trkpt><trkpt lat="42.3469087" lon="13.616012"><ele>1486.0</ele><time>2026-04-12T09:35:36.795Z</time></trkpt><trkpt lat="42.3468717" lon="13.6161007"><ele>1488.0</ele><time>2026-04-12T09:35:40.794Z</time></trkpt><trkpt lat="42.3468328" lon="13.6161964"><ele>1490.0</ele><time>2026-04-12T09:35:45.795Z</time></trkpt><trkpt lat="42.3467892" lon="13.6162777"><ele>1492.0</ele><time>2026-04-12T09:35:49.794Z</time></trkpt><trkpt lat="42.3467585" lon="13.6163738"><ele>1494.0</ele><time>2026-04-12T09:35:53.795Z</time></trkpt><trkpt lat="42.346727" lon="13.6164756"><ele>1496.0</ele><time>2026-04-12T09:35:57.795Z</time></trkpt><trkpt lat="42.346698" lon="13.6165796"><ele>1498.0</ele><time>2026-04-12T09:36:01.794Z</time></trkpt><trkpt lat="42.3466618" lon="13.6166788"><ele>1498.0</ele><time>2026-04-12T09:36:05.795Z</time></trkpt><trkpt lat="42.3466298" lon="13.6167714"><ele>1498.0</ele><time>2026-04-12T09:36:09.794Z</time></trkpt><trkpt lat="42.3465964" lon="13.6168761"><ele>1498.0</ele><time>2026-04-12T09:36:13.794Z</time></trkpt><trkpt lat="42.3465754" lon="13.6169688"><ele>1498.0</ele><time>2026-04-12T09:36:16.794Z</time></trkpt><trkpt lat="42.3465612" lon="13.6170672"><ele>1498.0</ele><time>2026-04-12T09:36:19.796Z</time></trkpt><trkpt lat="42.346544" lon="13.6171732"><ele>1498.0</ele><time>2026-04-12T09:36:22.794Z</time></trkpt><trkpt lat="42.3465186" lon="13.617256"><ele>1499.0</ele><time>2026-04-12T09:36:25.794Z</time></trkpt><trkpt lat="42.3464935" lon="13.6173373"><ele>1500.0</ele><time>2026-04-12T09:36:28.796Z</time></trkpt><trkpt lat="42.3464722" lon="13.6174415"><ele>1501.0</ele><time>2026-04-12T09:36:32.793Z</time></trkpt><trkpt lat="42.346451" lon="13.6175247"><ele>1502.0</ele><time>2026-04-12T09:36:35.794Z</time></trkpt><trkpt lat="42.3464158" lon="13.6176326"><ele>1503.0</ele><time>2026-04-12T09:36:38.793Z</time></trkpt><trkpt lat="42.3463889" lon="13.6177143"><ele>1504.0</ele><time>2026-04-12T09:36:40.793Z</time></trkpt><trkpt lat="42.3463525" lon="13.6178272"><ele>1506.6666666666665</ele><time>2026-04-12T09:36:43.794Z</time></trkpt><trkpt lat="42.3463284" lon="13.6179097"><ele>1509.3333333333333</ele><time>2026-04-12T09:36:46.793Z</time></trkpt><trkpt lat="42.3463028" lon="13.6179957"><ele>1512.0</ele><time>2026-04-12T09:36:49.794Z</time></trkpt><trkpt lat="42.3462714" lon="13.6180976"><ele>1514.6666666666667</ele><time>2026-04-12T09:36:53.793Z</time></trkpt><trkpt lat="42.3462382" lon="13.6181959"><ele>1517.3333333333335</ele><time>2026-04-12T09:36:57.795Z</time></trkpt><trkpt lat="42.3462086" lon="13.6182965"><ele>1520.0</ele><time>2026-04-12T09:37:01.793Z</time></trkpt><trkpt lat="42.3461731" lon="13.6183965"><ele>1520.0</ele><time>2026-04-12T09:37:05.794Z</time></trkpt><trkpt lat="42.346137" lon="13.6184935"><ele>1520.0</ele><time>2026-04-12T09:37:09.794Z</time></trkpt><trkpt lat="42.3461035" lon="13.618588"><ele>1520.0</ele><time>2026-04-12T09:37:13.794Z</time></trkpt><trkpt lat="42.3460722" lon="13.6186878"><ele>1520.0</ele><time>2026-04-12T09:37:17.794Z</time></trkpt><trkpt lat="42.3460363" lon="13.6187793"><ele>1520.0</ele><time>2026-04-12T09:37:21.793Z</time></trkpt><trkpt lat="42.3460011" lon="13.618873"><ele>1520.0</ele><time>2026-04-12T09:37:25.794Z</time></trkpt><trkpt lat="42.3459697" lon="13.6189719"><ele>1521.5</ele><time>2026-04-12T09:37:29.794Z</time></trkpt><trkpt lat="42.3459301" lon="13.6190608"><ele>1523.0</ele><time>2026-04-12T09:37:33.794Z</time></trkpt><trkpt lat="42.3458894" lon="13.61914"><ele>1524.5</ele><time>2026-04-12T09:37:37.793Z</time></trkpt><trkpt lat="42.3458558" lon="13.6192329"><ele>1526.0</ele><time>2026-04-12T09:37:41.793Z</time></trkpt><trkpt lat="42.3458242" lon="13.6193274"><ele>1527.5</ele><time>2026-04-12T09:37:45.794Z</time></trkpt><trkpt lat="42.3457864" lon="13.6194216"><ele>1529.0</ele><time>2026-04-12T09:37:49.793Z</time></trkpt><trkpt lat="42.3457532" lon="13.6195167"><ele>1529.0</ele><time>2026-04-12T09:37:53.795Z</time></trkpt><trkpt lat="42.3457222" lon="13.6196084"><ele>1529.0</ele><time>2026-04-12T09:37:57.794Z</time></trkpt><trkpt lat="42.3456987" lon="13.6196982"><ele>1529.0</ele><time>2026-04-12T09:38:01.793Z</time></trkpt><trkpt lat="42.3456685" lon="13.6197929"><ele>1529.0</ele><time>2026-04-12T09:38:05.794Z</time></trkpt><trkpt lat="42.3456286" lon="13.6198837"><ele>1529.0</ele><time>2026-04-12T09:38:09.793Z</time></trkpt><trkpt lat="42.3455827" lon="13.6199633"><ele>1529.0</ele><time>2026-04-12T09:38:13.794Z</time></trkpt><trkpt lat="42.3455339" lon="13.620049"><ele>1529.0</ele><time>2026-04-12T09:38:17.794Z</time></trkpt><trkpt lat="42.3454941" lon="13.6201247"><ele>1529.0</ele><time>2026-04-12T09:38:20.794Z</time></trkpt><trkpt lat="42.3454431" lon="13.620224"><ele>1529.0</ele><time>2026-04-12T09:38:23.795Z</time></trkpt><trkpt lat="42.3453916" lon="13.6203213"><ele>1529.0</ele><time>2026-04-12T09:38:26.794Z</time></trkpt><trkpt lat="42.3453497" lon="13.6203957"><ele>1529.0</ele><time>2026-04-12T09:38:29.794Z</time></trkpt><trkpt lat="42.3452948" lon="13.6204656"><ele>1529.0</ele><time>2026-04-12T09:38:32.793Z</time></trkpt><trkpt lat="42.3452501" lon="13.6205414"><ele>1529.6</ele><time>2026-04-12T09:38:35.794Z</time></trkpt><trkpt lat="42.3451984" lon="13.6206332"><ele>1530.2</ele><time>2026-04-12T09:38:39.793Z</time></trkpt><trkpt lat="42.3451556" lon="13.6207046"><ele>1530.8</ele><time>2026-04-12T09:38:43.793Z</time></trkpt><trkpt lat="42.3451188" lon="13.6207821"><ele>1531.3999999999999</ele><time>2026-04-12T09:38:51.794Z</time></trkpt><trkpt lat="42.345072" lon="13.6208625"><ele>1532.0</ele><time>2026-04-12T09:44:04.791Z</time></trkpt><trkpt lat="42.3450437" lon="13.6213311"><ele>1532.0</ele><time>2026-04-12T09:46:40.792Z</time></trkpt><trkpt lat="42.3449883" lon="13.6213944"><ele>1532.0</ele><time>2026-04-12T09:46:43.791Z</time></trkpt><trkpt lat="42.3439155" lon="13.6251252"><ele>1510.3999999999999</ele><time>2026-04-12T09:48:41.791Z</time></trkpt><trkpt lat="42.3438443" lon="13.6252098"><ele>1488.8</ele><time>2026-04-12T09:49:43.79Z</time></trkpt><trkpt lat="42.3438499" lon="13.6253049"><ele>1467.2</ele><time>2026-04-12T09:50:09.792Z</time></trkpt><trkpt lat="42.3438622" lon="13.6254103"><ele>1445.6</ele><time>2026-04-12T09:50:11.79Z</time></trkpt><trkpt lat="42.343879" lon="13.625554"><ele>1424.0</ele><time>2026-04-12T09:50:13.791Z</time></trkpt><trkpt lat="42.3440254" lon="13.6264043"><ele>1424.0</ele><time>2026-04-12T09:50:22.578Z</time></trkpt><trkpt lat="42.3439979" lon="13.6265365"><ele>1424.0</ele><time>2026-04-12T09:50:23.577Z</time></trkpt><trkpt lat="42.3440341" lon="13.6266347"><ele>1424.0</ele><time>2026-04-12T09:50:25.578Z</time></trkpt><trkpt lat="42.3440178" lon="13.6267199"><ele>1424.0</ele><time>2026-04-12T09:50:26.577Z</time></trkpt><trkpt lat="42.3440185" lon="13.6268196"><ele>1424.0</ele><time>2026-04-12T09:50:28.791Z</time></trkpt><trkpt lat="42.3440436" lon="13.6269325"><ele>1424.0</ele><time>2026-04-12T09:50:31.792Z</time></trkpt><trkpt lat="42.3440675" lon="13.6270133"><ele>1424.4285714285713</ele><time>2026-04-12T09:50:45.79Z</time></trkpt><trkpt lat="42.3441337" lon="13.6270216"><ele>1424.857142857143</ele><time>2026-04-12T09:51:04.791Z</time></trkpt><trkpt lat="42.3441908" lon="13.6270623"><ele>1425.2857142857142</ele><time>2026-04-12T09:51:19.791Z</time></trkpt><trkpt lat="42.3442309" lon="13.6271578"><ele>1425.7142857142858</ele><time>2026-04-12T09:51:23.79Z</time></trkpt><trkpt lat="42.3442205" lon="13.627251"><ele>1426.142857142857</ele><time>2026-04-12T09:51:26.789Z</time></trkpt><trkpt lat="42.3442085" lon="13.6273564"><ele>1426.5714285714284</ele><time>2026-04-12T09:51:30.79Z</time></trkpt><trkpt lat="42.3442168" lon="13.6274495"><ele>1427.0</ele><time>2026-04-12T09:51:33.79Z</time></trkpt><trkpt lat="42.3442535" lon="13.6275277"><ele>1347.0</ele><time>2026-04-12T09:51:37.79Z</time></trkpt><trkpt lat="42.3448061" lon="13.6337391"><ele>1346.9999999999998</ele><time>2026-04-12T09:54:20.789Z</time></trkpt><trkpt lat="42.3447594" lon="13.6338137"><ele>1347.0</ele><time>2026-04-12T09:54:27.79Z</time></trkpt><trkpt lat="42.3447793" lon="13.6338999"><ele>1347.0</ele><time>2026-04-12T09:54:46.789Z</time></trkpt><trkpt lat="42.3447504" lon="13.6339794"><ele>1347.0</ele><time>2026-04-12T09:54:59.788Z</time></trkpt><trkpt lat="42.3447384" lon="13.634071"><ele>1347.0</ele><time>2026-04-12T09:55:13.789Z</time></trkpt><trkpt lat="42.3447665" lon="13.6341489"><ele>1346.9999999999998</ele><time>2026-04-12T09:55:21.788Z</time></trkpt><trkpt lat="42.3447467" lon="13.6342943"><ele>1347.0</ele><time>2026-04-12T09:55:24.788Z</time></trkpt><trkpt lat="42.3447264" lon="13.6344455"><ele>1344.6666666666667</ele><time>2026-04-12T09:55:26.788Z</time></trkpt><trkpt lat="42.3447008" lon="13.6345244"><ele>1342.3333333333333</ele><time>2026-04-12T09:55:27.789Z</time></trkpt><trkpt lat="42.3446785" lon="13.6346076"><ele>1340.0</ele><time>2026-04-12T09:55:28.788Z</time></trkpt><trkpt lat="42.3446543" lon="13.6347111"><ele>1337.6666666666665</ele><time>2026-04-12T09:55:29.788Z</time></trkpt><trkpt lat="42.3446334" lon="13.6348515"><ele>1335.3333333333333</ele><time>2026-04-12T09:55:30.788Z</time></trkpt><trkpt lat="42.3446231" lon="13.6350287"><ele>1333.0</ele><time>2026-04-12T09:55:31.788Z</time></trkpt><trkpt lat="42.344612" lon="13.6351467"><ele>1333.0</ele><time>2026-04-12T09:55:32.789Z</time></trkpt><trkpt lat="42.3446021" lon="13.6352424"><ele>1333.0</ele><time>2026-04-12T09:55:33.79Z</time></trkpt><trkpt lat="42.3446072" lon="13.6353388"><ele>1333.0</ele><time>2026-04-12T09:55:35.788Z</time></trkpt><trkpt lat="42.3445946" lon="13.6354613"><ele>1333.0</ele><time>2026-04-12T09:55:40.789Z</time></trkpt><trkpt lat="42.3446016" lon="13.6355729"><ele>1333.0</ele><time>2026-04-12T09:55:42.788Z</time></trkpt><trkpt lat="42.3446145" lon="13.635683"><ele>1333.0</ele><time>2026-04-12T09:55:44.789Z</time></trkpt><trkpt lat="42.3445995" lon="13.6357841"><ele>1331.7142857142856</ele><time>2026-04-12T09:55:46.79Z</time></trkpt><trkpt lat="42.3445817" lon="13.6358942"><ele>1330.4285714285713</ele><time>2026-04-12T09:55:48.789Z</time></trkpt><trkpt lat="42.3445672" lon="13.6359869"><ele>1329.142857142857</ele><time>2026-04-12T09:55:51.788Z</time></trkpt><trkpt lat="42.3445547" lon="13.6360716"><ele>1327.8571428571427</ele><time>2026-04-12T09:55:55.788Z</time></trkpt><trkpt lat="42.3445372" lon="13.6361652"><ele>1326.5714285714284</ele><time>2026-04-12T09:56:06.789Z</time></trkpt><trkpt lat="42.3445258" lon="13.6362817"><ele>1325.2857142857142</ele><time>2026-04-12T09:56:08.788Z</time></trkpt><trkpt lat="42.3445201" lon="13.6363694"><ele>1324.0</ele><time>2026-04-12T09:56:09.789Z</time></trkpt><trkpt lat="42.3445364" lon="13.6364581"><ele>1321.8000000000002</ele><time>2026-04-12T09:56:10.788Z</time></trkpt><trkpt lat="42.3445275" lon="13.636594"><ele>1319.6000000000001</ele><time>2026-04-12T09:56:12.788Z</time></trkpt><trkpt lat="42.3445" lon="13.6367482"><ele>1317.4</ele><time>2026-04-12T09:56:14.788Z</time></trkpt><trkpt lat="42.3444861" lon="13.6368494"><ele>1315.2</ele><time>2026-04-12T09:56:16.788Z</time></trkpt><trkpt lat="42.3444636" lon="13.6369568"><ele>1313.0</ele><time>2026-04-12T09:56:19.788Z</time></trkpt><trkpt lat="42.3444581" lon="13.6370866"><ele>1311.2857142857144</ele><time>2026-04-12T09:56:22.789Z</time></trkpt><trkpt lat="42.3444748" lon="13.6371968"><ele>1309.5714285714287</ele><time>2026-04-12T09:56:26.789Z</time></trkpt><trkpt lat="42.3444667" lon="13.6372852"><ele>1307.857142857143</ele><time>2026-04-12T09:56:30.789Z</time></trkpt><trkpt lat="42.3444592" lon="13.6373746"><ele>1306.1428571428573</ele><time>2026-04-12T09:56:35.79Z</time></trkpt><trkpt lat="42.3444446" lon="13.6374613"><ele>1304.4285714285716</ele><time>2026-04-12T09:56:46.789Z</time></trkpt><trkpt lat="42.3444404" lon="13.6375567"><ele>1302.7142857142858</ele><time>2026-04-12T09:57:02.787Z</time></trkpt><trkpt lat="42.3444399" lon="13.637642"><ele>1301.0</ele><time>2026-04-12T09:57:07.787Z</time></trkpt><trkpt lat="42.3444095" lon="13.6377371"><ele>1297.3333333333335</ele><time>2026-04-12T09:57:16.789Z</time></trkpt><trkpt lat="42.3444434" lon="13.6378104"><ele>1293.6666666666667</ele><time>2026-04-12T09:57:19.787Z</time></trkpt><trkpt lat="42.3444639" lon="13.6378911"><ele>1290.0</ele><time>2026-04-12T09:57:21.787Z</time></trkpt><trkpt lat="42.344458" lon="13.6379775"><ele>1286.3333333333333</ele><time>2026-04-12T09:57:23.788Z</time></trkpt><trkpt lat="42.3444417" lon="13.6380983"><ele>1282.6666666666665</ele><time>2026-04-12T09:57:26.788Z</time></trkpt><trkpt lat="42.3444649" lon="13.6381952"><ele>1279.0</ele><time>2026-04-12T09:57:31.787Z</time></trkpt><trkpt lat="42.34455" lon="13.6382591"><ele>1279.0</ele><time>2026-04-12T09:57:38.787Z</time></trkpt><trkpt lat="42.3445008" lon="13.6383732"><ele>1279.0</ele><time>2026-04-12T09:57:41.788Z</time></trkpt><trkpt lat="42.3444443" lon="13.6384607"><ele>1279.0</ele><time>2026-04-12T09:57:44.787Z</time></trkpt><trkpt lat="42.3444173" lon="13.6385423"><ele>1279.0</ele><time>2026-04-12T09:57:47.788Z</time></trkpt><trkpt lat="42.3444888" lon="13.6385409"><ele>1279.0</ele><time>2026-04-12T09:57:49.787Z</time></trkpt><trkpt lat="42.3445847" lon="13.6384358"><ele>1279.0</ele><time>2026-04-12T09:57:50.787Z</time></trkpt><trkpt lat="42.3446657" lon="13.6383482"><ele>1279.0</ele><time>2026-04-12T09:57:52.788Z</time></trkpt><trkpt lat="42.3447456" lon="13.6382951"><ele>1279.0</ele><time>2026-04-12T09:57:54.788Z</time></trkpt><trkpt lat="42.3448181" lon="13.6382677"><ele>1279.0</ele><time>2026-04-12T09:57:57.788Z</time></trkpt><trkpt lat="42.3447706" lon="13.6383494"><ele>1279.0</ele><time>2026-04-12T09:57:58.788Z</time></trkpt><trkpt lat="42.3447415" lon="13.6384769"><ele>1279.0</ele><time>2026-04-12T09:58:00.787Z</time></trkpt><trkpt lat="42.3447093" lon="13.6385757"><ele>1279.0</ele><time>2026-04-12T09:58:01.788Z</time></trkpt><trkpt lat="42.344708" lon="13.6386822"><ele>1276.1666666666665</ele><time>2026-04-12T09:58:02.789Z</time></trkpt><trkpt lat="42.3447097" lon="13.638788"><ele>1273.3333333333333</ele><time>2026-04-12T09:58:03.787Z</time></trkpt><trkpt lat="42.3446899" lon="13.6389002"><ele>1270.5</ele><time>2026-04-12T09:58:04.787Z</time></trkpt><trkpt lat="42.3446623" lon="13.6389985"><ele>1267.6666666666667</ele><time>2026-04-12T09:58:05.788Z</time></trkpt><trkpt lat="42.3446678" lon="13.639158"><ele>1264.8333333333335</ele><time>2026-04-12T09:58:07.788Z</time></trkpt><trkpt lat="42.3446736" lon="13.6392586"><ele>1262.0</ele><time>2026-04-12T09:58:08.787Z</time></trkpt><trkpt lat="42.3446909" lon="13.6393526"><ele>1262.0</ele><time>2026-04-12T09:58:09.787Z</time></trkpt><trkpt lat="42.3447073" lon="13.6394543"><ele>1262.0</ele><time>2026-04-12T09:58:10.788Z</time></trkpt><trkpt lat="42.3447071" lon="13.6395567"><ele>1262.0</ele><time>2026-04-12T09:58:11.788Z</time></trkpt><trkpt lat="42.3447022" lon="13.6396648"><ele>1262.0</ele><time>2026-04-12T09:58:12.788Z</time></trkpt><trkpt lat="42.3446841" lon="13.6397507"><ele>1262.0</ele><time>2026-04-12T09:58:13.788Z</time></trkpt><trkpt lat="42.3446655" lon="13.6399185"><ele>1262.0</ele><time>2026-04-12T09:58:15.788Z</time></trkpt><trkpt lat="42.3446392" lon="13.6400545"><ele>1260.3333333333335</ele><time>2026-04-12T09:58:17.788Z</time></trkpt><trkpt lat="42.3446157" lon="13.6401509"><ele>1258.6666666666667</ele><time>2026-04-12T09:58:19.788Z</time></trkpt><trkpt lat="42.3445952" lon="13.6402526"><ele>1257.0</ele><time>2026-04-12T09:58:21.788Z</time></trkpt><trkpt lat="42.344566" lon="13.6403487"><ele>1255.3333333333333</ele><time>2026-04-12T09:58:23.789Z</time></trkpt><trkpt lat="42.3446053" lon="13.6404213"><ele>1253.6666666666665</ele><time>2026-04-12T09:58:24.788Z</time></trkpt><trkpt lat="42.3445933" lon="13.640584"><ele>1252.0</ele><time>2026-04-12T09:58:26.788Z</time></trkpt><trkpt lat="42.3445598" lon="13.64066"><ele>1250.6666666666665</ele><time>2026-04-12T09:58:29.787Z</time></trkpt><trkpt lat="42.3445323" lon="13.6407612"><ele>1249.3333333333333</ele><time>2026-04-12T09:59:09.788Z</time></trkpt><trkpt lat="42.3444966" lon="13.6408481"><ele>1248.0</ele><time>2026-04-12T09:59:12.788Z</time></trkpt><trkpt lat="42.3445259" lon="13.6409544"><ele>1246.6666666666667</ele><time>2026-04-12T09:59:15.788Z</time></trkpt><trkpt lat="42.3445485" lon="13.6410487"><ele>1245.3333333333335</ele><time>2026-04-12T09:59:18.788Z</time></trkpt><trkpt lat="42.3445943" lon="13.6411251"><ele>1244.0</ele><time>2026-04-12T09:59:21.788Z</time></trkpt><trkpt lat="42.3446382" lon="13.6412187"><ele>1244.0</ele><time>2026-04-12T09:59:24.789Z</time></trkpt><trkpt lat="42.3446629" lon="13.6413166"><ele>1244.0</ele><time>2026-04-12T09:59:27.788Z</time></trkpt><trkpt lat="42.3446736" lon="13.6414156"><ele>1244.0</ele><time>2026-04-12T09:59:30.787Z</time></trkpt><trkpt lat="42.3446781" lon="13.6415082"><ele>1244.0</ele><time>2026-04-12T09:59:33.787Z</time></trkpt><trkpt lat="42.344678" lon="13.6415997"><ele>1244.0</ele><time>2026-04-12T09:59:36.788Z</time></trkpt><trkpt lat="42.3446811" lon="13.6416988"><ele>1244.0</ele><time>2026-04-12T09:59:39.788Z</time></trkpt><trkpt lat="42.3446782" lon="13.6418091"><ele>1244.0</ele><time>2026-04-12T09:59:42.787Z</time></trkpt><trkpt lat="42.3446602" lon="13.6419327"><ele>1245.1666666666667</ele><time>2026-04-12T09:59:45.787Z</time></trkpt><trkpt lat="42.3446455" lon="13.6420278"><ele>1246.3333333333335</ele><time>2026-04-12T09:59:47.789Z</time></trkpt><trkpt lat="42.3446317" lon="13.6421155"><ele>1247.5</ele><time>2026-04-12T09:59:49.787Z</time></trkpt><trkpt lat="42.344614" lon="13.6422375"><ele>1248.6666666666667</ele><time>2026-04-12T09:59:52.788Z</time></trkpt><trkpt lat="42.3446037" lon="13.6423265"><ele>1249.8333333333333</ele><time>2026-04-12T09:59:54.789Z</time></trkpt><trkpt lat="42.3445938" lon="13.6424445"><ele>1251.0</ele><time>2026-04-12T09:59:57.788Z</time></trkpt><trkpt lat="42.3445725" lon="13.642562"><ele>1251.0</ele><time>2026-04-12T10:00:00.788Z</time></trkpt><trkpt lat="42.3445403" lon="13.6426357"><ele>1251.0</ele><time>2026-04-12T10:00:02.787Z</time></trkpt><trkpt lat="42.344486" lon="13.6427359"><ele>1251.0</ele><time>2026-04-12T10:00:05.788Z</time></trkpt><trkpt lat="42.3444368" lon="13.642825"><ele>1251.0</ele><time>2026-04-12T10:00:08.787Z</time></trkpt><trkpt lat="42.3444014" lon="13.6428983"><ele>1251.0</ele><time>2026-04-12T10:00:10.787Z</time></trkpt><trkpt lat="42.3443621" lon="13.6429888"><ele>1251.0</ele><time>2026-04-12T10:00:13.787Z</time></trkpt><trkpt lat="42.3443562" lon="13.6430762"><ele>1251.0</ele><time>2026-04-12T10:00:16.787Z</time></trkpt><trkpt lat="42.3443315" lon="13.6431853"><ele>1252.142857142857</ele><time>2026-04-12T10:00:20.788Z</time></trkpt><trkpt lat="42.3442744" lon="13.6432796"><ele>1253.2857142857144</ele><time>2026-04-12T10:00:23.787Z</time></trkpt><trkpt lat="42.3442176" lon="13.6433344"><ele>1254.4285714285716</ele><time>2026-04-12T10:00:26.787Z</time></trkpt><trkpt lat="42.3441599" lon="13.6433725"><ele>1255.5714285714284</ele><time>2026-04-12T10:00:30.788Z</time></trkpt><trkpt lat="42.3440901" lon="13.6433761"><ele>1256.7142857142858</ele><time>2026-04-12T10:00:35.787Z</time></trkpt><trkpt lat="42.3440196" lon="13.6434147"><ele>1257.857142857143</ele><time>2026-04-12T10:00:37.787Z</time></trkpt><trkpt lat="42.343959" lon="13.6434472"><ele>1259.0</ele><time>2026-04-12T10:00:39.789Z</time></trkpt><trkpt lat="42.3438974" lon="13.6434938"><ele>1248.0</ele><time>2026-04-12T10:00:41.787Z</time></trkpt><trkpt lat="42.3434555" lon="13.6440727"><ele>1248.0</ele><time>2026-04-12T10:00:56.788Z</time></trkpt><trkpt lat="42.3434218" lon="13.644162"><ele>1248.0</ele><time>2026-04-12T10:00:57.788Z</time></trkpt><trkpt lat="42.3433997" lon="13.6442494"><ele>1248.0</ele><time>2026-04-12T10:00:59.787Z</time></trkpt><trkpt lat="42.3433436" lon="13.6443345"><ele>1248.0</ele><time>2026-04-12T10:01:03.788Z</time></trkpt><trkpt lat="42.3433815" lon="13.6442649"><ele>1248.0</ele><time>2026-04-12T10:02:01.787Z</time></trkpt><trkpt lat="42.3433969" lon="13.6441772"><ele>1248.0</ele><time>2026-04-12T10:02:10.786Z</time></trkpt><trkpt lat="42.3435114" lon="13.6441673"><ele>1248.0</ele><time>2026-04-12T10:04:25.786Z</time></trkpt><trkpt lat="42.3434481" lon="13.6442875"><ele>1248.0</ele><time>2026-04-12T10:06:15.785Z</time></trkpt><trkpt lat="42.3433689" lon="13.6443192"><ele>1248.0</ele><time>2026-04-12T10:06:20.786Z</time></trkpt><trkpt lat="42.3433672" lon="13.6444094"><ele>1248.0</ele><time>2026-04-12T10:06:24.786Z</time></trkpt><trkpt lat="42.3434285" lon="13.6444442"><ele>1248.0</ele><time>2026-04-12T10:06:27.786Z</time></trkpt><trkpt lat="42.3433617" lon="13.6444582"><ele>1248.0</ele><time>2026-04-12T10:06:32.787Z</time></trkpt><trkpt lat="42.3434258" lon="13.6444279"><ele>1248.0</ele><time>2026-04-12T10:06:55.785Z</time></trkpt><trkpt lat="42.3434299" lon="13.6443408"><ele>1248.0</ele><time>2026-04-12T10:07:12.785Z</time></trkpt><trkpt lat="42.3434382" lon="13.6444259"><ele>1248.0</ele><time>2026-04-12T10:07:49.786Z</time></trkpt><trkpt lat="42.3434692" lon="13.6443437"><ele>1248.0</ele><time>2026-04-12T10:08:20.786Z</time></trkpt><trkpt lat="42.3435247" lon="13.6443923"><ele>1248.0</ele><time>2026-04-12T10:08:35.785Z</time></trkpt><trkpt lat="42.3434886" lon="13.6444727"><ele>1248.0</ele><time>2026-04-12T10:08:39.785Z</time></trkpt><trkpt lat="42.3434298" lon="13.6445551"><ele>1248.0</ele><time>2026-04-12T10:08:42.785Z</time></trkpt><trkpt lat="42.3433502" lon="13.6446359"><ele>1247.7142857142858</ele><time>2026-04-12T10:08:44.786Z</time></trkpt><trkpt lat="42.3432846" lon="13.6447142"><ele>1247.4285714285713</ele><time>2026-04-12T10:08:46.786Z</time></trkpt><trkpt lat="42.3432423" lon="13.6448017"><ele>1247.142857142857</ele><time>2026-04-12T10:08:48.785Z</time></trkpt><trkpt lat="42.3432273" lon="13.6448906"><ele>1246.857142857143</ele><time>2026-04-12T10:08:50.785Z</time></trkpt><trkpt lat="42.3432471" lon="13.6449787"><ele>1246.5714285714284</ele><time>2026-04-12T10:08:53.784Z</time></trkpt><trkpt lat="42.3432936" lon="13.6450374"><ele>1246.2857142857142</ele><time>2026-04-12T10:08:59.784Z</time></trkpt><trkpt lat="42.343232" lon="13.6449921"><ele>1246.0</ele><time>2026-04-12T10:09:06.785Z</time></trkpt><trkpt lat="42.3432163" lon="13.6448902"><ele>1246.0</ele><time>2026-04-12T10:09:10.785Z</time></trkpt><trkpt lat="42.3432162" lon="13.6447961"><ele>1246.0</ele><time>2026-04-12T10:09:13.784Z</time></trkpt><trkpt lat="42.3432566" lon="13.6447215"><ele>1246.0</ele><time>2026-04-12T10:09:16.785Z</time></trkpt><trkpt lat="42.3433251" lon="13.6446826"><ele>1246.0</ele><time>2026-04-12T10:09:19.785Z</time></trkpt><trkpt lat="42.343393" lon="13.6446352"><ele>1246.0</ele><time>2026-04-12T10:09:22.785Z</time></trkpt><trkpt lat="42.343445" lon="13.6445729"><ele>1246.0</ele><time>2026-04-12T10:09:25.785Z</time></trkpt><trkpt lat="42.3434379" lon="13.6444795"><ele>1246.0</ele><time>2026-04-12T10:09:28.786Z</time></trkpt><trkpt lat="42.3434356" lon="13.6443768"><ele>1246.2857142857142</ele><time>2026-04-12T10:09:31.786Z</time></trkpt><trkpt lat="42.3434638" lon="13.6442939"><ele>1246.5714285714284</ele><time>2026-04-12T10:09:34.784Z</time></trkpt><trkpt lat="42.343471" lon="13.6441813"><ele>1246.857142857143</ele><time>2026-04-12T10:09:37.786Z</time></trkpt><trkpt lat="42.3435086" lon="13.6441069"><ele>1247.142857142857</ele><time>2026-04-12T10:09:40.785Z</time></trkpt><trkpt lat="42.3435267" lon="13.6440169"><ele>1247.4285714285713</ele><time>2026-04-12T10:09:42.785Z</time></trkpt><trkpt lat="42.3435473" lon="13.6439341"><ele>1247.7142857142858</ele><time>2026-04-12T10:09:44.785Z</time></trkpt><trkpt lat="42.3435479" lon="13.6438204"><ele>1248.0</ele><time>2026-04-12T10:09:45.784Z</time></trkpt><trkpt lat="42.3435674" lon="13.6437371"><ele>1248.0</ele><time>2026-04-12T10:09:46.785Z</time></trkpt><trkpt lat="42.3435991" lon="13.6436581"><ele>1248.0</ele><time>2026-04-12T10:09:47.785Z</time></trkpt><trkpt lat="42.343624" lon="13.643571"><ele>1248.0</ele><time>2026-04-12T10:09:48.785Z</time></trkpt><trkpt lat="42.3436873" lon="13.6434678"><ele>1248.0</ele><time>2026-04-12T10:09:50.786Z</time></trkpt><trkpt lat="42.3437377" lon="13.6433819"><ele>1248.0</ele><time>2026-04-12T10:09:53.785Z</time></trkpt><trkpt lat="42.3437737" lon="13.643301"><ele>1248.0</ele><time>2026-04-12T10:09:56.784Z</time></trkpt><trkpt lat="42.3438162" lon="13.6432294"><ele>1248.5</ele><time>2026-04-12T10:09:59.784Z</time></trkpt><trkpt lat="42.3438766" lon="13.6431529"><ele>1249.0</ele><time>2026-04-12T10:10:02.784Z</time></trkpt><trkpt lat="42.3439318" lon="13.6430748"><ele>1249.5</ele><time>2026-04-12T10:10:05.784Z</time></trkpt><trkpt lat="42.3439774" lon="13.6430048"><ele>1250.0</ele><time>2026-04-12T10:10:08.786Z</time></trkpt><trkpt lat="42.3439948" lon="13.6429222"><ele>1250.5</ele><time>2026-04-12T10:10:10.784Z</time></trkpt><trkpt lat="42.3440171" lon="13.6428014"><ele>1251.0</ele><time>2026-04-12T10:10:13.784Z</time></trkpt><trkpt lat="42.3440245" lon="13.6426671"><ele>1251.0</ele><time>2026-04-12T10:10:16.786Z</time></trkpt><trkpt lat="42.3440244" lon="13.6425585"><ele>1251.0</ele><time>2026-04-12T10:10:18.785Z</time></trkpt><trkpt lat="42.3440387" lon="13.6424562"><ele>1251.0</ele><time>2026-04-12T10:10:20.785Z</time></trkpt><trkpt lat="42.3440706" lon="13.6423402"><ele>1251.0</ele><time>2026-04-12T10:10:22.785Z</time></trkpt><trkpt lat="42.3440963" lon="13.6422279"><ele>1251.0</ele><time>2026-04-12T10:10:24.785Z</time></trkpt><trkpt lat="42.3441248" lon="13.6421513"><ele>1251.0</ele><time>2026-04-12T10:10:26.785Z</time></trkpt><trkpt lat="42.3441359" lon="13.6420606"><ele>1249.8333333333333</ele><time>2026-04-12T10:10:29.784Z</time></trkpt><trkpt lat="42.3441726" lon="13.6419614"><ele>1248.6666666666667</ele><time>2026-04-12T10:10:32.785Z</time></trkpt><trkpt lat="42.344214" lon="13.6418536"><ele>1247.5</ele><time>2026-04-12T10:10:35.784Z</time></trkpt><trkpt lat="42.344248" lon="13.6417374"><ele>1246.3333333333335</ele><time>2026-04-12T10:10:38.785Z</time></trkpt><trkpt lat="42.3442757" lon="13.6416557"><ele>1245.1666666666667</ele><time>2026-04-12T10:10:40.786Z</time></trkpt><trkpt lat="42.3443028" lon="13.641568"><ele>1244.0</ele><time>2026-04-12T10:10:42.786Z</time></trkpt><trkpt lat="42.344345" lon="13.6414887"><ele>1244.0</ele><time>2026-04-12T10:10:44.785Z</time></trkpt><trkpt lat="42.3443926" lon="13.6413991"><ele>1244.0</ele><time>2026-04-12T10:10:46.785Z</time></trkpt><trkpt lat="42.3444472" lon="13.641301"><ele>1244.0</ele><time>2026-04-12T10:10:48.784Z</time></trkpt><trkpt lat="42.344501" lon="13.6412121"><ele>1244.0</ele><time>2026-04-12T10:10:50.784Z</time></trkpt><trkpt lat="42.3445588" lon="13.6411157"><ele>1244.0</ele><time>2026-04-12T10:10:52.784Z</time></trkpt><trkpt lat="42.3445059" lon="13.6409904"><ele>1243.5</ele><time>2026-04-12T10:10:54.784Z</time></trkpt><trkpt lat="42.3444847" lon="13.6408844"><ele>1243.0</ele><time>2026-04-12T10:10:56.784Z</time></trkpt><trkpt lat="42.3445399" lon="13.640828"><ele>1242.5</ele><time>2026-04-12T10:10:58.786Z</time></trkpt><trkpt lat="42.3445908" lon="13.6408913"><ele>1242.0</ele><time>2026-04-12T10:11:00.786Z</time></trkpt><trkpt lat="42.3446521" lon="13.6409526"><ele>1241.5</ele><time>2026-04-12T10:11:02.785Z</time></trkpt><trkpt lat="42.3447093" lon="13.6410284"><ele>1241.0</ele><time>2026-04-12T10:11:04.784Z</time></trkpt><trkpt lat="42.3447588" lon="13.641131"><ele>1240.0</ele><time>2026-04-12T10:11:06.785Z</time></trkpt><trkpt lat="42.3447921" lon="13.6412638"><ele>1239.0</ele><time>2026-04-12T10:11:08.784Z</time></trkpt><trkpt lat="42.3448226" lon="13.6414156"><ele>1238.0</ele><time>2026-04-12T10:11:10.786Z</time></trkpt><trkpt lat="42.3448399" lon="13.6415803"><ele>1237.0</ele><time>2026-04-12T10:11:12.786Z</time></trkpt><trkpt lat="42.344843" lon="13.6416676"><ele>1236.0</ele><time>2026-04-12T10:11:13.785Z</time></trkpt><trkpt lat="42.3448447" lon="13.6417578"><ele>1236.0</ele><time>2026-04-12T10:11:14.785Z</time></trkpt><trkpt lat="42.3448457" lon="13.6418502"><ele>1236.0</ele><time>2026-04-12T10:11:15.785Z</time></trkpt><trkpt lat="42.3448409" lon="13.6419485"><ele>1236.0</ele><time>2026-04-12T10:11:16.785Z</time></trkpt><trkpt lat="42.3448363" lon="13.642048"><ele>1236.0</ele><time>2026-04-12T10:11:17.785Z</time></trkpt><trkpt lat="42.3448349" lon="13.6421512"><ele>1236.0</ele><time>2026-04-12T10:11:18.785Z</time></trkpt><trkpt lat="42.3448416" lon="13.6422597"><ele>1236.0</ele><time>2026-04-12T10:11:19.786Z</time></trkpt><trkpt lat="42.3448449" lon="13.6423654"><ele>1236.1666666666667</ele><time>2026-04-12T10:11:20.784Z</time></trkpt><trkpt lat="42.3448473" lon="13.6424762"><ele>1236.3333333333333</ele><time>2026-04-12T10:11:21.785Z</time></trkpt><trkpt lat="42.344856" lon="13.6425873"><ele>1236.5</ele><time>2026-04-12T10:11:22.785Z</time></trkpt><trkpt lat="42.3448585" lon="13.6426964"><ele>1236.6666666666665</ele><time>2026-04-12T10:11:23.784Z</time></trkpt><trkpt lat="42.3448594" lon="13.6428099"><ele>1236.8333333333333</ele><time>2026-04-12T10:11:24.785Z</time></trkpt><trkpt lat="42.3448567" lon="13.6429253"><ele>1237.0</ele><time>2026-04-12T10:11:25.785Z</time></trkpt><trkpt lat="42.3448551" lon="13.6430405"><ele>1236.6</ele><time>2026-04-12T10:11:26.785Z</time></trkpt><trkpt lat="42.3448539" lon="13.6431611"><ele>1236.2</ele><time>2026-04-12T10:11:27.784Z</time></trkpt><trkpt lat="42.344848" lon="13.6432824"><ele>1235.8</ele><time>2026-04-12T10:11:28.785Z</time></trkpt><trkpt lat="42.3448409" lon="13.6434027"><ele>1235.4</ele><time>2026-04-12T10:11:29.785Z</time></trkpt><trkpt lat="42.3448358" lon="13.6435246"><ele>1235.0</ele><time>2026-04-12T10:11:30.785Z</time></trkpt><trkpt lat="42.3448392" lon="13.6436491"><ele>1233.8</ele><time>2026-04-12T10:11:31.785Z</time></trkpt><trkpt lat="42.3448288" lon="13.643774"><ele>1232.6</ele><time>2026-04-12T10:11:32.784Z</time></trkpt><trkpt lat="42.3448139" lon="13.6439044"><ele>1231.4</ele><time>2026-04-12T10:11:33.784Z</time></trkpt><trkpt lat="42.3447992" lon="13.6440319"><ele>1230.2</ele><time>2026-04-12T10:11:34.785Z</time></trkpt><trkpt lat="42.34479" lon="13.6441636"><ele>1229.0</ele><time>2026-04-12T10:11:35.784Z</time></trkpt><trkpt lat="42.344769" lon="13.6442984"><ele>1229.0</ele><time>2026-04-12T10:11:36.784Z</time></trkpt><trkpt lat="42.3447527" lon="13.6444252"><ele>1229.0</ele><time>2026-04-12T10:11:37.785Z</time></trkpt><trkpt lat="42.3447433" lon="13.6445526"><ele>1229.0</ele><time>2026-04-12T10:11:38.785Z</time></trkpt><trkpt lat="42.3447451" lon="13.6446589"><ele>1229.0</ele><time>2026-04-12T10:11:39.785Z</time></trkpt><trkpt lat="42.3447401" lon="13.6447791"><ele>1229.0</ele><time>2026-04-12T10:11:40.786Z</time></trkpt><trkpt lat="42.3447483" lon="13.6448967"><ele>1229.0</ele><time>2026-04-12T10:11:41.786Z</time></trkpt><trkpt lat="42.3447582" lon="13.6450271"><ele>1228.8333333333335</ele><time>2026-04-12T10:11:42.785Z</time></trkpt><trkpt lat="42.3447595" lon="13.6451284"><ele>1228.6666666666667</ele><time>2026-04-12T10:11:43.785Z</time></trkpt><trkpt lat="42.3447793" lon="13.6452101"><ele>1228.5</ele><time>2026-04-12T10:11:44.785Z</time></trkpt><trkpt lat="42.3448218" lon="13.6453413"><ele>1228.3333333333333</ele><time>2026-04-12T10:11:46.785Z</time></trkpt><trkpt lat="42.3448948" lon="13.6454421"><ele>1228.1666666666665</ele><time>2026-04-12T10:11:48.785Z</time></trkpt><trkpt lat="42.3449853" lon="13.6454374"><ele>1228.0</ele><time>2026-04-12T10:11:50.786Z</time></trkpt><trkpt lat="42.3450795" lon="13.6453802"><ele>1228.4</ele><time>2026-04-12T10:11:52.785Z</time></trkpt><trkpt lat="42.3452026" lon="13.6453697"><ele>1228.8</ele><time>2026-04-12T10:11:54.785Z</time></trkpt><trkpt lat="42.345303" lon="13.6453929"><ele>1229.2</ele><time>2026-04-12T10:11:55.785Z</time></trkpt><trkpt lat="42.3453749" lon="13.645428"><ele>1229.6</ele><time>2026-04-12T10:11:56.785Z</time></trkpt><trkpt lat="42.3454418" lon="13.6454299"><ele>1230.0</ele><time>2026-04-12T10:11:57.785Z</time></trkpt><trkpt lat="42.3455586" lon="13.6454471"><ele>1229.3333333333333</ele><time>2026-04-12T10:11:59.785Z</time></trkpt><trkpt lat="42.3456577" lon="13.645366"><ele>1228.6666666666667</ele><time>2026-04-12T10:12:01.786Z</time></trkpt><trkpt lat="42.3457077" lon="13.6452775"><ele>1228.0</ele><time>2026-04-12T10:12:02.786Z</time></trkpt><trkpt lat="42.3457539" lon="13.6452107"><ele>1227.3333333333335</ele><time>2026-04-12T10:12:03.786Z</time></trkpt><trkpt lat="42.345797" lon="13.6451481"><ele>1226.6666666666667</ele><time>2026-04-12T10:12:04.785Z</time></trkpt><trkpt lat="42.3458449" lon="13.6450887"><ele>1226.0</ele><time>2026-04-12T10:12:05.785Z</time></trkpt><trkpt lat="42.3458965" lon="13.6450329"><ele>1225.6</ele><time>2026-04-12T10:12:06.785Z</time></trkpt><trkpt lat="42.3459823" lon="13.6449329"><ele>1225.1999999999998</ele><time>2026-04-12T10:12:08.784Z</time></trkpt><trkpt lat="42.346062" lon="13.6448364"><ele>1224.8000000000002</ele><time>2026-04-12T10:12:10.784Z</time></trkpt><trkpt lat="42.3461509" lon="13.644751"><ele>1224.4</ele><time>2026-04-12T10:12:12.784Z</time></trkpt><trkpt lat="42.3462304" lon="13.6446516"><ele>1224.0</ele><time>2026-04-12T10:12:14.784Z</time></trkpt><trkpt lat="42.3463009" lon="13.6445558"><ele>1224.0</ele><time>2026-04-12T10:12:16.783Z</time></trkpt><trkpt lat="42.3463739" lon="13.6444727"><ele>1224.0</ele><time>2026-04-12T10:12:18.783Z</time></trkpt><trkpt lat="42.3464553" lon="13.6444117"><ele>1224.0</ele><time>2026-04-12T10:12:20.783Z</time></trkpt><trkpt lat="42.3465381" lon="13.6443567"><ele>1224.0</ele><time>2026-04-12T10:12:22.784Z</time></trkpt><trkpt lat="42.3466145" lon="13.644286"><ele>1224.0</ele><time>2026-04-12T10:12:24.784Z</time></trkpt><trkpt lat="42.3466718" lon="13.6441773"><ele>1223.6000000000001</ele><time>2026-04-12T10:12:26.784Z</time></trkpt><trkpt lat="42.3467131" lon="13.6440571"><ele>1223.2</ele><time>2026-04-12T10:12:28.783Z</time></trkpt><trkpt lat="42.3467345" lon="13.643923"><ele>1222.8000000000002</ele><time>2026-04-12T10:12:30.783Z</time></trkpt><trkpt lat="42.3467545" lon="13.6437943"><ele>1222.4</ele><time>2026-04-12T10:12:32.784Z</time></trkpt><trkpt lat="42.3467706" lon="13.643658"><ele>1222.0</ele><time>2026-04-12T10:12:34.785Z</time></trkpt><trkpt lat="42.3467924" lon="13.6435194"><ele>1222.0</ele><time>2026-04-12T10:12:36.784Z</time></trkpt><trkpt lat="42.3468117" lon="13.6433923"><ele>1222.0</ele><time>2026-04-12T10:12:38.785Z</time></trkpt><trkpt lat="42.3468373" lon="13.6432699"><ele>1222.0</ele><time>2026-04-12T10:12:40.784Z</time></trkpt><trkpt lat="42.3468656" lon="13.6431418"><ele>1222.0</ele><time>2026-04-12T10:12:42.783Z</time></trkpt><trkpt lat="42.3468886" lon="13.6430146"><ele>1222.0</ele><time>2026-04-12T10:12:44.784Z</time></trkpt><trkpt lat="42.3469141" lon="13.6428811"><ele>1221.8</ele><time>2026-04-12T10:12:46.783Z</time></trkpt><trkpt lat="42.3469299" lon="13.6427532"><ele>1221.6</ele><time>2026-04-12T10:12:48.784Z</time></trkpt><trkpt lat="42.3469462" lon="13.6426137"><ele>1221.3999999999999</ele><time>2026-04-12T10:12:50.783Z</time></trkpt><trkpt lat="42.3469651" lon="13.6424751"><ele>1221.2</ele><time>2026-04-12T10:12:52.783Z</time></trkpt><trkpt lat="42.3469786" lon="13.6423393"><ele>1221.0</ele><time>2026-04-12T10:12:54.785Z</time></trkpt><trkpt lat="42.346997" lon="13.6422048"><ele>1221.0</ele><time>2026-04-12T10:12:56.784Z</time></trkpt><trkpt lat="42.347012" lon="13.6420709"><ele>1221.0</ele><time>2026-04-12T10:12:58.784Z</time></trkpt><trkpt lat="42.3470257" lon="13.6419367"><ele>1221.0</ele><time>2026-04-12T10:13:00.784Z</time></trkpt><trkpt lat="42.3470455" lon="13.64181"><ele>1221.0</ele><time>2026-04-12T10:13:02.783Z</time></trkpt><trkpt lat="42.347063" lon="13.6416778"><ele>1221.0</ele><time>2026-04-12T10:13:04.784Z</time></trkpt><trkpt lat="42.3470787" lon="13.6415493"><ele>1221.3999999999999</ele><time>2026-04-12T10:13:06.783Z</time></trkpt><trkpt lat="42.3470951" lon="13.641414"><ele>1221.8</ele><time>2026-04-12T10:13:08.783Z</time></trkpt><trkpt lat="42.3471119" lon="13.641286"><ele>1222.1999999999998</ele><time>2026-04-12T10:13:10.784Z</time></trkpt><trkpt lat="42.3471208" lon="13.6411565"><ele>1222.6</ele><time>2026-04-12T10:13:12.783Z</time></trkpt><trkpt lat="42.3471367" lon="13.6410258"><ele>1223.0</ele><time>2026-04-12T10:13:14.783Z</time></trkpt><trkpt lat="42.3471488" lon="13.6408968"><ele>1223.0</ele><time>2026-04-12T10:13:16.784Z</time></trkpt><trkpt lat="42.3471616" lon="13.6407689"><ele>1223.0</ele><time>2026-04-12T10:13:18.784Z</time></trkpt><trkpt lat="42.3471747" lon="13.640639"><ele>1223.0</ele><time>2026-04-12T10:13:20.784Z</time></trkpt><trkpt lat="42.347189" lon="13.6405123"><ele>1223.0</ele><time>2026-04-12T10:13:22.783Z</time></trkpt><trkpt lat="42.3471987" lon="13.6403968"><ele>1223.0</ele><time>2026-04-12T10:13:24.785Z</time></trkpt><trkpt lat="42.3472237" lon="13.6403078"><ele>1223.0</ele><time>2026-04-12T10:13:26.785Z</time></trkpt><trkpt lat="42.347233" lon="13.640223"><ele>1223.3333333333335</ele><time>2026-04-12T10:13:29.785Z</time></trkpt><trkpt lat="42.3472473" lon="13.640138"><ele>1223.6666666666667</ele><time>2026-04-12T10:13:34.785Z</time></trkpt><trkpt lat="42.3472487" lon="13.6400463"><ele>1224.0</ele><time>2026-04-12T10:13:39.783Z</time></trkpt><trkpt lat="42.3472035" lon="13.6401083"><ele>1224.3333333333333</ele><time>2026-04-12T10:13:42.783Z</time></trkpt><trkpt lat="42.3472174" lon="13.6402054"><ele>1224.6666666666665</ele><time>2026-04-12T10:13:43.784Z</time></trkpt><trkpt lat="42.3472069" lon="13.6403365"><ele>1225.0</ele><time>2026-04-12T10:13:45.783Z</time></trkpt><trkpt lat="42.3471985" lon="13.6404623"><ele>1225.0</ele><time>2026-04-12T10:13:47.784Z</time></trkpt><trkpt lat="42.347262" lon="13.6404851"><ele>1225.0</ele><time>2026-04-12T10:13:50.785Z</time></trkpt><trkpt lat="42.347302" lon="13.64039"><ele>1225.0</ele><time>2026-04-12T10:13:52.785Z</time></trkpt><trkpt lat="42.3473191" lon="13.6402566"><ele>1225.0</ele><time>2026-04-12T10:13:54.784Z</time></trkpt><trkpt lat="42.347333" lon="13.6401183"><ele>1225.0</ele><time>2026-04-12T10:13:56.783Z</time></trkpt><trkpt lat="42.3473641" lon="13.6399964"><ele>1225.0</ele><time>2026-04-12T10:13:58.783Z</time></trkpt><trkpt lat="42.3473946" lon="13.6398632"><ele>1225.0</ele><time>2026-04-12T10:14:00.784Z</time></trkpt><trkpt lat="42.3474252" lon="13.6397308"><ele>1225.0</ele><time>2026-04-12T10:14:02.784Z</time></trkpt><trkpt lat="42.3474512" lon="13.6396092"><ele>1225.0</ele><time>2026-04-12T10:14:04.785Z</time></trkpt><trkpt lat="42.3474633" lon="13.6394929"><ele>1225.0</ele><time>2026-04-12T10:14:06.784Z</time></trkpt><trkpt lat="42.3474873" lon="13.6393804"><ele>1225.0</ele><time>2026-04-12T10:14:08.784Z</time></trkpt><trkpt lat="42.3475095" lon="13.6392671"><ele>1225.1666666666665</ele><time>2026-04-12T10:14:10.783Z</time></trkpt><trkpt lat="42.3475134" lon="13.6391415"><ele>1225.3333333333333</ele><time>2026-04-12T10:14:12.784Z</time></trkpt><trkpt lat="42.3475106" lon="13.6390166"><ele>1225.5</ele><time>2026-04-12T10:14:14.784Z</time></trkpt><trkpt lat="42.3475119" lon="13.6388875"><ele>1225.6666666666667</ele><time>2026-04-12T10:14:16.784Z</time></trkpt><trkpt lat="42.3475047" lon="13.6387797"><ele>1225.8333333333335</ele><time>2026-04-12T10:14:18.784Z</time></trkpt><trkpt lat="42.3475031" lon="13.6386742"><ele>1226.0</ele><time>2026-04-12T10:14:21.784Z</time></trkpt><trkpt lat="42.3475076" lon="13.6385667"><ele>1226.1666666666667</ele><time>2026-04-12T10:14:24.783Z</time></trkpt><trkpt lat="42.3475253" lon="13.6384373"><ele>1226.3333333333335</ele><time>2026-04-12T10:14:27.783Z</time></trkpt><trkpt lat="42.3475436" lon="13.638336"><ele>1226.5</ele><time>2026-04-12T10:14:29.784Z</time></trkpt><trkpt lat="42.3475567" lon="13.6382328"><ele>1226.6666666666667</ele><time>2026-04-12T10:14:31.784Z</time></trkpt><trkpt lat="42.3475744" lon="13.6381381"><ele>1226.8333333333333</ele><time>2026-04-12T10:14:33.783Z</time></trkpt><trkpt lat="42.3476001" lon="13.6380349"><ele>1227.0</ele><time>2026-04-12T10:14:35.784Z</time></trkpt><trkpt lat="42.3476105" lon="13.6379207"><ele>1227.0</ele><time>2026-04-12T10:14:37.784Z</time></trkpt><trkpt lat="42.3475955" lon="13.6378343"><ele>1227.0</ele><time>2026-04-12T10:14:39.784Z</time></trkpt><trkpt lat="42.3475531" lon="13.6377595"><ele>1227.0</ele><time>2026-04-12T10:14:41.783Z</time></trkpt><trkpt lat="42.3474978" lon="13.6376818"><ele>1227.0</ele><time>2026-04-12T10:14:43.783Z</time></trkpt><trkpt lat="42.3474611" lon="13.6375867"><ele>1227.0</ele><time>2026-04-12T10:14:45.783Z</time></trkpt><trkpt lat="42.3474564" lon="13.6374861"><ele>1227.0</ele><time>2026-04-12T10:14:47.784Z</time></trkpt><trkpt lat="42.3474316" lon="13.63738"><ele>1227.0</ele><time>2026-04-12T10:14:50.783Z</time></trkpt><trkpt lat="42.3473616" lon="13.6373302"><ele>1227.0</ele><time>2026-04-12T10:14:54.784Z</time></trkpt><trkpt lat="42.3472974" lon="13.6372553"><ele>1227.0</ele><time>2026-04-12T10:14:57.784Z</time></trkpt><trkpt lat="42.3472924" lon="13.6371656"><ele>1227.0</ele><time>2026-04-12T10:14:59.784Z</time></trkpt><trkpt lat="42.3473016" lon="13.6370799"><ele>1227.0</ele><time>2026-04-12T10:15:03.783Z</time></trkpt><trkpt lat="42.347296" lon="13.6369687"><ele>1227.0</ele><time>2026-04-12T10:15:07.784Z</time></trkpt><trkpt lat="42.3472936" lon="13.6368702"><ele>1226.5714285714287</ele><time>2026-04-12T10:15:10.784Z</time></trkpt><trkpt lat="42.3472844" lon="13.6367751"><ele>1226.142857142857</ele><time>2026-04-12T10:15:13.784Z</time></trkpt><trkpt lat="42.3472876" lon="13.6366828"><ele>1225.7142857142858</ele><time>2026-04-12T10:15:16.784Z</time></trkpt><trkpt lat="42.3473036" lon="13.6365874"><ele>1225.2857142857142</ele><time>2026-04-12T10:15:19.783Z</time></trkpt><trkpt lat="42.3473214" lon="13.6364954"><ele>1224.857142857143</ele><time>2026-04-12T10:20:28.781Z</time></trkpt><trkpt lat="42.3473625" lon="13.6364241"><ele>1224.4285714285713</ele><time>2026-04-12T10:20:32.782Z</time></trkpt><trkpt lat="42.3474081" lon="13.6363558"><ele>1224.0</ele><time>2026-04-12T10:20:34.781Z</time></trkpt><trkpt lat="42.3474622" lon="13.6362743"><ele>1224.0</ele><time>2026-04-12T10:20:36.782Z</time></trkpt><trkpt lat="42.3475197" lon="13.6361957"><ele>1224.0</ele><time>2026-04-12T10:20:38.782Z</time></trkpt><trkpt lat="42.3475654" lon="13.6361119"><ele>1224.0</ele><time>2026-04-12T10:20:40.781Z</time></trkpt><trkpt lat="42.3476227" lon="13.6360189"><ele>1224.0</ele><time>2026-04-12T10:20:43.782Z</time></trkpt><trkpt lat="42.3476751" lon="13.635944"><ele>1224.0</ele><time>2026-04-12T10:20:47.782Z</time></trkpt><trkpt lat="42.3477168" lon="13.6358588"><ele>1224.0</ele><time>2026-04-12T10:20:52.783Z</time></trkpt><trkpt lat="42.3477726" lon="13.6357718"><ele>1224.2857142857142</ele><time>2026-04-12T10:20:55.782Z</time></trkpt><trkpt lat="42.347834" lon="13.6357178"><ele>1224.5714285714287</ele><time>2026-04-12T10:20:58.781Z</time></trkpt><trkpt lat="42.347892" lon="13.6356555"><ele>1224.857142857143</ele><time>2026-04-12T10:21:02.781Z</time></trkpt><trkpt lat="42.3479421" lon="13.6355656"><ele>1225.142857142857</ele><time>2026-04-12T10:21:05.782Z</time></trkpt><trkpt lat="42.3479812" lon="13.6354873"><ele>1225.4285714285713</ele><time>2026-04-12T10:21:07.781Z</time></trkpt><trkpt lat="42.3480321" lon="13.6354197"><ele>1225.7142857142858</ele><time>2026-04-12T10:21:09.783Z</time></trkpt><trkpt lat="42.3480789" lon="13.635357"><ele>1226.0</ele><time>2026-04-12T10:21:11.781Z</time></trkpt><trkpt lat="42.3481341" lon="13.6352812"><ele>1226.6666666666667</ele><time>2026-04-12T10:21:13.781Z</time></trkpt><trkpt lat="42.3481845" lon="13.635226"><ele>1227.3333333333335</ele><time>2026-04-12T10:21:15.781Z</time></trkpt><trkpt lat="42.3482581" lon="13.6351462"><ele>1228.0</ele><time>2026-04-12T10:21:18.781Z</time></trkpt><trkpt lat="42.3483092" lon="13.6350933"><ele>1228.6666666666667</ele><time>2026-04-12T10:21:20.783Z</time></trkpt><trkpt lat="42.3483769" lon="13.6350123"><ele>1229.3333333333333</ele><time>2026-04-12T10:21:23.783Z</time></trkpt><trkpt lat="42.3484433" lon="13.6349296"><ele>1230.0</ele><time>2026-04-12T10:21:26.782Z</time></trkpt><trkpt lat="42.3485074" lon="13.6348501"><ele>1230.0</ele><time>2026-04-12T10:21:29.782Z</time></trkpt><trkpt lat="42.3485784" lon="13.6347741"><ele>1230.0</ele><time>2026-04-12T10:21:32.781Z</time></trkpt><trkpt lat="42.3486469" lon="13.6346891"><ele>1230.0</ele><time>2026-04-12T10:21:35.781Z</time></trkpt><trkpt lat="42.3487165" lon="13.6345943"><ele>1230.0</ele><time>2026-04-12T10:21:38.781Z</time></trkpt><trkpt lat="42.3487797" lon="13.6345124"><ele>1230.0</ele><time>2026-04-12T10:21:41.782Z</time></trkpt><trkpt lat="42.3488298" lon="13.6344351"><ele>1230.0</ele><time>2026-04-12T10:21:44.783Z</time></trkpt><trkpt lat="42.3488809" lon="13.6343601"><ele>1230.2857142857142</ele><time>2026-04-12T10:21:47.782Z</time></trkpt><trkpt lat="42.3489316" lon="13.6343093"><ele>1230.5714285714287</ele><time>2026-04-12T10:21:51.782Z</time></trkpt><trkpt lat="42.3489505" lon="13.6342258"><ele>1230.857142857143</ele><time>2026-04-12T10:21:55.782Z</time></trkpt><trkpt lat="42.3489619" lon="13.6341251"><ele>1231.142857142857</ele><time>2026-04-12T10:21:59.782Z</time></trkpt><trkpt lat="42.3490198" lon="13.6340886"><ele>1231.4285714285716</ele><time>2026-04-12T10:22:02.781Z</time></trkpt><trkpt lat="42.3490885" lon="13.6340645"><ele>1231.7142857142858</ele><time>2026-04-12T10:22:06.783Z</time></trkpt><trkpt lat="42.349137" lon="13.6339924"><ele>1232.0</ele><time>2026-04-12T10:22:13.783Z</time></trkpt><trkpt lat="42.3491758" lon="13.63392"><ele>1232.0</ele><time>2026-04-12T10:22:16.782Z</time></trkpt><trkpt lat="42.3492154" lon="13.6338421"><ele>1232.0</ele><time>2026-04-12T10:22:19.782Z</time></trkpt><trkpt lat="42.3492698" lon="13.6337524"><ele>1232.0</ele><time>2026-04-12T10:22:22.782Z</time></trkpt><trkpt lat="42.3493271" lon="13.6336518"><ele>1232.0</ele><time>2026-04-12T10:22:25.782Z</time></trkpt><trkpt lat="42.3493854" lon="13.6335573"><ele>1232.0</ele><time>2026-04-12T10:22:28.781Z</time></trkpt><trkpt lat="42.3494348" lon="13.6334657"><ele>1232.0</ele><time>2026-04-12T10:22:31.782Z</time></trkpt><trkpt lat="42.3494788" lon="13.6333854"><ele>1232.2857142857142</ele><time>2026-04-12T10:22:34.781Z</time></trkpt><trkpt lat="42.3495276" lon="13.6333013"><ele>1232.5714285714284</ele><time>2026-04-12T10:22:37.78Z</time></trkpt><trkpt lat="42.3495766" lon="13.6332204"><ele>1232.857142857143</ele><time>2026-04-12T10:22:41.782Z</time></trkpt><trkpt lat="42.3496174" lon="13.6331305"><ele>1233.142857142857</ele><time>2026-04-12T10:22:46.781Z</time></trkpt><trkpt lat="42.3496654" lon="13.6330684"><ele>1233.4285714285713</ele><time>2026-04-12T10:22:53.78Z</time></trkpt><trkpt lat="42.3497115" lon="13.6329739"><ele>1233.7142857142858</ele><time>2026-04-12T10:24:18.78Z</time></trkpt><trkpt lat="42.3497435" lon="13.6328984"><ele>1234.0</ele><time>2026-04-12T10:24:20.78Z</time></trkpt><trkpt lat="42.3497748" lon="13.632803"><ele>1236.8333333333333</ele><time>2026-04-12T10:24:24.78Z</time></trkpt><trkpt lat="42.349796" lon="13.6327117"><ele>1239.6666666666665</ele><time>2026-04-12T10:24:27.78Z</time></trkpt><trkpt lat="42.3498127" lon="13.6326226"><ele>1242.5</ele><time>2026-04-12T10:24:30.782Z</time></trkpt><trkpt lat="42.3498212" lon="13.6325184"><ele>1245.3333333333333</ele><time>2026-04-12T10:24:33.781Z</time></trkpt><trkpt lat="42.3498404" lon="13.6324166"><ele>1248.1666666666667</ele><time>2026-04-12T10:24:36.781Z</time></trkpt><trkpt lat="42.3498516" lon="13.63232"><ele>1251.0</ele><time>2026-04-12T10:24:40.781Z</time></trkpt><trkpt lat="42.3498661" lon="13.632205"><ele>1251.0</ele><time>2026-04-12T10:24:44.78Z</time></trkpt><trkpt lat="42.3499086" lon="13.6320965"><ele>1251.0</ele><time>2026-04-12T10:24:48.781Z</time></trkpt><trkpt lat="42.3499441" lon="13.6320249"><ele>1251.0</ele><time>2026-04-12T10:24:50.78Z</time></trkpt><trkpt lat="42.3499927" lon="13.6319261"><ele>1251.0</ele><time>2026-04-12T10:24:53.781Z</time></trkpt><trkpt lat="42.3500447" lon="13.6318398"><ele>1251.0</ele><time>2026-04-12T10:24:56.782Z</time></trkpt><trkpt lat="42.3500775" lon="13.6317655"><ele>1251.0</ele><time>2026-04-12T10:24:59.781Z</time></trkpt><trkpt lat="42.3501064" lon="13.6316793"><ele>1251.0</ele><time>2026-04-12T10:25:02.781Z</time></trkpt><trkpt lat="42.3501424" lon="13.631601"><ele>1251.0</ele><time>2026-04-12T10:25:05.78Z</time></trkpt><trkpt lat="42.3501846" lon="13.6315308"><ele>1251.0</ele><time>2026-04-12T10:25:08.782Z</time></trkpt><trkpt lat="42.3502298" lon="13.6314557"><ele>1251.0</ele><time>2026-04-12T10:25:11.781Z</time></trkpt><trkpt lat="42.3502826" lon="13.6313942"><ele>1251.0</ele><time>2026-04-12T10:25:14.781Z</time></trkpt><trkpt lat="42.350336" lon="13.6313446"><ele>1251.0</ele><time>2026-04-12T10:25:17.78Z</time></trkpt><trkpt lat="42.3504047" lon="13.6312806"><ele>1251.0</ele><time>2026-04-12T10:25:21.78Z</time></trkpt><trkpt lat="42.3504664" lon="13.6312426"><ele>1251.0</ele><time>2026-04-12T10:25:24.781Z</time></trkpt><trkpt lat="42.3505207" lon="13.6311657"><ele>1251.0</ele><time>2026-04-12T10:25:28.78Z</time></trkpt><trkpt lat="42.3505431" lon="13.6310619"><ele>1251.0</ele><time>2026-04-12T10:25:32.782Z</time></trkpt><trkpt lat="42.3505594" lon="13.6309571"><ele>1251.0</ele><time>2026-04-12T10:25:36.781Z</time></trkpt><trkpt lat="42.3505358" lon="13.630878"><ele>1251.0</ele><time>2026-04-12T10:25:39.781Z</time></trkpt><trkpt lat="42.3505042" lon="13.6307887"><ele>1251.0</ele><time>2026-04-12T10:25:42.78Z</time></trkpt><trkpt lat="42.3504609" lon="13.630695"><ele>1252.3333333333333</ele><time>2026-04-12T10:25:44.78Z</time></trkpt><trkpt lat="42.3504198" lon="13.6305934"><ele>1253.6666666666667</ele><time>2026-04-12T10:25:46.781Z</time></trkpt><trkpt lat="42.350399" lon="13.6305037"><ele>1255.0</ele><time>2026-04-12T10:25:48.78Z</time></trkpt><trkpt lat="42.35038" lon="13.6304024"><ele>1256.3333333333335</ele><time>2026-04-12T10:25:52.78Z</time></trkpt><trkpt lat="42.3503926" lon="13.6303114"><ele>1257.6666666666667</ele><time>2026-04-12T10:25:55.782Z</time></trkpt><trkpt lat="42.3503449" lon="13.6302451"><ele>1259.0</ele><time>2026-04-12T10:25:58.782Z</time></trkpt><trkpt lat="42.3502831" lon="13.6301732"><ele>1261.0</ele><time>2026-04-12T10:26:02.78Z</time></trkpt><trkpt lat="42.3502518" lon="13.6300962"><ele>1263.0</ele><time>2026-04-12T10:26:05.78Z</time></trkpt><trkpt lat="42.350239" lon="13.6299984"><ele>1265.0</ele><time>2026-04-12T10:26:08.779Z</time></trkpt><trkpt lat="42.350247" lon="13.629908"><ele>1267.0</ele><time>2026-04-12T10:26:11.78Z</time></trkpt><trkpt lat="42.350269" lon="13.6298252"><ele>1269.0</ele><time>2026-04-12T10:26:14.779Z</time></trkpt><trkpt lat="42.3502972" lon="13.6297416"><ele>1271.0</ele><time>2026-04-12T10:26:17.78Z</time></trkpt><trkpt lat="42.350321" lon="13.6296426"><ele>1273.0</ele><time>2026-04-12T10:26:20.779Z</time></trkpt><trkpt lat="42.3503471" lon="13.6295507"><ele>1275.4285714285713</ele><time>2026-04-12T10:26:23.779Z</time></trkpt><trkpt lat="42.3503778" lon="13.6294635"><ele>1277.857142857143</ele><time>2026-04-12T10:26:26.779Z</time></trkpt><trkpt lat="42.3503938" lon="13.6293744"><ele>1280.2857142857142</ele><time>2026-04-12T10:26:29.78Z</time></trkpt><trkpt lat="42.3504059" lon="13.6292832"><ele>1282.7142857142858</ele><time>2026-04-12T10:26:32.78Z</time></trkpt><trkpt lat="42.3504277" lon="13.6291898"><ele>1285.142857142857</ele><time>2026-04-12T10:26:35.78Z</time></trkpt><trkpt lat="42.35046" lon="13.6290963"><ele>1287.5714285714287</ele><time>2026-04-12T10:26:38.78Z</time></trkpt><trkpt lat="42.3505324" lon="13.6290719"><ele>1290.0</ele><time>2026-04-12T10:26:41.781Z</time></trkpt><trkpt lat="42.3505999" lon="13.6290832"><ele>1290.5714285714287</ele><time>2026-04-12T10:26:44.779Z</time></trkpt><trkpt lat="42.3506288" lon="13.628991"><ele>1291.142857142857</ele><time>2026-04-12T10:26:49.78Z</time></trkpt><trkpt lat="42.3506339" lon="13.6288941"><ele>1291.7142857142858</ele><time>2026-04-12T10:26:58.779Z</time></trkpt><trkpt lat="42.3506537" lon="13.6288038"><ele>1292.2857142857142</ele><time>2026-04-12T10:27:01.78Z</time></trkpt><trkpt lat="42.3507009" lon="13.628733"><ele>1292.857142857143</ele><time>2026-04-12T10:27:05.78Z</time></trkpt><trkpt lat="42.3507001" lon="13.6286473"><ele>1293.4285714285713</ele><time>2026-04-12T10:27:38.779Z</time></trkpt><trkpt lat="42.3507091" lon="13.6285508"><ele>1294.0</ele><time>2026-04-12T10:27:49.779Z</time></trkpt><trkpt lat="42.3507195" lon="13.6284455"><ele>1295.4285714285713</ele><time>2026-04-12T10:27:53.779Z</time></trkpt><trkpt lat="42.3507336" lon="13.628344"><ele>1296.857142857143</ele><time>2026-04-12T10:27:57.78Z</time></trkpt><trkpt lat="42.3507226" lon="13.628243"><ele>1298.2857142857142</ele><time>2026-04-12T10:28:01.779Z</time></trkpt><trkpt lat="42.3507134" lon="13.6281563"><ele>1299.7142857142858</ele><time>2026-04-12T10:28:04.78Z</time></trkpt><trkpt lat="42.3507283" lon="13.6280607"><ele>1301.142857142857</ele><time>2026-04-12T10:28:07.779Z</time></trkpt><trkpt lat="42.3507492" lon="13.6279651"><ele>1302.5714285714287</ele><time>2026-04-12T10:28:10.779Z</time></trkpt><trkpt lat="42.3507743" lon="13.6278678"><ele>1304.0</ele><time>2026-04-12T10:28:13.78Z</time></trkpt><trkpt lat="42.3508121" lon="13.6277791"><ele>1305.142857142857</ele><time>2026-04-12T10:28:16.78Z</time></trkpt><trkpt lat="42.3508522" lon="13.6277009"><ele>1306.2857142857142</ele><time>2026-04-12T10:28:19.78Z</time></trkpt><trkpt lat="42.3508847" lon="13.6276152"><ele>1307.4285714285713</ele><time>2026-04-12T10:28:22.779Z</time></trkpt><trkpt lat="42.3509157" lon="13.6275295"><ele>1308.5714285714284</ele><time>2026-04-12T10:28:25.779Z</time></trkpt><trkpt lat="42.3509453" lon="13.6274382"><ele>1309.7142857142858</ele><time>2026-04-12T10:28:28.78Z</time></trkpt><trkpt lat="42.3509729" lon="13.6273461"><ele>1310.8571428571427</ele><time>2026-04-12T10:28:31.78Z</time></trkpt><trkpt lat="42.351004" lon="13.62726"><ele>1312.0</ele><time>2026-04-12T10:28:34.78Z</time></trkpt><trkpt lat="42.3510542" lon="13.6272028"><ele>1311.9999999999998</ele><time>2026-04-12T10:28:37.781Z</time></trkpt><trkpt lat="42.3511186" lon="13.6271653"><ele>1312.0</ele><time>2026-04-12T10:28:41.779Z</time></trkpt><trkpt lat="42.3511409" lon="13.6270799"><ele>1312.0</ele><time>2026-04-12T10:28:44.78Z</time></trkpt><trkpt lat="42.3511875" lon="13.627017"><ele>1312.0</ele><time>2026-04-12T10:28:47.779Z</time></trkpt><trkpt lat="42.3512318" lon="13.6269251"><ele>1312.0</ele><time>2026-04-12T10:28:51.781Z</time></trkpt><trkpt lat="42.3512658" lon="13.6268461"><ele>1311.9999999999998</ele><time>2026-04-12T10:28:54.78Z</time></trkpt><trkpt lat="42.3512899" lon="13.6267611"><ele>1312.0</ele><time>2026-04-12T10:28:57.78Z</time></trkpt><trkpt lat="42.3513206" lon="13.6266816"><ele>1312.8571428571427</ele><time>2026-04-12T10:29:00.779Z</time></trkpt><trkpt lat="42.3513482" lon="13.6265966"><ele>1313.7142857142858</ele><time>2026-04-12T10:29:03.779Z</time></trkpt><trkpt lat="42.351372" lon="13.6265128"><ele>1314.5714285714284</ele><time>2026-04-12T10:29:06.78Z</time></trkpt><trkpt lat="42.3513876" lon="13.626415"><ele>1315.4285714285713</ele><time>2026-04-12T10:29:09.78Z</time></trkpt><trkpt lat="42.3514095" lon="13.6263164"><ele>1316.2857142857142</ele><time>2026-04-12T10:29:12.779Z</time></trkpt><trkpt lat="42.3514237" lon="13.6262199"><ele>1317.142857142857</ele><time>2026-04-12T10:29:15.779Z</time></trkpt><trkpt lat="42.3514405" lon="13.6261223"><ele>1318.0</ele><time>2026-04-12T10:29:18.78Z</time></trkpt><trkpt lat="42.3514666" lon="13.6260321"><ele>1320.4285714285716</ele><time>2026-04-12T10:29:21.78Z</time></trkpt><trkpt lat="42.3514968" lon="13.6259473"><ele>1322.8571428571427</ele><time>2026-04-12T10:29:24.778Z</time></trkpt><trkpt lat="42.3515263" lon="13.6258616"><ele>1325.2857142857142</ele><time>2026-04-12T10:29:27.779Z</time></trkpt><trkpt lat="42.3515546" lon="13.6257811"><ele>1327.7142857142858</ele><time>2026-04-12T10:29:30.779Z</time></trkpt><trkpt lat="42.351591" lon="13.6257075"><ele>1330.1428571428573</ele><time>2026-04-12T10:29:33.778Z</time></trkpt><trkpt lat="42.3516125" lon="13.6256117"><ele>1332.5714285714284</ele><time>2026-04-12T10:29:37.78Z</time></trkpt><trkpt lat="42.3516348" lon="13.6255227"><ele>1335.0</ele><time>2026-04-12T10:29:41.778Z</time></trkpt><trkpt lat="42.3516714" lon="13.625435"><ele>1335.0</ele><time>2026-04-12T10:29:45.779Z</time></trkpt><trkpt lat="42.3517056" lon="13.6253582"><ele>1335.0</ele><time>2026-04-12T10:29:49.779Z</time></trkpt><trkpt lat="42.3517588" lon="13.6252881"><ele>1335.0</ele><time>2026-04-12T10:29:53.78Z</time></trkpt><trkpt lat="42.3517919" lon="13.6251879"><ele>1335.0</ele><time>2026-04-12T10:29:58.778Z</time></trkpt><trkpt lat="42.3518321" lon="13.6251032"><ele>1335.0</ele><time>2026-04-12T10:30:02.78Z</time></trkpt><trkpt lat="42.3518687" lon="13.6250304"><ele>1335.0</ele><time>2026-04-12T10:30:05.778Z</time></trkpt><trkpt lat="42.3519021" lon="13.6249497"><ele>1335.0</ele><time>2026-04-12T10:30:08.779Z</time></trkpt><trkpt lat="42.3519351" lon="13.6248712"><ele>1335.142857142857</ele><time>2026-04-12T10:30:11.778Z</time></trkpt><trkpt lat="42.3519572" lon="13.6247874"><ele>1335.2857142857144</ele><time>2026-04-12T10:30:14.78Z</time></trkpt><trkpt lat="42.3519732" lon="13.6246981"><ele>1335.4285714285716</ele><time>2026-04-12T10:30:17.78Z</time></trkpt><trkpt lat="42.3519882" lon="13.6245962"><ele>1335.5714285714284</ele><time>2026-04-12T10:30:20.778Z</time></trkpt><trkpt lat="42.3520115" lon="13.624491"><ele>1335.7142857142858</ele><time>2026-04-12T10:30:23.779Z</time></trkpt><trkpt lat="42.3520373" lon="13.6243895"><ele>1335.857142857143</ele><time>2026-04-12T10:30:26.779Z</time></trkpt><trkpt lat="42.3520635" lon="13.6242987"><ele>1336.0</ele><time>2026-04-12T10:30:29.778Z</time></trkpt><trkpt lat="42.3521031" lon="13.6242168"><ele>1336.8333333333333</ele><time>2026-04-12T10:30:32.779Z</time></trkpt><trkpt lat="42.3521501" lon="13.6241421"><ele>1337.6666666666665</ele><time>2026-04-12T10:30:35.778Z</time></trkpt><trkpt lat="42.3522016" lon="13.6240524"><ele>1338.5</ele><time>2026-04-12T10:30:38.779Z</time></trkpt><trkpt lat="42.3522444" lon="13.6239591"><ele>1339.3333333333333</ele><time>2026-04-12T10:30:41.779Z</time></trkpt><trkpt lat="42.3522918" lon="13.6238548"><ele>1340.1666666666667</ele><time>2026-04-12T10:30:44.778Z</time></trkpt><trkpt lat="42.352322" lon="13.6237753"><ele>1341.0</ele><time>2026-04-12T10:30:46.779Z</time></trkpt><trkpt lat="42.3523579" lon="13.623697"><ele>1341.4285714285716</ele><time>2026-04-12T10:30:48.779Z</time></trkpt><trkpt lat="42.3523953" lon="13.6236214"><ele>1341.857142857143</ele><time>2026-04-12T10:30:50.778Z</time></trkpt><trkpt lat="42.3524371" lon="13.6235409"><ele>1342.2857142857142</ele><time>2026-04-12T10:30:52.779Z</time></trkpt><trkpt lat="42.3524809" lon="13.6234659"><ele>1342.7142857142858</ele><time>2026-04-12T10:30:54.778Z</time></trkpt><trkpt lat="42.3525249" lon="13.6233934"><ele>1343.142857142857</ele><time>2026-04-12T10:30:56.779Z</time></trkpt><trkpt lat="42.3525606" lon="13.6233198"><ele>1343.5714285714287</ele><time>2026-04-12T10:30:58.778Z</time></trkpt><trkpt lat="42.3525876" lon="13.6232185"><ele>1344.0</ele><time>2026-04-12T10:31:01.778Z</time></trkpt><trkpt lat="42.3526031" lon="13.6231322"><ele>1344.0</ele><time>2026-04-12T10:31:03.78Z</time></trkpt><trkpt lat="42.3525842" lon="13.6230446"><ele>1344.0</ele><time>2026-04-12T10:33:53.778Z</time></trkpt><trkpt lat="42.3525207" lon="13.6230631"><ele>1344.0</ele><time>2026-04-12T10:33:55.778Z</time></trkpt><trkpt lat="42.3524612" lon="13.6231384"><ele>1344.0</ele><time>2026-04-12T10:33:57.778Z</time></trkpt><trkpt lat="42.3524095" lon="13.6232329"><ele>1344.0</ele><time>2026-04-12T10:33:59.777Z</time></trkpt><trkpt lat="42.3523543" lon="13.6233004"><ele>1344.0</ele><time>2026-04-12T10:34:01.779Z</time></trkpt><trkpt lat="42.3522881" lon="13.6233727"><ele>1344.0</ele><time>2026-04-12T10:34:03.777Z</time></trkpt><trkpt lat="42.3522335" lon="13.6234727"><ele>1344.0</ele><time>2026-04-12T10:34:05.778Z</time></trkpt><trkpt lat="42.3521706" lon="13.6235636"><ele>1344.0</ele><time>2026-04-12T10:34:07.779Z</time></trkpt><trkpt lat="42.3521047" lon="13.623599"><ele>1344.0</ele><time>2026-04-12T10:34:09.778Z</time></trkpt><trkpt lat="42.3520789" lon="13.6234817"><ele>1344.0</ele><time>2026-04-12T10:34:12.778Z</time></trkpt><trkpt lat="42.3520877" lon="13.6233747"><ele>1344.0</ele><time>2026-04-12T10:34:14.778Z</time></trkpt><trkpt lat="42.3520842" lon="13.6232624"><ele>1343.6</ele><time>2026-04-12T10:34:16.779Z</time></trkpt><trkpt lat="42.3520831" lon="13.6231322"><ele>1343.2</ele><time>2026-04-12T10:34:18.777Z</time></trkpt><trkpt lat="42.3520792" lon="13.6229932"><ele>1342.8</ele><time>2026-04-12T10:34:20.778Z</time></trkpt><trkpt lat="42.3520729" lon="13.6228564"><ele>1342.3999999999999</ele><time>2026-04-12T10:34:22.778Z</time></trkpt><trkpt lat="42.3520424" lon="13.6227198"><ele>1342.0</ele><time>2026-04-12T10:34:24.778Z</time></trkpt><trkpt lat="42.352" lon="13.6225996"><ele>1341.6</ele><time>2026-04-12T10:34:26.778Z</time></trkpt><trkpt lat="42.3519602" lon="13.6224793"><ele>1341.1999999999998</ele><time>2026-04-12T10:34:28.778Z</time></trkpt><trkpt lat="42.3519218" lon="13.6223653"><ele>1340.8</ele><time>2026-04-12T10:34:30.777Z</time></trkpt><trkpt lat="42.3518894" lon="13.6222471"><ele>1340.4</ele><time>2026-04-12T10:34:32.777Z</time></trkpt><trkpt lat="42.3518374" lon="13.622122"><ele>1340.0</ele><time>2026-04-12T10:34:34.778Z</time></trkpt><trkpt lat="42.3517771" lon="13.6220243"><ele>1339.5</ele><time>2026-04-12T10:34:36.777Z</time></trkpt><trkpt lat="42.3517052" lon="13.6219588"><ele>1339.0</ele><time>2026-04-12T10:34:38.778Z</time></trkpt><trkpt lat="42.3516467" lon="13.6219041"><ele>1338.5</ele><time>2026-04-12T10:34:40.777Z</time></trkpt><trkpt lat="42.3515726" lon="13.621841"><ele>1338.0</ele><time>2026-04-12T10:34:43.779Z</time></trkpt><trkpt lat="42.3515193" lon="13.6217918"><ele>1337.5</ele><time>2026-04-12T10:34:45.779Z</time></trkpt><trkpt lat="42.3514626" lon="13.6217328"><ele>1337.0</ele><time>2026-04-12T10:34:47.779Z</time></trkpt><trkpt lat="42.3514077" lon="13.6216558"><ele>1338.4285714285713</ele><time>2026-04-12T10:34:49.777Z</time></trkpt><trkpt lat="42.3513537" lon="13.6215807"><ele>1339.857142857143</ele><time>2026-04-12T10:34:51.778Z</time></trkpt><trkpt lat="42.3513068" lon="13.6215039"><ele>1341.2857142857142</ele><time>2026-04-12T10:34:53.777Z</time></trkpt><trkpt lat="42.3512668" lon="13.6214242"><ele>1342.7142857142858</ele><time>2026-04-12T10:34:55.778Z</time></trkpt><trkpt lat="42.3512255" lon="13.6213454"><ele>1344.142857142857</ele><time>2026-04-12T10:34:57.778Z</time></trkpt><trkpt lat="42.3511837" lon="13.6212705"><ele>1345.5714285714284</ele><time>2026-04-12T10:34:59.777Z</time></trkpt><trkpt lat="42.351146" lon="13.6211922"><ele>1347.0</ele><time>2026-04-12T10:35:01.778Z</time></trkpt><trkpt lat="42.3511129" lon="13.6211131"><ele>1347.0</ele><time>2026-04-12T10:35:03.778Z</time></trkpt><trkpt lat="42.3510787" lon="13.6210342"><ele>1347.0</ele><time>2026-04-12T10:35:05.777Z</time></trkpt><trkpt lat="42.3510398" lon="13.6209619"><ele>1347.0</ele><time>2026-04-12T10:35:07.778Z</time></trkpt><trkpt lat="42.3509924" lon="13.6208543"><ele>1347.0</ele><time>2026-04-12T10:35:10.778Z</time></trkpt><trkpt lat="42.3509462" lon="13.6207456"><ele>1347.0</ele><time>2026-04-12T10:35:13.778Z</time></trkpt><trkpt lat="42.3509121" lon="13.6206703"><ele>1347.0</ele><time>2026-04-12T10:35:15.779Z</time></trkpt><trkpt lat="42.3508721" lon="13.620563"><ele>1347.0</ele><time>2026-04-12T10:35:18.777Z</time></trkpt><trkpt lat="42.350831" lon="13.6204519"><ele>1347.0</ele><time>2026-04-12T10:35:21.777Z</time></trkpt><trkpt lat="42.3508131" lon="13.6203702"><ele>1347.0</ele><time>2026-04-12T10:35:23.777Z</time></trkpt><trkpt lat="42.3507787" lon="13.6202535"><ele>1347.0</ele><time>2026-04-12T10:35:26.777Z</time></trkpt><trkpt lat="42.3507267" lon="13.6201638"><ele>1347.0</ele><time>2026-04-12T10:35:29.776Z</time></trkpt><trkpt lat="42.3506871" lon="13.6200702"><ele>1347.0</ele><time>2026-04-12T10:35:32.776Z</time></trkpt><trkpt lat="42.3506513" lon="13.6199782"><ele>1347.1666666666667</ele><time>2026-04-12T10:35:35.776Z</time></trkpt><trkpt lat="42.3506109" lon="13.619892"><ele>1347.3333333333333</ele><time>2026-04-12T10:35:38.777Z</time></trkpt><trkpt lat="42.3505735" lon="13.6198023"><ele>1347.5</ele><time>2026-04-12T10:35:41.777Z</time></trkpt><trkpt lat="42.3505297" lon="13.6197178"><ele>1347.6666666666665</ele><time>2026-04-12T10:35:44.776Z</time></trkpt><trkpt lat="42.3504895" lon="13.6196256"><ele>1347.8333333333333</ele><time>2026-04-12T10:35:47.776Z</time></trkpt><trkpt lat="42.3504404" lon="13.6195439"><ele>1348.0</ele><time>2026-04-12T10:35:49.778Z</time></trkpt><trkpt lat="42.3503671" lon="13.6194038"><ele>1348.0</ele><time>2026-04-12T10:35:51.776Z</time></trkpt><trkpt lat="42.3503144" lon="13.6193209"><ele>1348.0</ele><time>2026-04-12T10:35:52.778Z</time></trkpt><trkpt lat="42.3502553" lon="13.6192279"><ele>1348.0</ele><time>2026-04-12T10:35:53.777Z</time></trkpt><trkpt lat="42.3501922" lon="13.6191289"><ele>1348.0</ele><time>2026-04-12T10:35:54.778Z</time></trkpt><trkpt lat="42.3501307" lon="13.6190169"><ele>1348.0</ele><time>2026-04-12T10:35:55.776Z</time></trkpt><trkpt lat="42.3500864" lon="13.6188981"><ele>1348.0</ele><time>2026-04-12T10:35:56.777Z</time></trkpt><trkpt lat="42.3500623" lon="13.6187742"><ele>1348.0</ele><time>2026-04-12T10:35:57.776Z</time></trkpt><trkpt lat="42.3500514" lon="13.6186616"><ele>1348.0</ele><time>2026-04-12T10:35:58.777Z</time></trkpt><trkpt lat="42.3500469" lon="13.6185602"><ele>1348.0</ele><time>2026-04-12T10:35:59.776Z</time></trkpt><trkpt lat="42.3500499" lon="13.6184663"><ele>1348.0</ele><time>2026-04-12T10:36:00.776Z</time></trkpt><trkpt lat="42.3500622" lon="13.6183805"><ele>1348.0</ele><time>2026-04-12T10:36:01.777Z</time></trkpt><trkpt lat="42.3501036" lon="13.6182331"><ele>1346.6666666666665</ele><time>2026-04-12T10:36:03.776Z</time></trkpt><trkpt lat="42.3501192" lon="13.6181375"><ele>1345.3333333333333</ele><time>2026-04-12T10:36:04.776Z</time></trkpt><trkpt lat="42.3501361" lon="13.6180429"><ele>1344.0</ele><time>2026-04-12T10:36:05.778Z</time></trkpt><trkpt lat="42.3501516" lon="13.6179454"><ele>1342.6666666666667</ele><time>2026-04-12T10:36:06.777Z</time></trkpt><trkpt lat="42.3501659" lon="13.6178427"><ele>1341.3333333333335</ele><time>2026-04-12T10:36:07.777Z</time></trkpt><trkpt lat="42.3501814" lon="13.6177379"><ele>1340.0</ele><time>2026-04-12T10:36:08.778Z</time></trkpt><trkpt lat="42.3501987" lon="13.6176279"><ele>1338.1666666666667</ele><time>2026-04-12T10:36:09.776Z</time></trkpt><trkpt lat="42.3502087" lon="13.6175169"><ele>1336.3333333333335</ele><time>2026-04-12T10:36:10.777Z</time></trkpt><trkpt lat="42.3502107" lon="13.6174131"><ele>1334.5</ele><time>2026-04-12T10:36:11.777Z</time></trkpt><trkpt lat="42.3502167" lon="13.617313"><ele>1332.6666666666667</ele><time>2026-04-12T10:36:12.776Z</time></trkpt><trkpt lat="42.3502223" lon="13.6172159"><ele>1330.8333333333333</ele><time>2026-04-12T10:36:13.776Z</time></trkpt><trkpt lat="42.3502282" lon="13.6171195"><ele>1329.0</ele><time>2026-04-12T10:36:14.776Z</time></trkpt><trkpt lat="42.3502286" lon="13.6170087"><ele>1328.6666666666667</ele><time>2026-04-12T10:36:15.778Z</time></trkpt><trkpt lat="42.3502299" lon="13.6169154"><ele>1328.3333333333333</ele><time>2026-04-12T10:36:16.776Z</time></trkpt><trkpt lat="42.3502435" lon="13.6167658"><ele>1328.0</ele><time>2026-04-12T10:36:18.777Z</time></trkpt><trkpt lat="42.3502604" lon="13.6166363"><ele>1327.6666666666665</ele><time>2026-04-12T10:36:20.777Z</time></trkpt><trkpt lat="42.350324" lon="13.6165695"><ele>1327.3333333333333</ele><time>2026-04-12T10:36:22.777Z</time></trkpt><trkpt lat="42.3503984" lon="13.616607"><ele>1327.0</ele><time>2026-04-12T10:36:24.776Z</time></trkpt><trkpt lat="42.3504729" lon="13.6167282"><ele>1323.8333333333333</ele><time>2026-04-12T10:36:26.777Z</time></trkpt><trkpt lat="42.3505543" lon="13.6168098"><ele>1320.6666666666665</ele><time>2026-04-12T10:36:28.776Z</time></trkpt><trkpt lat="42.350654" lon="13.6168009"><ele>1317.5</ele><time>2026-04-12T10:36:30.777Z</time></trkpt><trkpt lat="42.350708" lon="13.6167415"><ele>1314.3333333333333</ele><time>2026-04-12T10:36:31.776Z</time></trkpt><trkpt lat="42.3507473" lon="13.6166619"><ele>1311.1666666666667</ele><time>2026-04-12T10:36:32.776Z</time></trkpt><trkpt lat="42.3507945" lon="13.61659"><ele>1308.0</ele><time>2026-04-12T10:36:33.778Z</time></trkpt><trkpt lat="42.3508361" lon="13.616519"><ele>1308.0</ele><time>2026-04-12T10:36:34.777Z</time></trkpt><trkpt lat="42.3509111" lon="13.6163983"><ele>1308.0</ele><time>2026-04-12T10:36:36.776Z</time></trkpt><trkpt lat="42.3509516" lon="13.6163045"><ele>1308.0</ele><time>2026-04-12T10:36:38.777Z</time></trkpt><trkpt lat="42.3509727" lon="13.6162221"><ele>1308.0</ele><time>2026-04-12T10:36:42.777Z</time></trkpt><trkpt lat="42.3509045" lon="13.6161429"><ele>1308.0</ele><time>2026-04-12T10:36:45.777Z</time></trkpt><trkpt lat="42.3508395" lon="13.6160762"><ele>1308.0</ele><time>2026-04-12T10:36:47.777Z</time></trkpt><trkpt lat="42.3508045" lon="13.6159821"><ele>1306.3333333333333</ele><time>2026-04-12T10:36:49.777Z</time></trkpt><trkpt lat="42.3507868" lon="13.6158794"><ele>1304.6666666666667</ele><time>2026-04-12T10:36:51.776Z</time></trkpt><trkpt lat="42.3507774" lon="13.6157838"><ele>1303.0</ele><time>2026-04-12T10:36:53.776Z</time></trkpt><trkpt lat="42.3507661" lon="13.6157"><ele>1301.3333333333335</ele><time>2026-04-12T10:36:55.776Z</time></trkpt><trkpt lat="42.3507577" lon="13.6155881"><ele>1299.6666666666667</ele><time>2026-04-12T10:36:58.777Z</time></trkpt><trkpt lat="42.3507479" lon="13.6154875"><ele>1298.0</ele><time>2026-04-12T10:37:01.778Z</time></trkpt><trkpt lat="42.3507383" lon="13.615359"><ele>1297.7142857142856</ele><time>2026-04-12T10:37:04.778Z</time></trkpt><trkpt lat="42.3507295" lon="13.6152713"><ele>1297.4285714285713</ele><time>2026-04-12T10:37:06.777Z</time></trkpt><trkpt lat="42.3507235" lon="13.615184"><ele>1297.142857142857</ele><time>2026-04-12T10:37:08.777Z</time></trkpt><trkpt lat="42.3507148" lon="13.6150881"><ele>1296.8571428571427</ele><time>2026-04-12T10:37:10.777Z</time></trkpt><trkpt lat="42.3507062" lon="13.6149975"><ele>1296.5714285714284</ele><time>2026-04-12T10:37:12.776Z</time></trkpt><trkpt lat="42.3506994" lon="13.6149094"><ele>1296.2857142857142</ele><time>2026-04-12T10:37:14.777Z</time></trkpt><trkpt lat="42.3506886" lon="13.6148231"><ele>1296.0</ele><time>2026-04-12T10:37:16.776Z</time></trkpt><trkpt lat="42.3506722" lon="13.6146962"><ele>1296.0</ele><time>2026-04-12T10:37:19.776Z</time></trkpt><trkpt lat="42.3506634" lon="13.6146039"><ele>1296.0</ele><time>2026-04-12T10:37:21.777Z</time></trkpt><trkpt lat="42.3506514" lon="13.6145144"><ele>1296.0</ele><time>2026-04-12T10:37:23.776Z</time></trkpt><trkpt lat="42.3506382" lon="13.6144211"><ele>1296.0</ele><time>2026-04-12T10:37:25.778Z</time></trkpt><trkpt lat="42.3506386" lon="13.6143272"><ele>1296.0</ele><time>2026-04-12T10:37:27.776Z</time></trkpt><trkpt lat="42.3506515" lon="13.6142415"><ele>1296.0</ele><time>2026-04-12T10:37:29.778Z</time></trkpt><trkpt lat="42.3506821" lon="13.614156"><ele>1296.0</ele><time>2026-04-12T10:37:31.777Z</time></trkpt><trkpt lat="42.3507254" lon="13.6140802"><ele>1296.8333333333333</ele><time>2026-04-12T10:37:33.778Z</time></trkpt><trkpt lat="42.3507694" lon="13.6140053"><ele>1297.6666666666667</ele><time>2026-04-12T10:37:35.776Z</time></trkpt><trkpt lat="42.3508178" lon="13.6139364"><ele>1298.5</ele><time>2026-04-12T10:37:37.776Z</time></trkpt><trkpt lat="42.3508626" lon="13.6138584"><ele>1299.3333333333335</ele><time>2026-04-12T10:37:39.777Z</time></trkpt><trkpt lat="42.3508972" lon="13.6137542"><ele>1300.1666666666667</ele><time>2026-04-12T10:37:42.778Z</time></trkpt><trkpt lat="42.3509066" lon="13.6136271"><ele>1301.0</ele><time>2026-04-12T10:37:45.777Z</time></trkpt><trkpt lat="42.3508991" lon="13.6135059"><ele>1301.4285714285713</ele><time>2026-04-12T10:37:48.776Z</time></trkpt><trkpt lat="42.3508896" lon="13.6134164"><ele>1301.857142857143</ele><time>2026-04-12T10:37:50.777Z</time></trkpt><trkpt lat="42.3508832" lon="13.6133307"><ele>1302.2857142857142</ele><time>2026-04-12T10:37:52.777Z</time></trkpt><trkpt lat="42.3508805" lon="13.6132312"><ele>1302.7142857142858</ele><time>2026-04-12T10:37:54.776Z</time></trkpt><trkpt lat="42.3508714" lon="13.6131285"><ele>1303.142857142857</ele><time>2026-04-12T10:37:56.776Z</time></trkpt><trkpt lat="42.3508418" lon="13.6130176"><ele>1303.5714285714287</ele><time>2026-04-12T10:37:59.778Z</time></trkpt><trkpt lat="42.350818" lon="13.6129372"><ele>1304.0</ele><time>2026-04-12T10:38:01.776Z</time></trkpt><trkpt lat="42.3507671" lon="13.6128341"><ele>1302.4285714285716</ele><time>2026-04-12T10:38:04.777Z</time></trkpt><trkpt lat="42.3507273" lon="13.6127644"><ele>1300.8571428571427</ele><time>2026-04-12T10:38:06.776Z</time></trkpt><trkpt lat="42.3506828" lon="13.6126939"><ele>1299.2857142857142</ele><time>2026-04-12T10:38:08.778Z</time></trkpt><trkpt lat="42.3506371" lon="13.6126202"><ele>1297.7142857142858</ele><time>2026-04-12T10:38:10.776Z</time></trkpt><trkpt lat="42.3506069" lon="13.6125223"><ele>1296.1428571428573</ele><time>2026-04-12T10:38:12.777Z</time></trkpt><trkpt lat="42.3506206" lon="13.6124186"><ele>1294.5714285714284</ele><time>2026-04-12T10:38:14.777Z</time></trkpt><trkpt lat="42.3506591" lon="13.612323"><ele>1293.0</ele><time>2026-04-12T10:38:16.777Z</time></trkpt><trkpt lat="42.3507061" lon="13.6122312"><ele>1293.0</ele><time>2026-04-12T10:38:18.777Z</time></trkpt><trkpt lat="42.350748" lon="13.6121393"><ele>1293.0</ele><time>2026-04-12T10:38:20.777Z</time></trkpt><trkpt lat="42.3507863" lon="13.6120474"><ele>1293.0</ele><time>2026-04-12T10:38:22.778Z</time></trkpt><trkpt lat="42.3508232" lon="13.6119549"><ele>1293.0</ele><time>2026-04-12T10:38:24.776Z</time></trkpt><trkpt lat="42.3508518" lon="13.6118664"><ele>1293.0</ele><time>2026-04-12T10:38:26.776Z</time></trkpt><trkpt lat="42.350874" lon="13.6117816"><ele>1293.0</ele><time>2026-04-12T10:38:28.776Z</time></trkpt><trkpt lat="42.350891" lon="13.6116882"><ele>1293.0</ele><time>2026-04-12T10:38:30.776Z</time></trkpt><trkpt lat="42.350903" lon="13.6115961"><ele>1295.0</ele><time>2026-04-12T10:38:32.777Z</time></trkpt><trkpt lat="42.3509233" lon="13.6114964"><ele>1297.0</ele><time>2026-04-12T10:38:34.776Z</time></trkpt><trkpt lat="42.3509344" lon="13.6114023"><ele>1299.0</ele><time>2026-04-12T10:38:36.777Z</time></trkpt><trkpt lat="42.3509383" lon="13.6112947"><ele>1301.0</ele><time>2026-04-12T10:38:38.776Z</time></trkpt><trkpt lat="42.3509325" lon="13.6111896"><ele>1303.0</ele><time>2026-04-12T10:38:40.776Z</time></trkpt><trkpt lat="42.3509345" lon="13.6110823"><ele>1305.0</ele><time>2026-04-12T10:38:42.777Z</time></trkpt><trkpt lat="42.350928" lon="13.6109772"><ele>1305.6666666666667</ele><time>2026-04-12T10:38:44.778Z</time></trkpt><trkpt lat="42.3509203" lon="13.610873"><ele>1306.3333333333333</ele><time>2026-04-12T10:38:46.778Z</time></trkpt><trkpt lat="42.350908" lon="13.6107685"><ele>1307.0</ele><time>2026-04-12T10:38:48.776Z</time></trkpt><trkpt lat="42.3508971" lon="13.6106608"><ele>1307.6666666666665</ele><time>2026-04-12T10:38:50.777Z</time></trkpt><trkpt lat="42.350908" lon="13.610551"><ele>1308.3333333333333</ele><time>2026-04-12T10:38:52.776Z</time></trkpt><trkpt lat="42.3509477" lon="13.6104418"><ele>1309.0</ele><time>2026-04-12T10:38:54.777Z</time></trkpt><trkpt lat="42.3509953" lon="13.6103584"><ele>1311.2857142857142</ele><time>2026-04-12T10:38:56.775Z</time></trkpt><trkpt lat="42.3510402" lon="13.610271"><ele>1313.5714285714284</ele><time>2026-04-12T10:38:58.775Z</time></trkpt><trkpt lat="42.3510748" lon="13.6101969"><ele>1315.857142857143</ele><time>2026-04-12T10:39:00.775Z</time></trkpt><trkpt lat="42.3511148" lon="13.6101092"><ele>1318.142857142857</ele><time>2026-04-12T10:39:02.775Z</time></trkpt><trkpt lat="42.3511501" lon="13.6100216"><ele>1320.4285714285713</ele><time>2026-04-12T10:39:04.776Z</time></trkpt><trkpt lat="42.3511776" lon="13.6099283"><ele>1322.7142857142858</ele><time>2026-04-12T10:39:06.775Z</time></trkpt><trkpt lat="42.3511967" lon="13.6098286"><ele>1325.0</ele><time>2026-04-12T10:39:08.776Z</time></trkpt><trkpt lat="42.351225" lon="13.6097337"><ele>1325.0</ele><time>2026-04-12T10:39:10.775Z</time></trkpt><trkpt lat="42.3512687" lon="13.6096487"><ele>1325.0</ele><time>2026-04-12T10:39:12.776Z</time></trkpt><trkpt lat="42.3513257" lon="13.6095647"><ele>1325.0</ele><time>2026-04-12T10:39:14.775Z</time></trkpt><trkpt lat="42.3513815" lon="13.6094783"><ele>1325.0</ele><time>2026-04-12T10:39:16.777Z</time></trkpt><trkpt lat="42.3514267" lon="13.6093797"><ele>1325.0</ele><time>2026-04-12T10:39:18.776Z</time></trkpt><trkpt lat="42.3514588" lon="13.6092863"><ele>1325.0</ele><time>2026-04-12T10:39:20.776Z</time></trkpt><trkpt lat="42.3514857" lon="13.6092054"><ele>1322.0</ele><time>2026-04-12T10:39:22.776Z</time></trkpt><trkpt lat="42.3515169" lon="13.6091292"><ele>1319.0</ele><time>2026-04-12T10:39:24.776Z</time></trkpt><trkpt lat="42.3515412" lon="13.6090375"><ele>1316.0</ele><time>2026-04-12T10:39:26.777Z</time></trkpt><trkpt lat="42.3515687" lon="13.6089389"><ele>1313.0</ele><time>2026-04-12T10:39:28.775Z</time></trkpt><trkpt lat="42.3515901" lon="13.6088247"><ele>1310.0</ele><time>2026-04-12T10:39:30.776Z</time></trkpt><trkpt lat="42.3515869" lon="13.6086995"><ele>1307.0</ele><time>2026-04-12T10:39:32.776Z</time></trkpt><trkpt lat="42.351561" lon="13.6085755"><ele>1307.0</ele><time>2026-04-12T10:39:34.776Z</time></trkpt><trkpt lat="42.3515264" lon="13.608451"><ele>1307.0</ele><time>2026-04-12T10:39:36.776Z</time></trkpt><trkpt lat="42.351482" lon="13.608323"><ele>1307.0</ele><time>2026-04-12T10:39:38.776Z</time></trkpt><trkpt lat="42.3514568" lon="13.6081954"><ele>1307.0</ele><time>2026-04-12T10:39:40.776Z</time></trkpt><trkpt lat="42.3514462" lon="13.6080804"><ele>1307.0</ele><time>2026-04-12T10:39:42.775Z</time></trkpt><trkpt lat="42.3514629" lon="13.6079642"><ele>1307.0</ele><time>2026-04-12T10:39:44.777Z</time></trkpt><trkpt lat="42.3515137" lon="13.6078627"><ele>1307.0</ele><time>2026-04-12T10:39:46.776Z</time></trkpt><trkpt lat="42.3515747" lon="13.6077819"><ele>1307.0</ele><time>2026-04-12T10:39:48.776Z</time></trkpt><trkpt lat="42.3516238" lon="13.6077076"><ele>1307.0</ele><time>2026-04-12T10:39:50.777Z</time></trkpt><trkpt lat="42.3516557" lon="13.6076267"><ele>1307.0</ele><time>2026-04-12T10:39:52.777Z</time></trkpt><trkpt lat="42.3516674" lon="13.6075208"><ele>1307.0</ele><time>2026-04-12T10:39:54.776Z</time></trkpt><trkpt lat="42.3516567" lon="13.6073906"><ele>1307.1999999999998</ele><time>2026-04-12T10:39:56.776Z</time></trkpt><trkpt lat="42.351655" lon="13.607258"><ele>1307.4</ele><time>2026-04-12T10:39:58.775Z</time></trkpt><trkpt lat="42.3516429" lon="13.6071209"><ele>1307.6</ele><time>2026-04-12T10:40:00.775Z</time></trkpt><trkpt lat="42.3516283" lon="13.6069941"><ele>1307.8000000000002</ele><time>2026-04-12T10:40:02.775Z</time></trkpt><trkpt lat="42.3515934" lon="13.6068628"><ele>1308.0</ele><time>2026-04-12T10:40:04.776Z</time></trkpt><trkpt lat="42.3515535" lon="13.6067397"><ele>1306.5</ele><time>2026-04-12T10:40:06.776Z</time></trkpt><trkpt lat="42.3515099" lon="13.6066229"><ele>1305.0</ele><time>2026-04-12T10:40:08.777Z</time></trkpt><trkpt lat="42.3514664" lon="13.6065199"><ele>1303.5</ele><time>2026-04-12T10:40:10.775Z</time></trkpt><trkpt lat="42.3514212" lon="13.606411"><ele>1302.0</ele><time>2026-04-12T10:40:12.775Z</time></trkpt><trkpt lat="42.3513855" lon="13.6063169"><ele>1300.5</ele><time>2026-04-12T10:40:14.776Z</time></trkpt><trkpt lat="42.3513537" lon="13.6062121"><ele>1299.0</ele><time>2026-04-12T10:40:16.776Z</time></trkpt><trkpt lat="42.3513229" lon="13.6061071"><ele>1304.5</ele><time>2026-04-12T10:40:18.776Z</time></trkpt><trkpt lat="42.3512876" lon="13.6060015"><ele>1310.0</ele><time>2026-04-12T10:40:20.775Z</time></trkpt><trkpt lat="42.3512593" lon="13.6058973"><ele>1315.5</ele><time>2026-04-12T10:40:22.777Z</time></trkpt><trkpt lat="42.3512302" lon="13.6057958"><ele>1321.0</ele><time>2026-04-12T10:40:24.776Z</time></trkpt><trkpt lat="42.3512035" lon="13.6057055"><ele>1326.5</ele><time>2026-04-12T10:40:26.775Z</time></trkpt><trkpt lat="42.3511755" lon="13.6056126"><ele>1332.0</ele><time>2026-04-12T10:40:28.777Z</time></trkpt><trkpt lat="42.3511492" lon="13.605518"><ele>1332.0</ele><time>2026-04-12T10:40:30.775Z</time></trkpt><trkpt lat="42.351117" lon="13.6054246"><ele>1332.0</ele><time>2026-04-12T10:40:32.776Z</time></trkpt><trkpt lat="42.3510862" lon="13.6053291"><ele>1332.0</ele><time>2026-04-12T10:40:34.776Z</time></trkpt><trkpt lat="42.3510542" lon="13.6052422"><ele>1332.0</ele><time>2026-04-12T10:40:36.777Z</time></trkpt><trkpt lat="42.3510186" lon="13.6051651"><ele>1332.0</ele><time>2026-04-12T10:40:38.775Z</time></trkpt><trkpt lat="42.3509866" lon="13.6050831"><ele>1332.0</ele><time>2026-04-12T10:40:40.776Z</time></trkpt><trkpt lat="42.3509592" lon="13.6049979"><ele>1332.0</ele><time>2026-04-12T10:40:42.777Z</time></trkpt><trkpt lat="42.3509165" lon="13.6049256"><ele>1329.4285714285716</ele><time>2026-04-12T10:40:44.776Z</time></trkpt><trkpt lat="42.350873" lon="13.6048518"><ele>1326.8571428571427</ele><time>2026-04-12T10:40:46.775Z</time></trkpt><trkpt lat="42.3508251" lon="13.6047777"><ele>1324.2857142857142</ele><time>2026-04-12T10:40:48.775Z</time></trkpt><trkpt lat="42.3507765" lon="13.6047"><ele>1321.7142857142858</ele><time>2026-04-12T10:40:50.776Z</time></trkpt><trkpt lat="42.3507242" lon="13.6046256"><ele>1319.1428571428573</ele><time>2026-04-12T10:40:52.777Z</time></trkpt><trkpt lat="42.3506741" lon="13.6045507"><ele>1316.5714285714284</ele><time>2026-04-12T10:40:54.775Z</time></trkpt><trkpt lat="42.350625" lon="13.6044751"><ele>1314.0</ele><time>2026-04-12T10:40:56.776Z</time></trkpt><trkpt lat="42.3505836" lon="13.6043969"><ele>1312.2857142857142</ele><time>2026-04-12T10:40:58.776Z</time></trkpt><trkpt lat="42.3505437" lon="13.604321"><ele>1310.5714285714287</ele><time>2026-04-12T10:41:00.775Z</time></trkpt><trkpt lat="42.3505048" lon="13.6042467"><ele>1308.857142857143</ele><time>2026-04-12T10:41:02.775Z</time></trkpt><trkpt lat="42.3504641" lon="13.6041715"><ele>1307.142857142857</ele><time>2026-04-12T10:41:04.775Z</time></trkpt><trkpt lat="42.3504191" lon="13.6040941"><ele>1305.4285714285716</ele><time>2026-04-12T10:41:06.776Z</time></trkpt><trkpt lat="42.3503694" lon="13.6040161"><ele>1303.7142857142858</ele><time>2026-04-12T10:41:08.776Z</time></trkpt><trkpt lat="42.3503061" lon="13.6039386"><ele>1302.0</ele><time>2026-04-12T10:41:10.775Z</time></trkpt><trkpt lat="42.3502482" lon="13.6038577"><ele>1304.2857142857142</ele><time>2026-04-12T10:41:12.775Z</time></trkpt><trkpt lat="42.3501949" lon="13.603786"><ele>1306.5714285714284</ele><time>2026-04-12T10:41:14.776Z</time></trkpt><trkpt lat="42.3501421" lon="13.6037199"><ele>1308.857142857143</ele><time>2026-04-12T10:41:16.776Z</time></trkpt><trkpt lat="42.3500905" lon="13.6036518"><ele>1311.142857142857</ele><time>2026-04-12T10:41:18.776Z</time></trkpt><trkpt lat="42.3500355" lon="13.6035889"><ele>1313.4285714285713</ele><time>2026-04-12T10:41:20.777Z</time></trkpt><trkpt lat="42.3499779" lon="13.6035264"><ele>1315.7142857142858</ele><time>2026-04-12T10:41:22.775Z</time></trkpt><trkpt lat="42.3499174" lon="13.6034629"><ele>1318.0</ele><time>2026-04-12T10:41:24.775Z</time></trkpt><trkpt lat="42.3498626" lon="13.6033985"><ele>1318.0</ele><time>2026-04-12T10:41:26.775Z</time></trkpt><trkpt lat="42.3498137" lon="13.6033216"><ele>1318.0</ele><time>2026-04-12T10:41:28.776Z</time></trkpt><trkpt lat="42.3497727" lon="13.6032301"><ele>1318.0</ele><time>2026-04-12T10:41:30.776Z</time></trkpt><trkpt lat="42.3497503" lon="13.6031278"><ele>1318.0</ele><time>2026-04-12T10:41:32.777Z</time></trkpt><trkpt lat="42.3497378" lon="13.6030356"><ele>1318.0</ele><time>2026-04-12T10:41:34.777Z</time></trkpt><trkpt lat="42.3497417" lon="13.6029097"><ele>1318.0</ele><time>2026-04-12T10:41:37.775Z</time></trkpt><trkpt lat="42.3497406" lon="13.602818"><ele>1317.0</ele><time>2026-04-12T10:41:39.775Z</time></trkpt><trkpt lat="42.3497254" lon="13.6027236"><ele>1316.0</ele><time>2026-04-12T10:41:41.776Z</time></trkpt><trkpt lat="42.3496983" lon="13.6026331"><ele>1315.0</ele><time>2026-04-12T10:41:43.776Z</time></trkpt><trkpt lat="42.34965" lon="13.6025535"><ele>1314.0</ele><time>2026-04-12T10:41:45.776Z</time></trkpt><trkpt lat="42.3495956" lon="13.602478"><ele>1313.0</ele><time>2026-04-12T10:41:47.775Z</time></trkpt><trkpt lat="42.349535" lon="13.6024102"><ele>1312.0</ele><time>2026-04-12T10:41:49.775Z</time></trkpt><trkpt lat="42.3494761" lon="13.6023436"><ele>1314.8571428571427</ele><time>2026-04-12T10:41:51.776Z</time></trkpt><trkpt lat="42.3494247" lon="13.6022741"><ele>1317.7142857142858</ele><time>2026-04-12T10:41:53.776Z</time></trkpt><trkpt lat="42.3493725" lon="13.6022008"><ele>1320.5714285714284</ele><time>2026-04-12T10:41:55.775Z</time></trkpt><trkpt lat="42.3493247" lon="13.6021238"><ele>1323.4285714285713</ele><time>2026-04-12T10:41:57.776Z</time></trkpt><trkpt lat="42.3492863" lon="13.6020435"><ele>1326.2857142857142</ele><time>2026-04-12T10:41:59.776Z</time></trkpt><trkpt lat="42.3492608" lon="13.6019528"><ele>1329.142857142857</ele><time>2026-04-12T10:42:01.776Z</time></trkpt><trkpt lat="42.34925" lon="13.6018532"><ele>1332.0</ele><time>2026-04-12T10:42:03.777Z</time></trkpt><trkpt lat="42.3492544" lon="13.6017505"><ele>1332.0</ele><time>2026-04-12T10:42:05.776Z</time></trkpt><trkpt lat="42.3492646" lon="13.6016624"><ele>1332.0</ele><time>2026-04-12T10:42:07.776Z</time></trkpt><trkpt lat="42.3492992" lon="13.6015861"><ele>1332.0</ele><time>2026-04-12T10:42:09.775Z</time></trkpt><trkpt lat="42.3493217" lon="13.6014955"><ele>1332.0</ele><time>2026-04-12T10:42:11.775Z</time></trkpt><trkpt lat="42.3493421" lon="13.6014068"><ele>1332.0</ele><time>2026-04-12T10:42:13.775Z</time></trkpt><trkpt lat="42.3493649" lon="13.6013261"><ele>1332.0</ele><time>2026-04-12T10:42:15.775Z</time></trkpt><trkpt lat="42.349401" lon="13.6012436"><ele>1332.0</ele><time>2026-04-12T10:42:17.777Z</time></trkpt><trkpt lat="42.3494425" lon="13.6011584"><ele>1333.5714285714287</ele><time>2026-04-12T10:42:19.775Z</time></trkpt><trkpt lat="42.3494706" lon="13.601072"><ele>1335.142857142857</ele><time>2026-04-12T10:42:21.775Z</time></trkpt><trkpt lat="42.3494961" lon="13.6009848"><ele>1336.7142857142858</ele><time>2026-04-12T10:42:23.776Z</time></trkpt><trkpt lat="42.3495163" lon="13.6009037"><ele>1338.2857142857142</ele><time>2026-04-12T10:42:25.775Z</time></trkpt><trkpt lat="42.3495314" lon="13.6008186"><ele>1339.857142857143</ele><time>2026-04-12T10:42:27.777Z</time></trkpt><trkpt lat="42.3495436" lon="13.6007326"><ele>1341.4285714285713</ele><time>2026-04-12T10:42:29.776Z</time></trkpt><trkpt lat="42.3495618" lon="13.6006503"><ele>1343.0</ele><time>2026-04-12T10:42:31.775Z</time></trkpt><trkpt lat="42.3495877" lon="13.6005308"><ele>1343.0</ele><time>2026-04-12T10:42:34.776Z</time></trkpt><trkpt lat="42.3496154" lon="13.6004119"><ele>1343.0</ele><time>2026-04-12T10:42:37.776Z</time></trkpt><trkpt lat="42.3496452" lon="13.6002904"><ele>1343.0</ele><time>2026-04-12T10:42:40.775Z</time></trkpt><trkpt lat="42.3496681" lon="13.6001691"><ele>1343.0</ele><time>2026-04-12T10:42:43.775Z</time></trkpt><trkpt lat="42.3496946" lon="13.6000532"><ele>1343.0</ele><time>2026-04-12T10:42:46.775Z</time></trkpt><trkpt lat="42.3497136" lon="13.5999457"><ele>1341.1666666666667</ele><time>2026-04-12T10:42:49.775Z</time></trkpt><trkpt lat="42.3497285" lon="13.5998343"><ele>1339.3333333333335</ele><time>2026-04-12T10:42:52.776Z</time></trkpt><trkpt lat="42.3497331" lon="13.5997165"><ele>1337.5</ele><time>2026-04-12T10:42:55.775Z</time></trkpt><trkpt lat="42.3497491" lon="13.5996142"><ele>1335.6666666666667</ele><time>2026-04-12T10:42:58.775Z</time></trkpt><trkpt lat="42.349741" lon="13.5995021"><ele>1333.8333333333333</ele><time>2026-04-12T10:43:01.775Z</time></trkpt><trkpt lat="42.3497429" lon="13.5993907"><ele>1332.0</ele><time>2026-04-12T10:43:04.775Z</time></trkpt><trkpt lat="42.3497512" lon="13.5992663"><ele>1332.0</ele><time>2026-04-12T10:43:07.774Z</time></trkpt><trkpt lat="42.349758" lon="13.5991445"><ele>1332.0</ele><time>2026-04-12T10:43:10.775Z</time></trkpt><trkpt lat="42.3497517" lon="13.5990546"><ele>1332.0</ele><time>2026-04-12T10:43:12.775Z</time></trkpt><trkpt lat="42.349747" lon="13.5989469"><ele>1332.0</ele><time>2026-04-12T10:43:14.774Z</time></trkpt><trkpt lat="42.3497519" lon="13.5988427"><ele>1332.0</ele><time>2026-04-12T10:43:16.774Z</time></trkpt><trkpt lat="42.3497719" lon="13.598747"><ele>1332.0</ele><time>2026-04-12T10:43:18.775Z</time></trkpt><trkpt lat="42.3497889" lon="13.5986574"><ele>1334.3333333333333</ele><time>2026-04-12T10:43:20.775Z</time></trkpt><trkpt lat="42.3498088" lon="13.5985736"><ele>1336.6666666666667</ele><time>2026-04-12T10:43:22.774Z</time></trkpt><trkpt lat="42.3498201" lon="13.598473"><ele>1339.0</ele><time>2026-04-12T10:43:24.775Z</time></trkpt><trkpt lat="42.3498536" lon="13.5983914"><ele>1341.3333333333335</ele><time>2026-04-12T10:43:26.774Z</time></trkpt><trkpt lat="42.3499056" lon="13.5982869"><ele>1343.6666666666667</ele><time>2026-04-12T10:43:29.775Z</time></trkpt><trkpt lat="42.3499594" lon="13.5981636"><ele>1346.0</ele><time>2026-04-12T10:43:32.775Z</time></trkpt><trkpt lat="42.3500006" lon="13.5980793"><ele>1346.0</ele><time>2026-04-12T10:43:34.775Z</time></trkpt><trkpt lat="42.3500404" lon="13.5979974"><ele>1346.0</ele><time>2026-04-12T10:43:36.774Z</time></trkpt><trkpt lat="42.3500814" lon="13.5979231"><ele>1346.0</ele><time>2026-04-12T10:43:38.775Z</time></trkpt><trkpt lat="42.3501151" lon="13.597849"><ele>1346.0</ele><time>2026-04-12T10:43:40.775Z</time></trkpt><trkpt lat="42.3501669" lon="13.5977417"><ele>1346.0</ele><time>2026-04-12T10:43:43.775Z</time></trkpt><trkpt lat="42.3502096" lon="13.5976766"><ele>1346.0</ele><time>2026-04-12T10:43:45.774Z</time></trkpt><trkpt lat="42.3502628" lon="13.5975781"><ele>1343.0</ele><time>2026-04-12T10:43:48.776Z</time></trkpt><trkpt lat="42.3503025" lon="13.5975095"><ele>1340.0</ele><time>2026-04-12T10:43:50.774Z</time></trkpt><trkpt lat="42.3503672" lon="13.5974195"><ele>1337.0</ele><time>2026-04-12T10:43:53.775Z</time></trkpt><trkpt lat="42.3504237" lon="13.5973314"><ele>1334.0</ele><time>2026-04-12T10:43:56.775Z</time></trkpt><trkpt lat="42.350482" lon="13.5972623"><ele>1331.0</ele><time>2026-04-12T10:43:59.775Z</time></trkpt><trkpt lat="42.3505369" lon="13.5971746"><ele>1328.0</ele><time>2026-04-12T10:44:02.776Z</time></trkpt><trkpt lat="42.3505902" lon="13.5970886"><ele>1328.0</ele><time>2026-04-12T10:44:05.774Z</time></trkpt><trkpt lat="42.3506463" lon="13.5970465"><ele>1328.0</ele><time>2026-04-12T10:44:07.774Z</time></trkpt><trkpt lat="42.3507073" lon="13.5970092"><ele>1328.0</ele><time>2026-04-12T10:44:09.775Z</time></trkpt><trkpt lat="42.3507603" lon="13.5969464"><ele>1328.0</ele><time>2026-04-12T10:44:12.775Z</time></trkpt><trkpt lat="42.3507917" lon="13.5968598"><ele>1328.0</ele><time>2026-04-12T10:44:15.775Z</time></trkpt><trkpt lat="42.3508503" lon="13.5967872"><ele>1328.0</ele><time>2026-04-12T10:44:19.775Z</time></trkpt><trkpt lat="42.3508933" lon="13.5967126"><ele>1328.0</ele><time>2026-04-12T10:44:22.774Z</time></trkpt><trkpt lat="42.3509303" lon="13.5966136"><ele>1333.3333333333335</ele><time>2026-04-12T10:44:25.774Z</time></trkpt><trkpt lat="42.3509673" lon="13.5965413"><ele>1338.6666666666667</ele><time>2026-04-12T10:44:27.774Z</time></trkpt><trkpt lat="42.3510119" lon="13.5964368"><ele>1344.0</ele><time>2026-04-12T10:44:30.775Z</time></trkpt><trkpt lat="42.3510399" lon="13.5963476"><ele>1349.3333333333333</ele><time>2026-04-12T10:44:32.775Z</time></trkpt><trkpt lat="42.3510564" lon="13.5962415"><ele>1354.6666666666665</ele><time>2026-04-12T10:44:34.775Z</time></trkpt><trkpt lat="42.3510786" lon="13.5961452"><ele>1360.0</ele><time>2026-04-12T10:44:37.774Z</time></trkpt><trkpt lat="42.3511251" lon="13.5960512"><ele>1358.6666666666665</ele><time>2026-04-12T10:44:39.774Z</time></trkpt><trkpt lat="42.351184" lon="13.5959576"><ele>1357.3333333333333</ele><time>2026-04-12T10:44:41.776Z</time></trkpt><trkpt lat="42.3512816" lon="13.5958687"><ele>1356.0</ele><time>2026-04-12T10:44:43.775Z</time></trkpt><trkpt lat="42.3513535" lon="13.5958224"><ele>1354.6666666666667</ele><time>2026-04-12T10:44:45.775Z</time></trkpt><trkpt lat="42.3514225" lon="13.5957684"><ele>1353.3333333333335</ele><time>2026-04-12T10:44:47.775Z</time></trkpt><trkpt lat="42.3514974" lon="13.5957263"><ele>1352.0</ele><time>2026-04-12T10:44:49.775Z</time></trkpt><trkpt lat="42.3515661" lon="13.5956907"><ele>1352.0</ele><time>2026-04-12T10:44:51.774Z</time></trkpt><trkpt lat="42.3516291" lon="13.5956621"><ele>1352.0</ele><time>2026-04-12T10:44:53.775Z</time></trkpt><trkpt lat="42.3517033" lon="13.5955993"><ele>1352.0</ele><time>2026-04-12T10:44:56.775Z</time></trkpt><trkpt lat="42.3517638" lon="13.5955004"><ele>1352.0</ele><time>2026-04-12T10:44:59.774Z</time></trkpt><trkpt lat="42.3517921" lon="13.5954197"><ele>1352.0</ele><time>2026-04-12T10:45:01.775Z</time></trkpt><trkpt lat="42.3518147" lon="13.5953012"><ele>1352.0</ele><time>2026-04-12T10:45:04.774Z</time></trkpt><trkpt lat="42.3518509" lon="13.5952032"><ele>1350.4285714285716</ele><time>2026-04-12T10:45:07.775Z</time></trkpt><trkpt lat="42.3518831" lon="13.5951043"><ele>1348.857142857143</ele><time>2026-04-12T10:45:10.775Z</time></trkpt><trkpt lat="42.35192" lon="13.5950236"><ele>1347.2857142857142</ele><time>2026-04-12T10:45:12.775Z</time></trkpt><trkpt lat="42.3519577" lon="13.5949447"><ele>1345.7142857142858</ele><time>2026-04-12T10:45:14.774Z</time></trkpt><trkpt lat="42.3520039" lon="13.5948817"><ele>1344.142857142857</ele><time>2026-04-12T10:45:16.775Z</time></trkpt><trkpt lat="42.3520817" lon="13.59482"><ele>1342.5714285714287</ele><time>2026-04-12T10:45:19.775Z</time></trkpt><trkpt lat="42.3521484" lon="13.5948119"><ele>1341.0</ele><time>2026-04-12T10:45:21.775Z</time></trkpt><trkpt lat="42.3522108" lon="13.5947964"><ele>1341.0</ele><time>2026-04-12T10:45:23.775Z</time></trkpt><trkpt lat="42.3522734" lon="13.5947302"><ele>1341.0</ele><time>2026-04-12T10:45:54.775Z</time></trkpt><trkpt lat="42.3523426" lon="13.5946447"><ele>1341.0</ele><time>2026-04-12T10:45:56.774Z</time></trkpt><trkpt lat="42.3524419" lon="13.5945294"><ele>1341.0</ele><time>2026-04-12T10:45:58.775Z</time></trkpt><trkpt lat="42.35249" lon="13.5944616"><ele>1341.0</ele><time>2026-04-12T10:45:59.774Z</time></trkpt><trkpt lat="42.3525444" lon="13.5943835"><ele>1343.8333333333333</ele><time>2026-04-12T10:46:00.774Z</time></trkpt><trkpt lat="42.3525957" lon="13.5943054"><ele>1346.6666666666667</ele><time>2026-04-12T10:46:01.774Z</time></trkpt><trkpt lat="42.3526422" lon="13.5942223"><ele>1349.5</ele><time>2026-04-12T10:46:02.774Z</time></trkpt><trkpt lat="42.35269" lon="13.5941353"><ele>1352.3333333333335</ele><time>2026-04-12T10:46:03.775Z</time></trkpt><trkpt lat="42.3527392" lon="13.5940477"><ele>1355.1666666666667</ele><time>2026-04-12T10:46:04.775Z</time></trkpt><trkpt lat="42.3527814" lon="13.5939608"><ele>1358.0</ele><time>2026-04-12T10:46:05.775Z</time></trkpt><trkpt lat="42.3528211" lon="13.5938705"><ele>1358.0</ele><time>2026-04-12T10:46:06.775Z</time></trkpt><trkpt lat="42.3528487" lon="13.593773"><ele>1358.0</ele><time>2026-04-12T10:46:07.774Z</time></trkpt><trkpt lat="42.3528753" lon="13.5936725"><ele>1358.0</ele><time>2026-04-12T10:46:08.775Z</time></trkpt><trkpt lat="42.3528995" lon="13.5935737"><ele>1358.0</ele><time>2026-04-12T10:46:09.775Z</time></trkpt><trkpt lat="42.3529232" lon="13.5934733"><ele>1358.0</ele><time>2026-04-12T10:46:10.775Z</time></trkpt><trkpt lat="42.3529496" lon="13.5933721"><ele>1358.0</ele><time>2026-04-12T10:46:11.774Z</time></trkpt><trkpt lat="42.3529734" lon="13.5932722"><ele>1358.1666666666667</ele><time>2026-04-12T10:46:12.774Z</time></trkpt><trkpt lat="42.3529968" lon="13.5931731"><ele>1358.3333333333335</ele><time>2026-04-12T10:46:13.775Z</time></trkpt><trkpt lat="42.3530208" lon="13.5930689"><ele>1358.5</ele><time>2026-04-12T10:46:14.774Z</time></trkpt><trkpt lat="42.3530433" lon="13.592967"><ele>1358.6666666666667</ele><time>2026-04-12T10:46:15.776Z</time></trkpt><trkpt lat="42.3530599" lon="13.5928645"><ele>1358.8333333333333</ele><time>2026-04-12T10:46:16.775Z</time></trkpt><trkpt lat="42.3530779" lon="13.5927637"><ele>1359.0</ele><time>2026-04-12T10:46:17.775Z</time></trkpt><trkpt lat="42.353092" lon="13.5926593"><ele>1358.1666666666667</ele><time>2026-04-12T10:46:18.774Z</time></trkpt><trkpt lat="42.3531108" lon="13.5925555"><ele>1357.3333333333333</ele><time>2026-04-12T10:46:19.774Z</time></trkpt><trkpt lat="42.3531176" lon="13.5924552"><ele>1356.5</ele><time>2026-04-12T10:46:20.774Z</time></trkpt><trkpt lat="42.3531109" lon="13.5923525"><ele>1355.6666666666665</ele><time>2026-04-12T10:46:21.775Z</time></trkpt><trkpt lat="42.3530999" lon="13.5922524"><ele>1354.8333333333333</ele><time>2026-04-12T10:46:22.775Z</time></trkpt><trkpt lat="42.3530865" lon="13.5921553"><ele>1354.0</ele><time>2026-04-12T10:46:23.775Z</time></trkpt><trkpt lat="42.3530802" lon="13.5920568"><ele>1354.6666666666665</ele><time>2026-04-12T10:46:24.775Z</time></trkpt><trkpt lat="42.3530737" lon="13.5919508"><ele>1355.3333333333333</ele><time>2026-04-12T10:46:25.775Z</time></trkpt><trkpt lat="42.3530696" lon="13.591838"><ele>1356.0</ele><time>2026-04-12T10:46:26.775Z</time></trkpt><trkpt lat="42.3530633" lon="13.5917275"><ele>1356.6666666666667</ele><time>2026-04-12T10:46:27.776Z</time></trkpt><trkpt lat="42.3530549" lon="13.5916102"><ele>1357.3333333333335</ele><time>2026-04-12T10:46:28.776Z</time></trkpt><trkpt lat="42.3530447" lon="13.5914928"><ele>1358.0</ele><time>2026-04-12T10:46:29.775Z</time></trkpt><trkpt lat="42.3530212" lon="13.5913825"><ele>1358.0</ele><time>2026-04-12T10:46:30.775Z</time></trkpt><trkpt lat="42.3529889" lon="13.5912893"><ele>1358.0</ele><time>2026-04-12T10:46:31.776Z</time></trkpt><trkpt lat="42.352951" lon="13.5912086"><ele>1358.0</ele><time>2026-04-12T10:46:32.774Z</time></trkpt><trkpt lat="42.3529097" lon="13.5911295"><ele>1358.0</ele><time>2026-04-12T10:46:33.775Z</time></trkpt><trkpt lat="42.3528686" lon="13.5910572"><ele>1358.0</ele><time>2026-04-12T10:46:34.774Z</time></trkpt><trkpt lat="42.3528328" lon="13.5909206"><ele>1358.0</ele><time>2026-04-12T10:46:36.774Z</time></trkpt><trkpt lat="42.3529074" lon="13.5908761"><ele>1356.5</ele><time>2026-04-12T10:46:38.774Z</time></trkpt><trkpt lat="42.3530004" lon="13.590967"><ele>1355.0</ele><time>2026-04-12T10:46:40.776Z</time></trkpt><trkpt lat="42.3530526" lon="13.5910318"><ele>1353.5</ele><time>2026-04-12T10:46:41.774Z</time></trkpt><trkpt lat="42.3531063" lon="13.5910961"><ele>1352.0</ele><time>2026-04-12T10:46:42.776Z</time></trkpt><trkpt lat="42.3531629" lon="13.5911665"><ele>1350.5</ele><time>2026-04-12T10:46:43.774Z</time></trkpt><trkpt lat="42.3532323" lon="13.5912195"><ele>1349.0</ele><time>2026-04-12T10:46:44.775Z</time></trkpt><trkpt lat="42.3533077" lon="13.5912582"><ele>1348.5</ele><time>2026-04-12T10:46:45.774Z</time></trkpt><trkpt lat="42.3533903" lon="13.5912796"><ele>1348.0</ele><time>2026-04-12T10:46:46.774Z</time></trkpt><trkpt lat="42.3534683" lon="13.5913014"><ele>1347.5</ele><time>2026-04-12T10:46:47.775Z</time></trkpt><trkpt lat="42.353546" lon="13.5913121"><ele>1347.0</ele><time>2026-04-12T10:46:48.775Z</time></trkpt><trkpt lat="42.3536233" lon="13.5913071"><ele>1346.5</ele><time>2026-04-12T10:46:49.775Z</time></trkpt><trkpt lat="42.3537015" lon="13.5912971"><ele>1346.0</ele><time>2026-04-12T10:46:50.775Z</time></trkpt><trkpt lat="42.3537783" lon="13.5912826"><ele>1346.0</ele><time>2026-04-12T10:46:51.776Z</time></trkpt><trkpt lat="42.3538519" lon="13.5912484"><ele>1346.0</ele><time>2026-04-12T10:46:52.775Z</time></trkpt><trkpt lat="42.3539106" lon="13.5911889"><ele>1346.0</ele><time>2026-04-12T10:46:53.774Z</time></trkpt><trkpt lat="42.3539478" lon="13.5911042"><ele>1346.0</ele><time>2026-04-12T10:46:54.774Z</time></trkpt><trkpt lat="42.3539619" lon="13.5910062"><ele>1346.0</ele><time>2026-04-12T10:46:55.776Z</time></trkpt><trkpt lat="42.3539469" lon="13.5909039"><ele>1346.0</ele><time>2026-04-12T10:46:56.775Z</time></trkpt><trkpt lat="42.3539231" lon="13.5908094"><ele>1346.0</ele><time>2026-04-12T10:46:57.776Z</time></trkpt><trkpt lat="42.3538965" lon="13.5907106"><ele>1345.857142857143</ele><time>2026-04-12T10:46:58.775Z</time></trkpt><trkpt lat="42.3538724" lon="13.5906208"><ele>1345.7142857142856</ele><time>2026-04-12T10:46:59.775Z</time></trkpt><trkpt lat="42.353856" lon="13.5905218"><ele>1345.5714285714284</ele><time>2026-04-12T10:47:00.775Z</time></trkpt><trkpt lat="42.3538425" lon="13.5904253"><ele>1345.4285714285716</ele><time>2026-04-12T10:47:01.775Z</time></trkpt><trkpt lat="42.3538342" lon="13.5903282"><ele>1345.2857142857142</ele><time>2026-04-12T10:47:02.776Z</time></trkpt><trkpt lat="42.3538289" lon="13.5902271"><ele>1345.142857142857</ele><time>2026-04-12T10:47:03.775Z</time></trkpt><trkpt lat="42.3538229" lon="13.5901271"><ele>1345.0</ele><time>2026-04-12T10:47:04.775Z</time></trkpt><trkpt lat="42.353818" lon="13.5900278"><ele>1344.857142857143</ele><time>2026-04-12T10:47:05.775Z</time></trkpt><trkpt lat="42.3538251" lon="13.5899367"><ele>1344.7142857142858</ele><time>2026-04-12T10:47:06.775Z</time></trkpt><trkpt lat="42.3538374" lon="13.5898407"><ele>1344.5714285714284</ele><time>2026-04-12T10:47:07.775Z</time></trkpt><trkpt lat="42.3538601" lon="13.5897489"><ele>1344.4285714285716</ele><time>2026-04-12T10:47:08.774Z</time></trkpt><trkpt lat="42.3538958" lon="13.5896598"><ele>1344.2857142857142</ele><time>2026-04-12T10:47:09.776Z</time></trkpt><trkpt lat="42.3539376" lon="13.5895751"><ele>1344.142857142857</ele><time>2026-04-12T10:47:10.775Z</time></trkpt><trkpt lat="42.3539827" lon="13.5894913"><ele>1344.0</ele><time>2026-04-12T10:47:11.775Z</time></trkpt><trkpt lat="42.3540341" lon="13.5894089"><ele>1342.1666666666667</ele><time>2026-04-12T10:47:12.775Z</time></trkpt><trkpt lat="42.354089" lon="13.5893303"><ele>1340.3333333333333</ele><time>2026-04-12T10:47:13.774Z</time></trkpt><trkpt lat="42.3541539" lon="13.5892583"><ele>1338.5</ele><time>2026-04-12T10:47:14.775Z</time></trkpt><trkpt lat="42.3542117" lon="13.5891865"><ele>1336.6666666666665</ele><time>2026-04-12T10:47:15.775Z</time></trkpt><trkpt lat="42.3542717" lon="13.5891186"><ele>1334.8333333333333</ele><time>2026-04-12T10:47:16.773Z</time></trkpt><trkpt lat="42.3543335" lon="13.5890457"><ele>1333.0</ele><time>2026-04-12T10:47:17.774Z</time></trkpt><trkpt lat="42.3543967" lon="13.58897"><ele>1333.0</ele><time>2026-04-12T10:47:18.774Z</time></trkpt><trkpt lat="42.3544448" lon="13.5888678"><ele>1333.0</ele><time>2026-04-12T10:47:19.774Z</time></trkpt><trkpt lat="42.3544889" lon="13.5887732"><ele>1333.0</ele><time>2026-04-12T10:47:20.774Z</time></trkpt><trkpt lat="42.3545294" lon="13.588674"><ele>1333.0</ele><time>2026-04-12T10:47:21.775Z</time></trkpt><trkpt lat="42.3545685" lon="13.588569"><ele>1333.0</ele><time>2026-04-12T10:47:22.774Z</time></trkpt><trkpt lat="42.3545959" lon="13.5884694"><ele>1333.0</ele><time>2026-04-12T10:47:23.774Z</time></trkpt><trkpt lat="42.3546264" lon="13.5883685"><ele>1333.3333333333333</ele><time>2026-04-12T10:47:24.775Z</time></trkpt><trkpt lat="42.3546561" lon="13.5882765"><ele>1333.6666666666665</ele><time>2026-04-12T10:47:25.774Z</time></trkpt><trkpt lat="42.3547066" lon="13.5881831"><ele>1334.0</ele><time>2026-04-12T10:47:26.774Z</time></trkpt><trkpt lat="42.3547637" lon="13.5880983"><ele>1334.3333333333333</ele><time>2026-04-12T10:47:27.773Z</time></trkpt><trkpt lat="42.3548256" lon="13.5880233"><ele>1334.6666666666667</ele><time>2026-04-12T10:47:28.775Z</time></trkpt><trkpt lat="42.3548942" lon="13.5879504"><ele>1335.0</ele><time>2026-04-12T10:47:29.773Z</time></trkpt><trkpt lat="42.3549603" lon="13.5878779"><ele>1332.6666666666667</ele><time>2026-04-12T10:47:30.773Z</time></trkpt><trkpt lat="42.3550208" lon="13.5878106"><ele>1330.3333333333333</ele><time>2026-04-12T10:47:31.774Z</time></trkpt><trkpt lat="42.3550878" lon="13.58773"><ele>1328.0</ele><time>2026-04-12T10:47:32.774Z</time></trkpt><trkpt lat="42.3551507" lon="13.5876574"><ele>1325.6666666666665</ele><time>2026-04-12T10:47:33.773Z</time></trkpt><trkpt lat="42.3552131" lon="13.5875838"><ele>1323.3333333333333</ele><time>2026-04-12T10:47:34.774Z</time></trkpt><trkpt lat="42.3552673" lon="13.5875005"><ele>1321.0</ele><time>2026-04-12T10:47:35.774Z</time></trkpt><trkpt lat="42.3553118" lon="13.5874079"><ele>1321.0</ele><time>2026-04-12T10:47:36.774Z</time></trkpt><trkpt lat="42.3553406" lon="13.5873075"><ele>1321.0</ele><time>2026-04-12T10:47:37.773Z</time></trkpt><trkpt lat="42.3553503" lon="13.587206"><ele>1321.0</ele><time>2026-04-12T10:47:38.775Z</time></trkpt><trkpt lat="42.355351" lon="13.5871073"><ele>1321.0</ele><time>2026-04-12T10:47:39.774Z</time></trkpt><trkpt lat="42.3553649" lon="13.5870038"><ele>1321.0</ele><time>2026-04-12T10:47:40.774Z</time></trkpt><trkpt lat="42.3553938" lon="13.5869029"><ele>1321.0</ele><time>2026-04-12T10:47:41.774Z</time></trkpt><trkpt lat="42.3554141" lon="13.5868016"><ele>1321.5</ele><time>2026-04-12T10:47:42.774Z</time></trkpt><trkpt lat="42.3554908" lon="13.586729"><ele>1322.0</ele><time>2026-04-12T10:47:43.774Z</time></trkpt><trkpt lat="42.3555499" lon="13.5866579"><ele>1322.5</ele><time>2026-04-12T10:47:44.773Z</time></trkpt><trkpt lat="42.3556202" lon="13.586598"><ele>1323.0</ele><time>2026-04-12T10:47:45.775Z</time></trkpt><trkpt lat="42.3556969" lon="13.5865534"><ele>1323.5</ele><time>2026-04-12T10:47:46.774Z</time></trkpt><trkpt lat="42.3557771" lon="13.5865327"><ele>1324.0</ele><time>2026-04-12T10:47:47.773Z</time></trkpt><trkpt lat="42.3558507" lon="13.5865349"><ele>1324.0</ele><time>2026-04-12T10:47:48.774Z</time></trkpt><trkpt lat="42.3559265" lon="13.5865526"><ele>1324.0</ele><time>2026-04-12T10:47:49.774Z</time></trkpt><trkpt lat="42.356" lon="13.5865657"><ele>1324.0</ele><time>2026-04-12T10:47:50.774Z</time></trkpt><trkpt lat="42.3560751" lon="13.5865489"><ele>1324.0</ele><time>2026-04-12T10:47:51.774Z</time></trkpt><trkpt lat="42.356149" lon="13.5865168"><ele>1324.0</ele><time>2026-04-12T10:47:52.773Z</time></trkpt><trkpt lat="42.356207" lon="13.5864704"><ele>1324.0</ele><time>2026-04-12T10:47:53.775Z</time></trkpt><trkpt lat="42.3562695" lon="13.5864119"><ele>1324.0</ele><time>2026-04-12T10:47:54.775Z</time></trkpt><trkpt lat="42.3563298" lon="13.5863404"><ele>1323.1666666666665</ele><time>2026-04-12T10:47:55.773Z</time></trkpt><trkpt lat="42.3563907" lon="13.5862669"><ele>1322.3333333333333</ele><time>2026-04-12T10:47:56.774Z</time></trkpt><trkpt lat="42.3564573" lon="13.5861944"><ele>1321.5</ele><time>2026-04-12T10:47:57.773Z</time></trkpt><trkpt lat="42.3565256" lon="13.5861182"><ele>1320.6666666666667</ele><time>2026-04-12T10:47:58.774Z</time></trkpt><trkpt lat="42.3565988" lon="13.586037"><ele>1319.8333333333335</ele><time>2026-04-12T10:47:59.774Z</time></trkpt><trkpt lat="42.3566705" lon="13.5859521"><ele>1319.0</ele><time>2026-04-12T10:48:00.773Z</time></trkpt><trkpt lat="42.3567421" lon="13.5858652"><ele>1319.0</ele><time>2026-04-12T10:48:01.775Z</time></trkpt><trkpt lat="42.3568164" lon="13.5857798"><ele>1319.0</ele><time>2026-04-12T10:48:02.774Z</time></trkpt><trkpt lat="42.3568865" lon="13.585699"><ele>1319.0</ele><time>2026-04-12T10:48:03.774Z</time></trkpt><trkpt lat="42.3569554" lon="13.5856118"><ele>1319.0</ele><time>2026-04-12T10:48:04.774Z</time></trkpt><trkpt lat="42.3570232" lon="13.5855146"><ele>1319.0</ele><time>2026-04-12T10:48:05.773Z</time></trkpt><trkpt lat="42.3570881" lon="13.5854146"><ele>1318.6</ele><time>2026-04-12T10:48:06.774Z</time></trkpt><trkpt lat="42.357148" lon="13.5853121"><ele>1318.2</ele><time>2026-04-12T10:48:07.773Z</time></trkpt><trkpt lat="42.3572134" lon="13.5852083"><ele>1317.8</ele><time>2026-04-12T10:48:08.774Z</time></trkpt><trkpt lat="42.3572813" lon="13.585111"><ele>1317.3999999999999</ele><time>2026-04-12T10:48:09.773Z</time></trkpt><trkpt lat="42.3573542" lon="13.5850135"><ele>1317.0</ele><time>2026-04-12T10:48:10.775Z</time></trkpt><trkpt lat="42.357427" lon="13.5849254"><ele>1317.0</ele><time>2026-04-12T10:48:11.773Z</time></trkpt><trkpt lat="42.3575038" lon="13.5848464"><ele>1317.0</ele><time>2026-04-12T10:48:12.773Z</time></trkpt><trkpt lat="42.3575828" lon="13.584767"><ele>1317.0</ele><time>2026-04-12T10:48:13.774Z</time></trkpt><trkpt lat="42.3576604" lon="13.5846831"><ele>1317.0</ele><time>2026-04-12T10:48:14.773Z</time></trkpt><trkpt lat="42.3577315" lon="13.5845888"><ele>1317.0</ele><time>2026-04-12T10:48:15.775Z</time></trkpt><trkpt lat="42.3577945" lon="13.584483"><ele>1317.6</ele><time>2026-04-12T10:48:16.774Z</time></trkpt><trkpt lat="42.3578564" lon="13.5843787"><ele>1318.1999999999998</ele><time>2026-04-12T10:48:17.773Z</time></trkpt><trkpt lat="42.3579192" lon="13.5842678"><ele>1318.8</ele><time>2026-04-12T10:48:18.773Z</time></trkpt><trkpt lat="42.3579796" lon="13.5841567"><ele>1319.4</ele><time>2026-04-12T10:48:19.774Z</time></trkpt><trkpt lat="42.358039" lon="13.5840417"><ele>1320.0</ele><time>2026-04-12T10:48:20.774Z</time></trkpt><trkpt lat="42.3580939" lon="13.5839282"><ele>1320.0</ele><time>2026-04-12T10:48:21.773Z</time></trkpt><trkpt lat="42.3581405" lon="13.5838153"><ele>1320.0</ele><time>2026-04-12T10:48:22.774Z</time></trkpt><trkpt lat="42.3581812" lon="13.5836995"><ele>1320.0</ele><time>2026-04-12T10:48:23.773Z</time></trkpt><trkpt lat="42.3582148" lon="13.5835781"><ele>1320.0</ele><time>2026-04-12T10:48:24.773Z</time></trkpt><trkpt lat="42.3582474" lon="13.5834641"><ele>1320.0</ele><time>2026-04-12T10:48:25.773Z</time></trkpt><trkpt lat="42.3582889" lon="13.5833507"><ele>1317.6</ele><time>2026-04-12T10:48:26.774Z</time></trkpt><trkpt lat="42.3583233" lon="13.5832405"><ele>1315.2</ele><time>2026-04-12T10:48:27.774Z</time></trkpt><trkpt lat="42.3583721" lon="13.5831376"><ele>1312.8000000000002</ele><time>2026-04-12T10:48:28.773Z</time></trkpt><trkpt lat="42.3584241" lon="13.5830335"><ele>1310.4</ele><time>2026-04-12T10:48:29.773Z</time></trkpt><trkpt lat="42.3584793" lon="13.5829401"><ele>1308.0</ele><time>2026-04-12T10:48:30.774Z</time></trkpt><trkpt lat="42.3585419" lon="13.5828483"><ele>1308.0</ele><time>2026-04-12T10:48:31.773Z</time></trkpt><trkpt lat="42.358613" lon="13.5827624"><ele>1308.0</ele><time>2026-04-12T10:48:32.774Z</time></trkpt><trkpt lat="42.3586819" lon="13.5826762"><ele>1308.0</ele><time>2026-04-12T10:48:33.774Z</time></trkpt><trkpt lat="42.3587497" lon="13.5825834"><ele>1308.0</ele><time>2026-04-12T10:48:34.773Z</time></trkpt><trkpt lat="42.358817" lon="13.5824898"><ele>1308.0</ele><time>2026-04-12T10:48:35.773Z</time></trkpt><trkpt lat="42.3588895" lon="13.5823975"><ele>1308.0</ele><time>2026-04-12T10:48:36.773Z</time></trkpt><trkpt lat="42.358958" lon="13.5823051"><ele>1308.0</ele><time>2026-04-12T10:48:37.774Z</time></trkpt><trkpt lat="42.3590281" lon="13.5822127"><ele>1308.0</ele><time>2026-04-12T10:48:38.774Z</time></trkpt><trkpt lat="42.3590974" lon="13.5821222"><ele>1308.0</ele><time>2026-04-12T10:48:39.773Z</time></trkpt><trkpt lat="42.3591635" lon="13.5820298"><ele>1308.0</ele><time>2026-04-12T10:48:40.775Z</time></trkpt><trkpt lat="42.3592295" lon="13.5819374"><ele>1306.6666666666667</ele><time>2026-04-12T10:48:41.774Z</time></trkpt><trkpt lat="42.359291" lon="13.5818382"><ele>1305.3333333333333</ele><time>2026-04-12T10:48:42.774Z</time></trkpt><trkpt lat="42.3593435" lon="13.5817431"><ele>1304.0</ele><time>2026-04-12T10:48:43.774Z</time></trkpt><trkpt lat="42.3594051" lon="13.5816546"><ele>1302.6666666666665</ele><time>2026-04-12T10:48:44.773Z</time></trkpt><trkpt lat="42.3594659" lon="13.5815692"><ele>1301.3333333333333</ele><time>2026-04-12T10:48:45.774Z</time></trkpt><trkpt lat="42.3595243" lon="13.5814857"><ele>1300.0</ele><time>2026-04-12T10:48:46.773Z</time></trkpt><trkpt lat="42.3595843" lon="13.5814013"><ele>1300.0</ele><time>2026-04-12T10:48:47.773Z</time></trkpt><trkpt lat="42.3596435" lon="13.5813148"><ele>1300.0</ele><time>2026-04-12T10:48:48.774Z</time></trkpt><trkpt lat="42.3597028" lon="13.5812251"><ele>1300.0</ele><time>2026-04-12T10:48:49.774Z</time></trkpt><trkpt lat="42.3597564" lon="13.581131"><ele>1300.0</ele><time>2026-04-12T10:48:50.774Z</time></trkpt><trkpt lat="42.3598087" lon="13.5810341"><ele>1300.0</ele><time>2026-04-12T10:48:51.773Z</time></trkpt><trkpt lat="42.3598665" lon="13.5809408"><ele>1300.0</ele><time>2026-04-12T10:48:52.773Z</time></trkpt><trkpt lat="42.3599235" lon="13.5808503"><ele>1299.8333333333333</ele><time>2026-04-12T10:48:53.775Z</time></trkpt><trkpt lat="42.3599784" lon="13.5807572"><ele>1299.6666666666665</ele><time>2026-04-12T10:48:54.774Z</time></trkpt><trkpt lat="42.3600312" lon="13.5806634"><ele>1299.5</ele><time>2026-04-12T10:48:55.775Z</time></trkpt><trkpt lat="42.3600838" lon="13.5805661"><ele>1299.3333333333333</ele><time>2026-04-12T10:48:56.774Z</time></trkpt><trkpt lat="42.3601353" lon="13.5804747"><ele>1299.1666666666667</ele><time>2026-04-12T10:48:57.773Z</time></trkpt><trkpt lat="42.3601845" lon="13.5803833"><ele>1299.0</ele><time>2026-04-12T10:48:58.773Z</time></trkpt><trkpt lat="42.3602307" lon="13.5802904"><ele>1298.1666666666667</ele><time>2026-04-12T10:48:59.773Z</time></trkpt><trkpt lat="42.3602676" lon="13.5801956"><ele>1297.3333333333333</ele><time>2026-04-12T10:49:00.773Z</time></trkpt><trkpt lat="42.3603106" lon="13.5801017"><ele>1296.5</ele><time>2026-04-12T10:49:01.773Z</time></trkpt><trkpt lat="42.3603482" lon="13.5800041"><ele>1295.6666666666665</ele><time>2026-04-12T10:49:02.774Z</time></trkpt><trkpt lat="42.3603804" lon="13.5799007"><ele>1294.8333333333333</ele><time>2026-04-12T10:49:03.774Z</time></trkpt><trkpt lat="42.3604152" lon="13.5798014"><ele>1294.0</ele><time>2026-04-12T10:49:04.774Z</time></trkpt><trkpt lat="42.3604489" lon="13.5796954"><ele>1294.0</ele><time>2026-04-12T10:49:05.773Z</time></trkpt><trkpt lat="42.3604804" lon="13.5795926"><ele>1294.0</ele><time>2026-04-12T10:49:06.774Z</time></trkpt><trkpt lat="42.3605079" lon="13.5794918"><ele>1294.0</ele><time>2026-04-12T10:49:07.773Z</time></trkpt><trkpt lat="42.3605387" lon="13.5793904"><ele>1294.0</ele><time>2026-04-12T10:49:08.773Z</time></trkpt><trkpt lat="42.3605701" lon="13.5792894"><ele>1294.0</ele><time>2026-04-12T10:49:09.774Z</time></trkpt><trkpt lat="42.3605981" lon="13.5791921"><ele>1294.0</ele><time>2026-04-12T10:49:10.774Z</time></trkpt><trkpt lat="42.3606309" lon="13.5790933"><ele>1294.0</ele><time>2026-04-12T10:49:11.773Z</time></trkpt><trkpt lat="42.3606616" lon="13.5789988"><ele>1294.0</ele><time>2026-04-12T10:49:12.774Z</time></trkpt><trkpt lat="42.3606894" lon="13.5789065"><ele>1294.0</ele><time>2026-04-12T10:49:13.774Z</time></trkpt><trkpt lat="42.3607202" lon="13.5788148"><ele>1294.0</ele><time>2026-04-12T10:49:14.773Z</time></trkpt><trkpt lat="42.3607542" lon="13.5787235"><ele>1294.0</ele><time>2026-04-12T10:49:15.774Z</time></trkpt><trkpt lat="42.3607913" lon="13.5786399"><ele>1294.0</ele><time>2026-04-12T10:49:16.775Z</time></trkpt><trkpt lat="42.3608241" lon="13.5785562"><ele>1294.0</ele><time>2026-04-12T10:49:17.774Z</time></trkpt><trkpt lat="42.3608541" lon="13.5784776"><ele>1294.0</ele><time>2026-04-12T10:49:18.773Z</time></trkpt><trkpt lat="42.360885" lon="13.5783983"><ele>1294.0</ele><time>2026-04-12T10:49:19.773Z</time></trkpt><trkpt lat="42.3609389" lon="13.5782513"><ele>1294.0</ele><time>2026-04-12T10:49:21.773Z</time></trkpt><trkpt lat="42.3609665" lon="13.5781747"><ele>1294.0</ele><time>2026-04-12T10:49:22.773Z</time></trkpt><trkpt lat="42.3609948" lon="13.5780961"><ele>1294.0</ele><time>2026-04-12T10:49:23.774Z</time></trkpt><trkpt lat="42.3610209" lon="13.5780184"><ele>1294.0</ele><time>2026-04-12T10:49:24.774Z</time></trkpt><trkpt lat="42.3610458" lon="13.5779363"><ele>1294.0</ele><time>2026-04-12T10:49:25.775Z</time></trkpt><trkpt lat="42.3610703" lon="13.5778544"><ele>1293.6</ele><time>2026-04-12T10:49:26.774Z</time></trkpt><trkpt lat="42.3610902" lon="13.5777693"><ele>1293.2</ele><time>2026-04-12T10:49:27.775Z</time></trkpt><trkpt lat="42.3611163" lon="13.5776139"><ele>1292.8</ele><time>2026-04-12T10:49:29.773Z</time></trkpt><trkpt lat="42.3611428" lon="13.5774579"><ele>1292.3999999999999</ele><time>2026-04-12T10:49:31.774Z</time></trkpt><trkpt lat="42.3611706" lon="13.5773086"><ele>1292.0</ele><time>2026-04-12T10:49:33.774Z</time></trkpt><trkpt lat="42.3612136" lon="13.5771687"><ele>1292.0</ele><time>2026-04-12T10:49:35.774Z</time></trkpt><trkpt lat="42.3612694" lon="13.5770325"><ele>1292.0</ele><time>2026-04-12T10:49:37.773Z</time></trkpt><trkpt lat="42.3613298" lon="13.576907"><ele>1292.0</ele><time>2026-04-12T10:49:39.774Z</time></trkpt><trkpt lat="42.3613834" lon="13.5767877"><ele>1292.0</ele><time>2026-04-12T10:49:41.775Z</time></trkpt><trkpt lat="42.3614303" lon="13.576687"><ele>1292.0</ele><time>2026-04-12T10:49:43.773Z</time></trkpt><trkpt lat="42.3614795" lon="13.5765903"><ele>1293.6666666666667</ele><time>2026-04-12T10:49:45.773Z</time></trkpt><trkpt lat="42.3615238" lon="13.5765003"><ele>1295.3333333333335</ele><time>2026-04-12T10:49:47.774Z</time></trkpt><trkpt lat="42.3615705" lon="13.5764079"><ele>1297.0</ele><time>2026-04-12T10:49:49.773Z</time></trkpt><trkpt lat="42.3616133" lon="13.576322"><ele>1298.6666666666667</ele><time>2026-04-12T10:49:51.775Z</time></trkpt><trkpt lat="42.3616532" lon="13.5762359"><ele>1300.3333333333333</ele><time>2026-04-12T10:49:53.773Z</time></trkpt><trkpt lat="42.3617031" lon="13.5761419"><ele>1302.0</ele><time>2026-04-12T10:49:56.774Z</time></trkpt><trkpt lat="42.3617475" lon="13.5760562"><ele>1302.0</ele><time>2026-04-12T10:49:59.773Z</time></trkpt><trkpt lat="42.3617971" lon="13.5759456"><ele>1302.0</ele><time>2026-04-12T10:50:02.774Z</time></trkpt><trkpt lat="42.3618269" lon="13.5758563"><ele>1302.0</ele><time>2026-04-12T10:50:04.774Z</time></trkpt><trkpt lat="42.3618513" lon="13.5757591"><ele>1302.0</ele><time>2026-04-12T10:50:06.774Z</time></trkpt><trkpt lat="42.3618662" lon="13.5756507"><ele>1302.0</ele><time>2026-04-12T10:50:08.773Z</time></trkpt><trkpt lat="42.3619023" lon="13.5755346"><ele>1302.0</ele><time>2026-04-12T10:50:10.774Z</time></trkpt><trkpt lat="42.3619449" lon="13.5754129"><ele>1302.5</ele><time>2026-04-12T10:50:12.774Z</time></trkpt><trkpt lat="42.361985" lon="13.5752917"><ele>1303.0</ele><time>2026-04-12T10:50:14.774Z</time></trkpt><trkpt lat="42.3620405" lon="13.5751677"><ele>1303.5</ele><time>2026-04-12T10:50:16.774Z</time></trkpt><trkpt lat="42.3620781" lon="13.5750887"><ele>1304.0</ele><time>2026-04-12T10:50:17.773Z</time></trkpt><trkpt lat="42.3621187" lon="13.575017"><ele>1304.5</ele><time>2026-04-12T10:50:18.774Z</time></trkpt><trkpt lat="42.3621632" lon="13.5749491"><ele>1305.0</ele><time>2026-04-12T10:50:19.775Z</time></trkpt><trkpt lat="42.3622339" lon="13.5748413"><ele>1305.0</ele><time>2026-04-12T10:50:21.775Z</time></trkpt><trkpt lat="42.3622991" lon="13.5747581"><ele>1305.0</ele><time>2026-04-12T10:50:23.774Z</time></trkpt><trkpt lat="42.3623731" lon="13.5746867"><ele>1305.0</ele><time>2026-04-12T10:50:25.773Z</time></trkpt><trkpt lat="42.3624491" lon="13.5746173"><ele>1305.0</ele><time>2026-04-12T10:50:27.773Z</time></trkpt><trkpt lat="42.362528" lon="13.5745476"><ele>1305.0</ele><time>2026-04-12T10:50:29.774Z</time></trkpt><trkpt lat="42.3626144" lon="13.574478"><ele>1304.6666666666667</ele><time>2026-04-12T10:50:31.774Z</time></trkpt><trkpt lat="42.362707" lon="13.5743908"><ele>1304.3333333333333</ele><time>2026-04-12T10:50:33.774Z</time></trkpt><trkpt lat="42.3628189" lon="13.574302"><ele>1304.0</ele><time>2026-04-12T10:50:35.774Z</time></trkpt><trkpt lat="42.3628719" lon="13.5742475"><ele>1303.6666666666665</ele><time>2026-04-12T10:50:36.774Z</time></trkpt><trkpt lat="42.3629222" lon="13.5741939"><ele>1303.3333333333333</ele><time>2026-04-12T10:50:37.775Z</time></trkpt><trkpt lat="42.3629728" lon="13.5741397"><ele>1303.0</ele><time>2026-04-12T10:50:38.774Z</time></trkpt><trkpt lat="42.3630354" lon="13.5740795"><ele>1303.0</ele><time>2026-04-12T10:50:39.775Z</time></trkpt><trkpt lat="42.3630803" lon="13.5740167"><ele>1303.0</ele><time>2026-04-12T10:50:40.774Z</time></trkpt><trkpt lat="42.3631369" lon="13.5739561"><ele>1303.0</ele><time>2026-04-12T10:50:41.774Z</time></trkpt><trkpt lat="42.3631873" lon="13.573889"><ele>1303.0</ele><time>2026-04-12T10:50:42.773Z</time></trkpt><trkpt lat="42.363249" lon="13.5738238"><ele>1303.0</ele><time>2026-04-12T10:50:43.774Z</time></trkpt><trkpt lat="42.363305" lon="13.573748"><ele>1303.0</ele><time>2026-04-12T10:50:44.774Z</time></trkpt><trkpt lat="42.3633591" lon="13.5736687"><ele>1303.0</ele><time>2026-04-12T10:50:45.773Z</time></trkpt><trkpt lat="42.3634108" lon="13.5735807"><ele>1301.1666666666665</ele><time>2026-04-12T10:50:46.774Z</time></trkpt><trkpt lat="42.3634597" lon="13.5734867"><ele>1299.3333333333333</ele><time>2026-04-12T10:50:47.775Z</time></trkpt><trkpt lat="42.3635109" lon="13.5733947"><ele>1297.5</ele><time>2026-04-12T10:50:48.773Z</time></trkpt><trkpt lat="42.3635583" lon="13.5732977"><ele>1295.6666666666667</ele><time>2026-04-12T10:50:49.774Z</time></trkpt><trkpt lat="42.3635944" lon="13.5732049"><ele>1293.8333333333335</ele><time>2026-04-12T10:50:50.773Z</time></trkpt><trkpt lat="42.3636313" lon="13.5731072"><ele>1292.0</ele><time>2026-04-12T10:50:51.774Z</time></trkpt><trkpt lat="42.3636667" lon="13.5730163"><ele>1292.0</ele><time>2026-04-12T10:50:52.775Z</time></trkpt><trkpt lat="42.3637022" lon="13.5729173"><ele>1292.0</ele><time>2026-04-12T10:50:53.774Z</time></trkpt><trkpt lat="42.3637386" lon="13.5728235"><ele>1292.0</ele><time>2026-04-12T10:50:54.775Z</time></trkpt><trkpt lat="42.3637866" lon="13.5727214"><ele>1292.0</ele><time>2026-04-12T10:50:55.773Z</time></trkpt><trkpt lat="42.3638384" lon="13.5726221"><ele>1292.0</ele><time>2026-04-12T10:50:56.773Z</time></trkpt><trkpt lat="42.3638889" lon="13.5725159"><ele>1292.0</ele><time>2026-04-12T10:50:57.774Z</time></trkpt><trkpt lat="42.3639428" lon="13.5724077"><ele>1292.0</ele><time>2026-04-12T10:50:58.773Z</time></trkpt><trkpt lat="42.363996" lon="13.5723014"><ele>1292.0</ele><time>2026-04-12T10:50:59.773Z</time></trkpt><trkpt lat="42.3640569" lon="13.5721974"><ele>1292.0</ele><time>2026-04-12T10:51:00.773Z</time></trkpt><trkpt lat="42.3641207" lon="13.5720945"><ele>1292.0</ele><time>2026-04-12T10:51:01.773Z</time></trkpt><trkpt lat="42.3641886" lon="13.5719915"><ele>1292.0</ele><time>2026-04-12T10:51:02.774Z</time></trkpt><trkpt lat="42.3642591" lon="13.5718905"><ele>1289.8</ele><time>2026-04-12T10:51:03.774Z</time></trkpt><trkpt lat="42.3643286" lon="13.5717883"><ele>1287.6</ele><time>2026-04-12T10:51:04.774Z</time></trkpt><trkpt lat="42.3644004" lon="13.571684"><ele>1285.3999999999999</ele><time>2026-04-12T10:51:05.775Z</time></trkpt><trkpt lat="42.3644753" lon="13.5715824"><ele>1283.1999999999998</ele><time>2026-04-12T10:51:06.773Z</time></trkpt><trkpt lat="42.3645447" lon="13.571473"><ele>1281.0</ele><time>2026-04-12T10:51:07.773Z</time></trkpt><trkpt lat="42.3646047" lon="13.5713628"><ele>1281.0</ele><time>2026-04-12T10:51:08.773Z</time></trkpt><trkpt lat="42.3646631" lon="13.5712506"><ele>1281.0</ele><time>2026-04-12T10:51:09.775Z</time></trkpt><trkpt lat="42.3647158" lon="13.5711401"><ele>1281.0</ele><time>2026-04-12T10:51:10.774Z</time></trkpt><trkpt lat="42.3647674" lon="13.5710325"><ele>1281.0</ele><time>2026-04-12T10:51:11.774Z</time></trkpt><trkpt lat="42.3648203" lon="13.570928"><ele>1281.0</ele><time>2026-04-12T10:51:12.773Z</time></trkpt><trkpt lat="42.3648702" lon="13.5708206"><ele>1280.6666666666667</ele><time>2026-04-12T10:51:13.774Z</time></trkpt><trkpt lat="42.3649141" lon="13.5707121"><ele>1280.3333333333333</ele><time>2026-04-12T10:51:14.773Z</time></trkpt><trkpt lat="42.3649551" lon="13.5706076"><ele>1280.0</ele><time>2026-04-12T10:51:15.773Z</time></trkpt><trkpt lat="42.3649912" lon="13.5705019"><ele>1279.6666666666665</ele><time>2026-04-12T10:51:16.774Z</time></trkpt><trkpt lat="42.3650322" lon="13.5703957"><ele>1279.3333333333333</ele><time>2026-04-12T10:51:17.774Z</time></trkpt><trkpt lat="42.3650758" lon="13.5702959"><ele>1279.0</ele><time>2026-04-12T10:51:18.775Z</time></trkpt><trkpt lat="42.3651219" lon="13.5701998"><ele>1279.0</ele><time>2026-04-12T10:51:19.774Z</time></trkpt><trkpt lat="42.3651603" lon="13.5701054"><ele>1279.0</ele><time>2026-04-12T10:51:20.774Z</time></trkpt><trkpt lat="42.3652037" lon="13.5700116"><ele>1279.0</ele><time>2026-04-12T10:51:21.773Z</time></trkpt><trkpt lat="42.3652426" lon="13.5699201"><ele>1279.0</ele><time>2026-04-12T10:51:22.773Z</time></trkpt><trkpt lat="42.3652807" lon="13.5698268"><ele>1279.0</ele><time>2026-04-12T10:51:23.773Z</time></trkpt><trkpt lat="42.3653242" lon="13.5697375"><ele>1279.0</ele><time>2026-04-12T10:51:24.774Z</time></trkpt><trkpt lat="42.3653615" lon="13.5696527"><ele>1279.0</ele><time>2026-04-12T10:51:25.773Z</time></trkpt><trkpt lat="42.3653978" lon="13.5695651"><ele>1279.0</ele><time>2026-04-12T10:51:26.775Z</time></trkpt><trkpt lat="42.3654247" lon="13.5694761"><ele>1279.0</ele><time>2026-04-12T10:51:27.774Z</time></trkpt><trkpt lat="42.3654524" lon="13.5693908"><ele>1279.0</ele><time>2026-04-12T10:51:28.773Z</time></trkpt><trkpt lat="42.3654793" lon="13.5693034"><ele>1279.0</ele><time>2026-04-12T10:51:29.774Z</time></trkpt><trkpt lat="42.3655059" lon="13.5692163"><ele>1279.0</ele><time>2026-04-12T10:51:30.775Z</time></trkpt><trkpt lat="42.3655414" lon="13.5691283"><ele>1279.0</ele><time>2026-04-12T10:51:31.774Z</time></trkpt><trkpt lat="42.3655776" lon="13.5690353"><ele>1278.8333333333333</ele><time>2026-04-12T10:51:32.774Z</time></trkpt><trkpt lat="42.3656176" lon="13.5689483"><ele>1278.6666666666665</ele><time>2026-04-12T10:51:33.773Z</time></trkpt><trkpt lat="42.3656678" lon="13.5688613"><ele>1278.5</ele><time>2026-04-12T10:51:34.773Z</time></trkpt><trkpt lat="42.3657143" lon="13.5687692"><ele>1278.3333333333333</ele><time>2026-04-12T10:51:35.774Z</time></trkpt><trkpt lat="42.3657622" lon="13.5686761"><ele>1278.1666666666667</ele><time>2026-04-12T10:51:36.773Z</time></trkpt><trkpt lat="42.3658085" lon="13.5685736"><ele>1278.0</ele><time>2026-04-12T10:51:37.773Z</time></trkpt><trkpt lat="42.3658541" lon="13.568472"><ele>1278.0</ele><time>2026-04-12T10:51:38.774Z</time></trkpt><trkpt lat="42.3659003" lon="13.568371"><ele>1278.0</ele><time>2026-04-12T10:51:39.773Z</time></trkpt><trkpt lat="42.3659532" lon="13.568266"><ele>1278.0</ele><time>2026-04-12T10:51:40.774Z</time></trkpt><trkpt lat="42.3660047" lon="13.568162"><ele>1278.0</ele><time>2026-04-12T10:51:41.774Z</time></trkpt><trkpt lat="42.3660603" lon="13.5680575"><ele>1278.0</ele><time>2026-04-12T10:51:42.774Z</time></trkpt><trkpt lat="42.3661181" lon="13.5679537"><ele>1278.2</ele><time>2026-04-12T10:51:43.774Z</time></trkpt><trkpt lat="42.3661723" lon="13.5678485"><ele>1278.4</ele><time>2026-04-12T10:51:44.772Z</time></trkpt><trkpt lat="42.366225" lon="13.5677373"><ele>1278.6000000000001</ele><time>2026-04-12T10:51:45.772Z</time></trkpt><trkpt lat="42.3662767" lon="13.5676284"><ele>1278.8</ele><time>2026-04-12T10:51:46.773Z</time></trkpt><trkpt lat="42.3663268" lon="13.5675233"><ele>1279.0</ele><time>2026-04-12T10:51:47.774Z</time></trkpt><trkpt lat="42.3663824" lon="13.5674225"><ele>1279.0</ele><time>2026-04-12T10:51:48.773Z</time></trkpt><trkpt lat="42.3664316" lon="13.5673201"><ele>1279.0</ele><time>2026-04-12T10:51:49.772Z</time></trkpt><trkpt lat="42.3664842" lon="13.5672199"><ele>1279.0</ele><time>2026-04-12T10:51:50.772Z</time></trkpt><trkpt lat="42.3665357" lon="13.5671222"><ele>1279.0</ele><time>2026-04-12T10:51:51.772Z</time></trkpt><trkpt lat="42.3665812" lon="13.5670301"><ele>1279.0</ele><time>2026-04-12T10:51:52.772Z</time></trkpt><trkpt lat="42.3666256" lon="13.5669414"><ele>1279.0</ele><time>2026-04-12T10:51:53.773Z</time></trkpt><trkpt lat="42.3666635" lon="13.566852"><ele>1275.0</ele><time>2026-04-12T10:51:54.773Z</time></trkpt><trkpt lat="42.366699" lon="13.5667669"><ele>1275.0</ele><time>2026-04-12T10:51:55.774Z</time></trkpt><trkpt lat="42.3667333" lon="13.5666843"><ele>1275.0</ele><time>2026-04-12T10:51:56.772Z</time></trkpt></trkseg></trk></gpx>